[[{"header":{"parameterUnit":"m.s-1","parameterCategory":1,"la1":30.6,"la2":29.2853,"lo1":-89.7004,"lo2":-87.6739,"dy":0.0162,"dx":0.0183,"nx":112,"ny":82,"refTime":"2023-09-27T18:00:00:Z","depth":0,"parameterNumber":2,"parameterNumberName":"U-component_of_WINDS"},"data":[0.0,0.0,0.0,0.0,0.0,0.0,0.0,0.0,0.0,0.0,0.0,0.0,0.0,0.0,0.0,0.0,0.0,0.0,0.0,0.0,0.0,0.0,0.0,0.0,0.0,0.0,0.0,0.0,0.0,0.0,0.0,0.0,0.0,0.0,0.0,0.0,0.0,0.0,0.0,0.0,0.0,0.0,0.0,0.0,0.0,0.0,0.0,0.0,0.0,0.0,0.0,0.0,0.0,0.0,0.0,0.0,0.0,0.0,0.0,0.0,0.0,0.0,0.0,0.0,0.0,0.0,0.0,0.0,0.0,0.0,0.0,0.0,0.0,0.0,0.0,0.0,0.0,0.0,0.0,0.0,0.0,0.0,0.0,0.0,0.0,0.0,0.0,0.0,0.0,0.0,2.1551,2.3208,2.4266,2.4563,2.381,2.2721,2.1444,2.0007,0.0,0.0,0.0,0.0,0.0,0.0,0.0,0.0,0.0,0.0,0.0,0.0,0.0,0.0,0.0,0.0,0.0,0.0,0.0,0.0,0.0,0.0,0.0,0.0,0.0,0.0,0.0,0.0,0.0,0.0,0.0,0.0,0.0,0.0,0.0,0.0,0.0,0.0,0.0,0.0,0.0,0.0,0.0,0.0,0.0,0.0,0.0,0.0,0.0,0.0,0.0,0.0,0.0,0.0,0.0,0.0,0.0,0.0,0.0,0.0,0.0,0.0,0.0,0.0,0.0,0.0,0.0,0.0,0.0,0.0,0.0,0.0,0.0,0.0,0.0,0.0,0.0,0.0,0.0,0.0,0.0,0.0,0.0,0.0,0.0,0.0,0.0,0.0,0.0,0.0,0.0,0.0,0.0,0.0,0.0,0.0,0.0,0.0,0.0,0.0,0.0,0.0,0.0,0.0,2.2477,2.4049,2.3993,2.3909,2.4026,2.2408,2.1249,2.0994,0.0,0.0,0.0,0.0,0.0,0.0,0.0,0.0,0.0,0.0,0.0,0.0,0.0,0.0,0.0,0.0,0.0,0.0,0.0,0.0,0.0,0.0,0.0,0.0,0.0,0.0,0.0,0.0,0.0,0.0,0.0,0.0,0.0,0.0,0.0,0.0,0.0,0.0,0.0,0.0,0.0,0.0,0.0,0.0,0.0,0.0,0.0,0.0,0.0,0.0,0.0,0.0,0.0,0.0,0.0,0.0,0.0,0.0,0.0,0.0,0.0,0.0,0.0,0.0,0.0,0.0,0.0,0.0,0.0,0.0,0.0,0.0,0.0,0.0,0.0,0.0,0.0,0.0,0.0,0.0,0.0,0.0,0.0,0.0,0.0,0.0,0.0,0.0,0.0,0.0,0.0,0.0,0.0,0.0,0.0,0.0,0.0,0.0,0.0,0.0,0.0,0.0,0.0,2.2156,2.3009,2.4347,2.4138,2.4027,2.4349,2.2407,2.1203,2.1194,1.9554,0.0,0.0,0.0,0.0,0.0,0.0,0.0,0.0,0.0,0.0,0.0,0.0,0.0,0.0,0.0,0.0,0.0,0.0,0.0,0.0,0.0,0.0,0.0,0.0,0.0,0.0,0.0,0.0,0.0,0.0,0.0,0.0,0.0,0.0,0.0,0.0,0.0,0.0,0.0,0.0,0.0,0.0,0.0,0.0,0.0,0.0,0.0,0.0,0.0,0.0,0.0,0.0,0.0,0.0,0.0,0.0,0.0,0.0,0.0,0.0,0.0,0.0,0.0,0.0,0.0,0.0,0.0,0.0,0.0,0.0,0.0,0.0,0.0,0.0,0.0,0.0,0.0,0.0,0.0,0.0,0.0,0.0,0.0,0.0,0.0,0.0,0.0,0.0,0.0,0.0,0.0,0.0,0.0,0.0,0.0,0.0,0.0,0.0,0.0,0.0,0.0,0.0,2.2982,2.3403,2.4276,2.4204,2.4187,2.4357,2.2424,2.1188,2.1203,1.935,0.0,0.0,0.0,0.0,0.0,0.0,0.0,0.0,0.0,0.0,0.0,0.0,0.0,0.0,0.0,0.0,0.0,0.0,0.0,0.0,0.0,0.0,0.0,0.0,0.0,0.0,0.0,0.0,0.0,0.0,0.0,0.0,0.0,0.0,0.0,0.0,0.0,0.0,0.0,0.0,0.0,0.0,0.0,0.0,0.0,0.0,0.0,0.0,0.0,0.0,0.0,0.0,0.0,0.0,0.0,0.0,0.0,0.0,0.0,0.0,0.0,0.0,0.0,0.0,0.0,0.0,0.0,0.0,0.0,0.0,0.0,0.0,0.0,0.0,0.0,0.0,0.0,0.0,0.0,0.0,0.0,0.0,0.0,0.0,0.0,0.0,0.0,0.0,0.0,0.0,0.0,0.0,0.0,0.0,0.0,0.0,0.0,0.0,0.0,0.0,0.0,0.0,2.3247,2.3764,2.3672,2.3928,2.3987,2.3679,2.215,2.1181,2.1197,1.9602,0.0,0.0,0.0,0.0,0.0,0.0,0.0,0.0,0.0,0.0,0.0,0.0,0.0,0.0,0.0,0.0,0.0,0.0,0.0,0.0,0.0,0.0,0.0,0.0,0.0,0.0,0.0,0.0,0.0,0.0,0.0,0.0,0.0,0.0,0.0,0.0,0.0,0.0,0.0,0.0,0.0,0.0,0.0,0.0,0.0,0.0,0.0,0.0,0.0,0.0,0.0,0.0,0.0,0.0,0.0,0.0,0.0,0.0,0.0,0.0,0.0,0.0,0.0,0.0,0.0,0.0,0.0,0.0,0.0,0.0,0.0,0.0,0.0,0.0,0.0,0.0,0.0,0.0,0.0,0.0,0.0,0.0,0.0,0.0,0.0,0.0,0.0,0.0,0.0,0.0,0.0,0.0,0.0,0.0,0.0,0.0,0.0,0.0,0.0,0.0,0.0,0.0,2.2658,2.3156,2.3846,2.3823,2.3647,2.3325,2.2462,2.1643,2.0932,0.0,0.0,0.0,0.0,0.0,0.0,0.0,0.0,0.0,0.0,0.0,0.0,0.0,0.0,0.0,0.0,0.0,0.0,0.0,0.0,0.0,0.0,0.0,0.0,0.0,0.0,0.0,0.0,0.0,0.0,0.0,0.0,0.0,0.0,0.0,0.0,0.0,0.0,0.0,0.0,0.0,0.0,0.0,0.0,0.0,0.0,0.0,0.0,0.0,0.0,0.0,0.0,0.0,0.0,0.0,0.0,0.0,0.0,0.0,0.0,0.0,0.0,0.0,0.0,0.0,0.0,0.0,0.0,0.0,0.0,0.0,0.0,0.0,0.0,0.0,0.0,0.0,0.0,0.0,0.0,0.0,0.0,0.0,0.0,0.0,0.0,0.0,0.0,0.0,0.0,0.0,0.0,0.0,0.0,0.0,0.0,0.0,0.0,0.0,0.0,0.0,0.0,2.1879,2.2202,2.2766,2.3681,2.3828,2.375,2.3407,2.2837,2.2161,2.1386,0.0,0.0,0.0,0.0,0.0,0.0,0.0,0.0,0.0,0.0,0.0,0.0,0.0,0.0,0.0,0.0,0.0,0.0,0.0,0.0,0.0,0.0,0.0,0.0,0.0,0.0,0.0,0.0,0.0,0.0,0.0,0.0,0.0,0.0,0.0,0.0,0.0,0.0,0.0,0.0,0.0,0.0,0.0,0.0,0.0,0.0,0.0,0.0,0.0,0.0,0.0,0.0,0.0,0.0,0.0,0.0,0.0,0.0,0.0,0.0,0.0,0.0,0.0,0.0,0.0,0.0,0.0,0.0,0.0,0.0,0.0,0.0,0.0,0.0,0.0,0.0,0.0,0.0,0.0,0.0,0.0,0.0,0.0,0.0,0.0,0.0,0.0,0.0,0.0,0.0,0.0,0.0,0.0,0.0,0.0,0.0,0.0,0.0,0.0,0.0,0.0,0.0,2.1325,2.205,2.2709,2.3076,2.3945,2.4347,2.4036,2.3205,2.2711,0.0,0.0,0.0,0.0,0.0,0.0,0.0,0.0,0.0,0.0,0.0,0.0,0.0,0.0,0.0,0.0,0.0,0.0,0.0,0.0,0.0,0.0,0.0,0.0,0.0,0.0,0.0,0.0,0.0,0.0,0.0,0.0,0.0,0.0,0.0,0.0,0.0,0.0,0.0,0.0,0.0,0.0,0.0,0.0,0.0,0.0,0.0,0.0,0.0,0.0,0.0,0.0,0.0,0.0,0.0,0.0,0.0,0.0,0.0,0.0,0.0,0.0,0.0,0.0,0.0,0.0,0.0,0.0,0.0,0.0,0.0,0.0,0.0,0.0,0.0,0.0,0.0,0.0,0.0,0.0,0.0,0.0,0.0,0.0,0.0,0.0,0.0,0.0,0.0,0.0,0.0,0.0,0.0,0.0,0.0,0.0,0.0,0.0,0.0,0.0,0.0,0.0,0.0,2.1501,2.1627,2.2275,2.3962,2.3548,2.3475,2.4214,2.3278,2.2542,2.2349,0.0,0.0,0.0,0.0,0.0,0.0,0.0,0.0,0.0,0.0,0.0,0.0,0.0,0.0,0.0,0.0,0.0,0.0,0.0,0.0,0.0,0.0,0.0,0.0,0.0,0.0,0.0,0.0,0.0,0.0,0.0,0.0,0.0,0.0,0.0,0.0,0.0,0.0,0.0,0.0,0.0,0.0,0.0,0.0,0.0,0.0,0.0,0.0,0.0,0.0,0.0,0.0,0.0,0.0,0.0,0.0,0.0,0.0,0.0,0.0,0.0,0.0,0.0,0.0,0.0,0.0,0.0,0.0,0.0,0.0,0.0,0.0,0.0,0.0,0.0,0.0,0.0,0.0,0.0,0.0,0.0,0.0,0.0,0.0,0.0,0.0,0.0,0.0,0.0,0.0,0.0,0.0,0.0,0.0,0.0,0.0,0.0,0.0,0.0,0.0,0.0,0.0,2.1261,2.1373,2.2141,2.4161,2.3839,2.3789,2.4608,2.3941,2.3246,2.2757,0.0,0.0,0.0,0.0,0.0,0.0,0.0,0.0,0.0,0.0,0.0,0.0,0.0,0.0,0.0,0.0,0.0,0.0,0.0,0.0,0.0,0.0,0.0,0.0,0.0,0.0,0.0,0.0,0.0,0.0,0.0,0.0,0.0,0.0,0.0,0.0,0.0,0.0,0.0,0.0,0.0,0.0,0.0,0.0,0.0,0.0,0.0,0.0,0.0,0.0,0.0,0.0,0.0,0.0,0.0,0.0,0.0,0.0,0.0,0.0,0.0,0.0,0.0,0.0,0.0,0.0,0.0,0.0,0.0,0.0,0.0,0.0,0.0,0.0,0.0,0.0,0.0,0.0,0.0,0.0,0.0,0.0,0.0,0.0,0.0,0.0,0.0,0.0,0.0,0.0,0.0,0.0,0.0,0.0,0.0,0.0,0.0,0.0,0.0,0.0,0.0,0.0,2.0794,2.1291,2.226,2.3899,2.435,2.4709,2.5131,2.4791,2.427,2.3608,0.0,0.0,0.0,0.0,0.0,0.0,0.0,0.0,0.0,0.0,0.0,0.0,0.0,0.0,0.0,0.0,0.0,0.0,0.0,0.0,0.0,0.0,0.0,0.0,0.0,0.0,0.0,0.0,0.0,0.0,0.0,0.0,0.0,0.0,0.0,0.0,0.0,0.0,0.0,0.0,0.0,0.0,0.0,0.0,0.0,0.0,0.0,0.0,0.0,0.0,0.0,0.0,0.0,0.0,0.0,0.0,0.0,0.0,0.0,0.0,2.1399,2.1352,0.0,0.0,0.0,0.0,0.0,0.0,0.0,0.0,0.0,0.0,0.0,0.0,0.0,0.0,0.0,0.0,0.0,0.0,0.0,0.0,0.0,0.0,0.0,0.0,0.0,0.0,0.0,0.0,0.0,0.0,0.0,0.0,0.0,0.0,0.0,0.0,0.0,0.0,0.0,0.0,2.1457,2.1398,2.2126,2.4239,2.3444,2.3528,2.5399,2.3788,2.3074,2.3986,2.2868,0.0,0.0,0.0,0.0,0.0,0.0,0.0,0.0,0.0,0.0,0.0,0.0,0.0,0.0,0.0,0.0,0.0,0.0,0.0,0.0,0.0,0.0,0.0,0.0,0.0,0.0,0.0,0.0,0.0,0.0,0.0,0.0,0.0,0.0,0.0,0.0,0.0,0.0,0.0,0.0,0.0,0.0,0.0,0.0,0.0,0.0,0.0,0.0,0.0,0.0,0.0,0.0,0.0,0.0,0.0,0.0,0.0,0.0,0.0,2.3719,2.278,0.0,0.0,0.0,0.0,0.0,0.0,0.0,0.0,0.0,0.0,0.0,0.0,0.0,0.0,0.0,0.0,0.0,0.0,0.0,0.0,0.0,0.0,0.0,0.0,0.0,0.0,0.0,0.0,0.0,0.0,0.0,0.0,0.0,0.0,0.0,0.0,0.0,0.0,0.0,0.0,2.1379,2.1329,2.2022,2.4099,2.3788,2.3978,2.5317,2.4347,2.383,2.4189,2.3382,0.0,0.0,0.0,0.0,0.0,0.0,0.0,0.0,0.0,0.0,0.0,0.0,0.0,0.0,0.0,0.0,0.0,0.0,0.0,0.0,0.0,0.0,0.0,0.0,0.0,0.0,0.0,0.0,0.0,0.0,0.0,0.0,0.0,0.0,0.0,0.0,0.0,0.0,0.0,0.0,0.0,0.0,0.0,0.0,0.0,0.0,0.0,0.0,0.0,0.0,0.0,0.0,0.0,2.791,2.8015,2.7878,2.8753,2.896,2.8502,2.6917,2.5108,2.3288,2.3123,0.0,0.0,0.0,0.0,0.0,0.0,0.0,0.0,0.0,0.0,0.0,0.0,0.0,0.0,0.0,0.0,0.0,0.0,0.0,0.0,0.0,0.0,0.0,0.0,2.6154,2.5973,2.3927,0.0,0.0,0.0,0.0,0.0,0.0,0.0,0.0,0.0,0.0,0.0,2.1098,2.1262,2.1919,2.358,2.4126,2.4523,2.4943,2.4934,2.4749,2.4342,2.3804,2.3283,0.0,0.0,0.0,0.0,0.0,0.0,0.0,0.0,0.0,0.0,0.0,0.0,0.0,0.0,0.0,0.0,0.0,0.0,0.0,0.0,0.0,0.0,0.0,0.0,0.0,0.0,0.0,0.0,0.0,0.0,0.0,0.0,1.9803,2.0291,0.0,0.0,0.0,0.0,0.0,0.0,0.0,0.0,0.0,0.0,0.0,0.0,0.0,2.7116,2.7294,2.9186,2.9869,2.9242,2.9899,2.9987,2.9589,3.0251,3.0699,3.0946,3.1058,0.0,2.6627,2.2955,0.0,0.0,0.0,0.0,0.0,0.0,0.0,0.0,0.0,0.0,0.0,0.0,0.0,0.0,0.0,0.0,0.0,0.0,0.0,0.0,0.0,0.0,2.442,2.4711,2.5547,2.6144,0.0,2.5228,2.4691,2.4556,2.3186,0.0,0.0,0.0,0.0,0.0,0.0,0.0,2.1185,2.1452,2.195,2.2702,2.2661,2.3073,2.4383,2.3611,2.3512,2.4644,2.3944,2.3468,2.3406,2.3296,0.0,0.0,0.0,0.0,0.0,0.0,0.0,0.0,0.0,0.0,0.0,0.0,0.0,0.0,0.0,0.0,0.0,0.0,0.0,0.0,0.0,0.0,0.0,0.0,0.0,0.0,0.0,0.0,0.0,1.9969,2.1172,2.0682,2.1584,2.1722,0.0,0.0,0.0,0.0,0.0,0.0,0.0,0.0,0.0,2.6423,2.798,2.9135,2.9804,3.1181,3.1998,3.2292,3.2825,3.3071,3.3127,3.3594,3.3927,3.4092,3.4055,3.3051,3.1123,2.7289,2.5509,2.5039,0.0,0.0,0.0,0.0,2.4506,2.4832,2.5189,2.5028,2.4712,2.4814,0.0,0.0,0.0,0.0,0.0,0.0,0.0,0.0,0.0,0.0,2.5261,2.5704,2.6373,2.6835,2.6669,2.5791,2.5076,0.0,2.4024,2.296,2.304,0.0,0.0,0.0,0.0,2.0781,2.1407,2.1774,2.2213,2.2828,2.2901,2.3386,2.4543,2.41,2.4165,2.5091,2.4574,2.3999,2.3517,2.3699,2.3566,0.0,0.0,0.0,0.0,0.0,0.0,0.0,0.0,0.0,0.0,0.0,0.0,0.0,0.0,0.0,0.0,0.0,0.0,0.0,0.0,0.0,0.0,0.0,0.0,0.0,0.0,0.0,0.0,2.1646,2.2644,2.1466,2.3125,2.3636,0.0,0.0,0.0,0.0,0.0,0.0,2.605,2.7703,2.8913,2.9487,3.0567,3.1685,3.2753,3.3578,3.4385,3.5174,3.5595,3.5907,3.62,3.6531,3.6732,3.6824,3.6493,3.5925,3.488,3.1201,2.8661,2.7019,2.6341,2.6415,2.684,2.6725,2.7028,2.7552,2.7893,2.7743,2.7392,2.7206,2.6462,2.5469,2.424,0.0,0.0,0.0,0.0,2.2736,2.344,2.4579,2.5668,2.6182,2.6716,2.7097,2.6882,2.6067,2.5376,0.0,2.438,2.3444,2.3313,0.0,0.0,0.0,0.0,2.0783,2.1715,2.2036,2.2385,2.2899,2.3157,2.3524,2.4188,2.4116,2.4297,2.4885,2.4618,2.422,2.3706,2.4012,2.392,2.3362,0.0,0.0,0.0,0.0,0.0,0.0,0.0,0.0,0.0,0.0,0.0,0.0,0.0,0.0,0.0,0.0,0.0,0.0,0.0,0.0,0.0,0.0,0.0,0.0,0.0,0.0,0.0,0.0,0.0,2.3655,2.5273,0.0,0.0,0.0,0.0,2.6755,2.8513,2.9469,2.9444,3.1949,3.3331,3.3341,3.4601,3.5669,3.6512,3.7356,3.7576,3.7244,3.7668,3.7869,3.7888,3.7906,3.8105,3.849,3.8453,3.7995,3.6896,3.2514,3.0783,3.0655,2.87,2.8432,2.9093,2.87,2.8455,2.8273,2.7932,2.7564,2.7444,2.8931,2.8457,2.7056,2.585,2.4404,0.0,0.0,2.3643,2.407,2.3971,2.4551,2.5076,2.4946,2.5699,2.6469,2.6439,2.6121,2.5643,0.0,2.3459,2.2659,2.3441,0.0,2.1365,2.2227,2.1668,2.1406,2.2081,2.2145,2.2241,2.2591,2.2653,2.2646,2.2724,2.2583,2.2867,2.3646,2.3566,2.3695,2.4134,2.4183,2.3975,2.3504,2.3504,0.0,0.0,0.0,0.0,0.0,0.0,0.0,0.0,0.0,0.0,0.0,0.0,0.0,0.0,0.0,0.0,0.0,0.0,0.0,0.0,0.0,0.0,0.0,0.0,0.0,0.0,0.0,0.0,2.7095,2.9094,0.0,2.7986,2.8256,2.8814,2.9464,3.1394,3.2727,3.311,3.5008,3.6329,3.6809,3.7521,3.8218,3.8808,3.9083,3.9157,3.9028,3.9157,3.923,3.919,3.8285,3.7951,3.8093,3.8093,3.7791,3.7148,3.5569,3.4378,3.3516,3.2556,3.2187,3.2191,3.2353,3.2489,3.2643,3.2496,3.2349,3.1895,3.0113,2.8478,2.6985,2.5763,2.4827,2.4149,2.3877,2.3927,2.4017,2.4115,2.4622,2.5146,2.5016,2.5295,2.5477,2.5074,2.4907,2.4672,2.4206,2.3209,2.2589,2.3114,2.2047,2.1348,2.2056,2.1895,2.1864,2.233,2.2564,2.2645,2.2605,2.2406,2.2452,2.2808,2.2419,2.2617,2.3788,2.36,2.3801,2.4556,2.4581,2.4636,2.4721,2.4721,2.4647,0.0,0.0,0.0,0.0,0.0,0.0,0.0,0.0,0.0,0.0,0.0,0.0,0.0,0.0,0.0,0.0,0.0,0.0,0.0,0.0,0.0,0.0,0.0,0.0,0.0,2.6751,2.869,2.9177,3.1014,3.1576,2.9886,3.052,3.1211,3.1628,3.3139,3.4343,3.4998,3.6164,3.7192,3.797,3.7948,3.8512,3.973,3.9003,3.8778,3.915,3.882,3.8613,3.8429,3.7472,3.7122,3.7283,3.7283,3.6937,3.6449,3.6615,3.5915,3.472,3.441,3.4005,3.3648,3.3844,3.3944,3.4025,3.3903,3.3693,3.3058,3.0482,2.8624,2.7211,2.6267,2.554,2.4946,2.4678,2.4614,2.4625,2.4643,2.5049,2.5442,2.5273,2.5157,2.497,2.4583,2.4422,2.4289,2.4102,2.3378,2.2855,2.3084,2.2337,2.1866,2.241,2.2318,2.2314,2.2735,2.2827,2.2827,2.2748,2.2454,2.2287,2.2389,2.2157,2.2216,2.2661,2.2772,2.3028,2.3466,2.3673,2.3866,2.3997,2.4112,2.4112,2.3997,0.0,0.0,0.0,0.0,0.0,0.0,0.0,0.0,0.0,0.0,0.0,0.0,0.0,0.0,0.0,0.0,0.0,0.0,0.0,0.0,0.0,0.0,0.0,2.5918,2.8329,2.9931,2.9868,3.0926,3.1262,3.0314,3.0742,3.1734,3.3306,3.3771,3.4318,3.5089,3.5508,3.6034,3.6724,3.5881,3.6688,3.9349,3.7121,3.6543,3.7639,3.6708,3.6028,3.5601,3.5558,3.5736,3.6102,3.6102,3.5649,3.4916,3.5344,3.5051,3.424,3.4083,3.3757,3.3307,3.3049,3.2666,3.219,3.1803,3.1173,3.0429,3.0031,2.8998,2.7807,2.7408,2.6509,2.5657,2.5643,2.5785,2.5931,2.5598,2.5745,2.5917,2.5598,2.5317,2.5104,2.5077,2.485,2.4613,2.4599,2.3905,2.3365,2.3413,2.312,2.3016,2.3331,2.2902,0.0,2.3328,2.2874,2.2629,2.2944,2.2744,2.2215,2.1279,2.172,2.1491,2.0214,2.0956,2.1283,2.0941,2.1486,2.1632,2.1318,2.158,2.158,2.1302,0.0,0.0,0.0,0.0,0.0,0.0,0.0,0.0,0.0,0.0,0.0,0.0,0.0,0.0,0.0,0.0,0.0,0.0,0.0,0.0,0.0,2.5303,2.7101,2.8538,3.0287,3.194,3.3332,3.4546,3.517,3.4875,3.4777,3.5162,3.6123,3.6083,3.607,3.6253,3.6367,3.6339,3.6167,3.5911,3.6119,3.6899,3.6259,3.599,3.6113,3.5827,3.5654,3.5481,3.4455,3.408,3.4156,3.4156,3.4023,3.3801,3.3932,3.3871,3.3675,3.4066,3.4141,3.4001,3.3947,3.3673,3.324,3.2892,3.1879,3.0585,2.9962,2.8921,2.7834,2.742,2.6915,2.6411,2.6249,2.6077,2.5971,2.5891,2.5931,2.5971,2.5891,2.581,2.5636,2.5208,2.5024,2.489,2.4639,2.4239,2.391,2.3722,2.3413,2.3178,2.3052,2.291,0.0,2.3032,2.291,2.2741,2.2592,2.2484,2.2089,2.1214,2.0874,2.0654,2.0473,2.0285,2.0535,2.131,2.1494,2.1691,2.1878,2.2151,2.1996,0.0,0.0,0.0,0.0,0.0,0.0,0.0,0.0,0.0,0.0,0.0,0.0,0.0,0.0,0.0,0.0,0.0,0.0,0.0,0.0,0.0,0.0,2.796,2.9644,3.1393,3.2203,3.3125,3.4498,3.4944,3.5105,3.5021,3.4729,3.4745,3.5328,3.5051,3.4854,3.483,3.4785,3.4756,3.4563,3.4337,3.4608,3.5433,3.4608,3.4322,3.4472,3.4242,3.3901,3.341,3.2762,3.2363,3.2233,3.2233,3.2115,3.1937,3.2159,3.2115,0.0,0.0,0.0,0.0,0.0,3.1921,3.1686,3.1494,3.0682,2.9656,2.9224,2.844,2.7595,2.7391,2.7148,2.6974,2.68,2.6427,2.6083,2.6083,2.599,2.5858,2.5675,2.5818,2.5865,2.5288,2.523,2.517,2.4877,2.469,0.0,2.4022,2.3714,2.3487,2.3434,2.322,2.31,2.3255,2.3054,2.2827,2.2619,2.2485,2.211,2.1362,2.0971,0.0,0.0,0.0,2.0037,2.0608,2.05,0.0,0.0,0.0,2.097,2.0566,0.0,0.0,0.0,2.1665,2.165,0.0,0.0,0.0,0.0,0.0,0.0,0.0,0.0,0.0,0.0,0.0,0.0,0.0,0.0,0.0,0.0,3.0669,3.1726,3.3843,3.3704,3.3609,3.4232,3.3593,3.3037,3.2813,3.2543,3.2515,3.2822,3.2557,3.2329,3.2283,3.2283,0.0,0.0,0.0,3.2738,3.4443,3.2785,3.2246,3.2871,3.2352,3.156,3.0635,3.0908,3.0867,3.0581,3.0581,3.0299,2.9913,3.0388,3.0339,3.007,3.0577,3.0527,3.0059,2.9363,2.9095,2.9095,2.9055,0.0,0.0,2.8259,2.7884,2.7456,2.7416,2.7389,2.7308,2.7281,2.6743,2.617,2.613,2.5921,2.5634,2.5209,2.5491,2.5765,2.5322,2.5294,2.5272,2.5017,2.4975,2.4826,2.4269,2.3972,2.3888,2.4075,2.3625,2.3407,2.3669,2.3228,2.2893,2.2893,0.0,0.0,2.1636,2.1569,2.0937,1.9522,1.9705,1.9699,1.9411,1.911,1.9096,1.9384,1.9395,1.938,1.9353,1.9749,2.0166,2.0623,2.1541,2.1744,0.0,0.0,0.0,0.0,0.0,0.0,0.0,0.0,0.0,0.0,0.0,0.0,0.0,0.0,0.0,2.8783,3.0325,3.1742,3.3473,3.3473,3.344,3.3747,3.3841,3.3777,3.3471,3.3367,3.3465,3.3787,3.3521,3.315,3.2803,3.2756,3.2483,3.1914,3.2001,3.2144,3.2292,3.2144,3.1921,3.1547,3.1442,0.0,3.0759,3.0813,3.0679,3.0455,3.0455,3.0231,2.994,3.0316,3.0499,3.0568,3.0214,3.0057,2.9954,2.9766,2.9753,2.9713,2.9472,2.9325,2.9195,2.8671,2.8444,2.8297,2.8085,2.7844,0.0,2.7173,2.6615,2.6089,2.5739,2.5454,2.5209,2.513,2.5211,2.5188,2.4905,2.4662,2.4418,2.4098,2.413,2.4158,2.4053,2.4097,2.3981,2.3532,2.3359,2.326,2.3094,2.2974,2.2893,2.2893,2.284,2.2479,2.1649,2.1346,2.077,1.9773,1.958,1.9461,1.9394,1.934,1.934,1.9394,1.9792,1.9926,1.9714,2.0462,2.0805,2.0679,2.0623,2.0675,0.0,0.0,0.0,0.0,0.0,0.0,0.0,0.0,0.0,0.0,0.0,2.4538,2.6437,0.0,2.7997,3.0577,3.1446,3.2049,3.2765,3.3018,3.3175,3.3268,3.3032,3.2843,3.2683,3.2443,3.2403,3.2697,3.2443,3.2283,3.2318,3.2318,3.2251,3.2152,3.23,3.23,3.2152,3.23,3.2104,3.1664,3.181,3.1441,3.065,3.1076,3.067,2.9671,3.0172,3.0138,2.9779,3.021,3.0493,3.0541,3.0247,3.0234,3.0314,3.002,3.0007,3.01,2.9806,2.9606,2.9432,2.9138,2.8951,2.8791,2.8644,2.822,2.777,2.7516,2.6723,2.5903,2.5668,2.5385,2.5132,2.4889,2.5072,2.5215,2.4863,2.4743,2.4621,2.4329,2.4201,2.4159,2.4204,2.4129,2.406,2.395,2.3825,2.3714,2.3554,2.3442,2.3295,2.3113,2.31,2.2792,2.2044,2.1609,2.1082,2.0494,2.0321,2.0241,2.0241,2.0241,2.0241,2.0241,2.0521,2.0748,2.0895,2.1336,2.171,2.1991,2.1827,2.1663,0.0,0.0,0.0,0.0,0.0,0.0,0.0,2.2888,2.3638,2.4673,2.5698,2.7039,2.9068,2.9549,3.0227,3.2211,3.2388,3.2258,3.2112,3.2491,3.276,3.276,3.2223,3.1836,3.1781,3.14,3.1248,3.1476,3.1223,3.1244,3.1674,3.1723,3.192,3.2425,3.2425,3.2425,3.2425,3.2425,3.2279,3.1988,3.2226,3.1715,3.0527,3.1175,3.0572,2.9016,2.9788,2.988,2.9553,3.0031,3.028,3.0333,3.0417,3.0517,3.0611,3.021,3.0167,3.0247,3.006,2.9806,2.9566,2.9499,2.9325,2.9068,2.9015,2.8485,2.7874,2.784,2.6804,2.5707,2.5642,2.5408,2.5091,2.4707,2.4923,2.5172,2.4807,2.4761,2.47,2.45,2.4275,2.415,2.4174,2.413,2.4195,2.4496,2.4356,2.4182,2.4128,2.3915,2.371,2.3434,2.3407,2.3166,2.2552,2.201,2.1569,2.1296,2.1219,2.1155,2.1155,2.1091,2.1059,2.1059,2.1112,2.139,2.1952,2.2018,2.2402,2.3082,2.3135,2.2905,1.9705,1.985,2.0922,2.2567,2.1802,2.1846,0.0,2.6127,2.5524,2.7569,2.7917,2.7988,2.8455,2.8947,2.9571,3.0603,3.1392,3.197,3.2137,3.2045,3.1998,3.2249,3.2387,3.2302,3.1857,3.1921,3.1946,3.1781,3.1743,3.1717,3.1768,3.1768,3.1818,3.1868,3.1868,3.1868,3.1868,3.1868,3.1728,3.1459,3.1534,3.1191,3.0471,3.0606,3.0159,2.9237,2.9134,2.9172,2.9368,2.9657,2.9913,3.0152,3.0392,3.0363,3.02,3.0578,3.0381,2.9993,3.0234,3.0114,2.982,2.9566,2.9459,2.9379,2.9081,2.8485,2.787,2.7682,2.6687,2.5672,2.5495,2.5053,2.4666,2.4625,2.4473,2.432,2.4279,2.3932,2.3569,2.3533,2.3614,2.3601,2.3378,2.3908,2.4315,2.4256,2.4222,2.4115,2.3884,2.383,2.379,2.3763,2.3728,2.3509,2.2893,2.2305,2.1924,2.1884,2.1556,2.1358,2.1358,2.1062,2.091,2.091,2.114,2.142,2.1726,2.2016,2.223,2.2333,2.2553,2.2714,2.2711,2.2706,2.3,2.3399,2.387,2.4702,2.6523,2.6986,2.7406,2.8647,2.9266,2.9722,3.0244,3.028,3.0452,3.1164,3.131,3.1316,3.1267,3.116,3.1057,3.0849,3.088,3.1057,3.1304,3.1291,3.1156,3.0884,3.1156,3.1346,3.1327,3.1465,3.163,3.1819,3.1819,3.1895,3.2048,3.1895,3.1832,3.1883,3.1717,3.115,3.0313,3.0833,3.0497,2.9471,2.8796,2.8817,2.9314,2.9428,2.9644,2.9873,3.0007,2.9883,2.9713,3.0505,3.0451,3.001,3.029,3.0167,2.99,2.978,2.9548,2.9299,2.918,2.837,2.7548,2.7429,2.6642,2.5732,2.5639,2.5343,2.5053,2.5053,2.4861,2.4668,2.4668,2.4366,2.4053,2.3897,2.3775,2.3693,2.3669,2.383,2.3985,2.4158,2.433,2.4356,2.4062,2.4168,2.4209,2.4035,2.3714,2.3368,2.3113,2.2854,2.2605,2.2363,2.219,2.2086,2.2086,2.1816,2.1658,2.1658,2.1607,2.181,2.222,2.237,2.2688,2.3122,2.3249,2.289,2.3672,2.3911,2.416,2.4213,2.5626,2.699,2.6906,2.7787,2.8815,2.9346,2.9687,3.0113,3.0927,3.0575,3.0406,3.125,3.1039,3.0745,3.0624,3.0539,3.0298,2.9755,2.9562,2.9545,2.9714,3.0104,3.0334,3.0226,3.0636,3.0875,3.0894,3.1054,3.1345,3.1704,3.1553,3.1641,3.1992,3.1729,3.1653,3.1766,3.149,3.0864,2.9984,3.0353,3.0099,2.9337,2.8523,2.8433,2.8896,2.9059,2.9184,2.9297,2.9514,2.9426,2.9202,3.0231,3.0227,2.9741,3.0162,3.0053,2.9689,2.9689,2.9496,2.9182,2.9047,2.8226,2.7286,2.7286,2.6594,2.5788,2.5788,2.5584,2.5391,2.5391,2.5198,2.5005,2.5005,2.4788,2.4523,2.4342,2.415,2.4013,2.4025,2.3913,2.3899,2.4134,2.4327,2.4424,2.4214,2.4372,2.4424,2.4214,2.374,2.3396,2.3274,2.3173,2.2988,2.2624,2.2517,2.2407,2.2319,2.2122,2.1986,2.1898,2.1785,2.1926,2.2414,2.2414,2.2606,2.2954,2.3065,2.2461,2.0823,2.1829,2.322,2.5079,2.6268,2.738,2.8796,2.917,2.9425,2.9971,2.8974,2.8305,2.9281,2.8637,2.8465,3.0001,3.0238,3.0322,3.0576,3.0395,3.002,2.9477,2.897,2.8079,2.6688,2.8529,2.9936,3.0202,3.0467,3.0612,3.06,3.06,3.0881,3.1389,3.0917,3.0893,3.1413,3.1159,3.0905,3.0651,3.0397,2.9986,2.9381,2.8656,2.8426,2.8644,2.8354,2.8088,2.7894,2.8426,2.8487,2.8329,2.9121,2.9076,2.874,2.9768,2.964,2.9037,2.9767,2.9664,2.9227,2.9227,2.9227,2.9137,2.8655,2.7957,2.7286,2.7286,2.6594,2.5788,2.5788,2.5584,2.5391,2.5391,2.5198,2.5005,2.5005,2.4788,2.4583,2.4571,2.4559,2.4475,2.4263,2.4319,2.4288,2.4029,2.4133,2.4201,2.4188,2.4201,2.4201,2.4188,2.3934,2.3668,2.3401,2.3171,2.2904,2.2637,2.2217,2.1914,2.1641,2.1568,2.1413,2.1135,2.1389,2.1655,2.1934,2.1934,2.153,2.0817,2.1273,2.1032,2.189,2.3461,2.4957,2.6085,2.7353,2.8583,2.9639,3.002,3.0185,3.0368,2.8407,2.6766,2.7093,2.5718,2.4902,2.5862,2.6739,2.7279,2.7355,2.7187,2.6836,2.6172,2.5549,2.5093,2.4734,2.6554,2.7428,2.6634,2.7204,2.7476,2.721,2.7361,2.8046,2.9367,2.894,2.9577,3.1384,3.095,3.0781,3.0853,3.0057,2.9767,2.985,2.7666,2.6907,2.7273,2.5523,2.4803,2.4844,2.513,2.5216,2.5258,2.5593,2.5786,2.5869,2.635,2.6079,2.5902,2.8922,2.9449,2.879,2.9092,2.8732,2.8191,2.801,2.7542,2.712,2.712,2.673,2.6319,2.6319,2.5993,2.5656,2.5656,2.5451,2.527,2.527,2.5186,2.5065,2.4897,2.4861,2.4776,2.4499,2.4501,2.4438,2.417,2.4026,2.3985,2.4163,2.4023,2.3985,2.4175,2.4112,2.3934,2.3579,2.3454,2.3241,2.2928,2.2248,2.2087,2.2567,2.1282,2.0789,2.1296,2.0498,2.0318,2.0682,2.0396,2.0451,2.0852,2.0687,2.0322,2.2845,2.456,2.5962,2.6957,2.8116,2.8993,2.8968,2.9032,2.8905,2.8436,2.6012,2.3999,2.4196,2.2406,2.1343,2.2776,2.3451,2.4113,2.489,2.4689,2.4326,2.4073,2.3622,2.3184,2.2762,2.3936,2.4686,2.4728,2.543,2.5764,2.5589,2.5759,2.6448,2.763,2.7341,2.7961,2.969,2.9251,2.8996,2.8843,2.8052,2.787,2.8104,2.6092,2.548,2.5828,2.4063,2.3337,2.3395,2.3546,2.3607,2.3627,2.384,2.4034,2.4221,2.4366,2.4087,2.4078,2.711,2.7634,2.7048,2.7682,2.7591,2.7229,2.7423,2.7254,2.6969,2.6873,2.6728,2.6572,2.6475,2.6186,2.5921,2.5921,2.5728,2.556,2.5656,2.5523,2.5367,2.5294,2.521,2.5005,2.4489,2.4037,2.3712,2.3508,2.3279,2.3369,2.4122,2.3864,2.368,2.3851,2.3599,2.3198,2.2784,2.2733,2.2537,2.2102,2.1538,2.1427,2.1912,2.0769,2.0391,2.0928,2.0174,1.9908,2.0122,1.9811,1.9815,2.0082,1.9832,1.9468,2.3559,2.5023,2.6217,2.7687,2.8479,2.8547,2.7113,2.6452,2.5763,2.4461,2.1958,2.0172,2.0679,1.8716,1.7931,2.0632,2.0626,2.1033,2.3297,2.2943,2.2627,2.3184,2.3007,2.2307,2.0903,2.0948,2.1995,2.4287,2.487,2.5211,2.5463,2.5568,2.5842,2.6159,2.6075,2.6219,2.6559,2.639,2.5864,2.5023,2.4719,2.4608,2.4598,2.4055,2.4026,2.4447,2.3774,2.3387,2.3261,2.3425,2.3377,2.328,2.3548,2.3667,2.3696,2.3706,2.3517,2.344,2.4272,2.4323,2.4212,2.5115,2.5764,2.6265,2.6709,2.6845,2.6797,2.6546,2.6474,2.6414,2.615,2.6078,2.6066,2.6066,2.5862,2.5742,2.5994,2.5658,2.5383,2.5622,2.5478,2.5054,2.4184,2.3081,2.2321,2.2225,2.2064,2.2452,2.3879,2.3574,2.3227,2.3215,2.2435,2.1751,2.1248,2.1205,2.0945,2.0285,2.0204,2.0107,1.9881,2.0036,2.0077,2.0109,2.0302,2.0291,2.0127,2.0105,1.9556,1.8597,1.877,1.8435,2.4422,2.5745,2.67,2.7483,2.7767,2.7717,2.705,2.5787,2.4358,2.2974,1.9821,1.7084,1.6186,1.5368,1.5245,1.6484,1.8374,2.0098,2.1243,2.1421,2.1466,2.1449,2.1171,2.0806,2.0395,2.0342,2.0646,2.1389,2.1553,2.1812,2.2242,2.2311,2.3017,2.4552,2.4112,2.4683,2.6337,2.6016,2.5783,2.567,2.4942,2.4679,2.483,2.3192,2.2522,2.2557,2.1168,2.0397,2.0147,2.0343,2.0317,2.0156,2.0403,2.0543,2.0645,2.0787,2.0867,2.0931,2.1169,2.2332,2.3792,2.4302,2.4533,2.4681,2.4818,2.4829,2.4807,2.4751,2.4729,2.4718,2.4652,2.4496,2.4318,2.4318,2.4141,2.3975,2.4041,2.3909,2.3842,2.3909,2.3864,2.3743,2.3523,2.314,2.274,2.2525,2.2493,2.2469,2.2505,2.2545,2.2464,2.2268,2.221,2.2009,2.1536,2.1493,2.1373,2.1046,2.0426,2.0314,2.0899,1.9592,1.9224,2.0025,1.9125,1.8768,1.9072,1.8749,1.8524,1.8463,1.8287,1.8122,2.5428,2.6597,2.7237,2.696,2.6568,2.5718,2.3818,2.2307,2.0726,1.8593,1.6013,1.3854,1.2791,1.2657,1.3028,1.4059,1.6184,1.8264,1.9743,2.0031,2.0313,2.0776,2.0583,2.0424,2.0379,2.0329,2.0393,2.0653,2.0531,2.0604,2.0986,2.1083,2.1599,2.267,2.2498,2.292,2.4014,2.3669,2.3475,2.3441,2.2895,2.2646,2.2655,2.1528,2.0935,2.0849,1.9834,1.924,1.8988,1.9143,1.9077,1.9004,1.9232,1.9331,1.941,1.955,1.975,1.9971,1.9807,2.097,2.2515,2.2984,2.325,2.3536,2.3948,2.4086,2.4086,2.4086,2.4086,2.4086,2.4086,2.3989,2.3892,2.3892,2.3664,2.3524,2.3632,2.3492,2.3297,2.3297,2.2996,2.2715,2.2809,2.232,2.19,2.1825,2.1788,2.1635,2.1328,2.1634,2.1787,2.1651,2.1382,2.1107,2.0751,2.071,2.0619,2.0334,1.9822,1.9781,2.0262,1.9167,1.888,1.9683,1.8775,1.8484,1.8847,1.8484,1.838,1.8534,1.838,1.8027,2.6175,2.6987,2.7029,2.5973,2.4875,2.319,1.9594,1.7936,1.6351,1.3436,1.1948,1.0934,1.0275,1.0623,1.1508,1.302,1.4646,1.658,1.8998,1.9249,1.9608,2.0864,2.0807,2.0702,2.0702,2.0702,2.0832,2.114,2.0872,2.0767,2.0967,2.1075,2.114,2.1092,2.1238,2.123,2.1059,2.0726,2.0491,2.0353,2.0158,1.9971,1.9792,1.9792,1.9678,1.9475,1.9345,1.924,1.9021,1.9021,1.9021,1.9037,1.9216,1.9273,1.9265,1.9298,1.9642,2.0002,1.9606,2.0102,2.0985,2.1514,2.2017,2.257,2.3444,2.3719,2.3719,2.3719,2.3719,2.3719,2.3719,2.3719,2.3719,2.3719,2.3525,2.343,2.3677,2.3366,2.3036,2.3036,2.2374,2.1851,2.203,2.1213,2.0594,2.0763,2.0622,2.0499,2.0499,2.093,2.1175,2.1175,2.0477,1.9911,1.9703,1.9656,1.9477,1.908,1.9032,1.9055,1.9055,1.8866,1.89,1.9288,1.8919,1.8856,1.9055,1.8733,1.8547,1.8547,1.8397,1.7797,2.5683,2.5159,2.4037,2.3557,2.2548,2.1048,1.874,1.6718,1.4578,1.2138,1.088,0.9953,0.9009,1.0121,1.182,1.3831,1.5643,1.7742,2.0361,2.0628,2.0794,2.1504,2.136,2.1246,2.1246,2.1246,2.1278,2.1343,2.1278,2.1254,2.1295,2.1319,2.1205,2.0967,2.0983,2.0864,2.0694,2.0474,2.0426,2.0547,2.0223,1.9971,1.9792,1.9792,1.9613,1.9363,1.9419,0.0,1.9257,1.9257,1.9257,1.9249,1.9077,1.9029,1.911,1.935,1.9876,2.0416,1.9708,1.9919,2.047,2.0629,2.102,2.1483,2.1677,2.1714,2.1714,2.1714,2.1714,2.1714,2.1714,2.1714,2.1714,2.1714,2.1694,2.1675,2.1714,2.1609,2.1561,2.1561,2.1423,2.135,2.1379,2.1023,2.0754,2.0792,2.0622,2.0499,2.0499,2.0568,2.0654,2.0654,2.0476,2.0301,2.0129,1.9959,1.976,1.9505,1.9335,1.924,1.924,1.9032,1.9042,1.9297,1.9051,1.9032,1.924,1.8315,1.7841,1.7749,1.6881,1.6344,2.4531,2.4329,2.3748,2.2707,2.1328,1.9558,1.6801,1.479,1.2761,1.0248,0.9419,0.8931,0.8349,0.9759,1.1399,1.2663,1.467,1.6902,1.9383,1.9917,2.0486,2.1585,2.1634,2.1545,2.1384,2.1384,2.1384,2.1384,2.1384,2.1384,2.1384,2.1295,2.1173,2.1002,2.0815,2.0779,2.0779,2.0458,2.0409,2.0596,2.0328,2.0052,1.9792,1.989,1.9735,1.9402,1.9581,1.9508,1.9264,1.9056,1.8885,1.8676,1.8439,1.834,1.8325,1.8491,1.8955,1.9428,1.8858,1.9,1.9477,1.9394,1.9847,2.0417,2.0417,2.0797,2.1214,2.1214,2.1214,2.1214,2.1214,2.1214,2.1075,2.0556,2.0,1.9628,1.9628,2.0046,2.0417,2.0417,2.0844,2.1214,2.1214,2.1083,2.1017,2.1017,2.0932,2.0866,2.0866,2.0866,2.079,2.0518,2.0499,2.0452,2.0349,2.0151,1.999,1.993,1.9732,1.9404,1.8888,1.8688,1.8457,1.8147,1.7859,1.785,1.8147,1.7468,1.7214,1.7314,1.6748,1.6145,2.329,2.3649,2.3661,2.2087,2.0511,1.8396,1.5008,1.3136,1.14,0.8835,0.8267,0.8194,0.8081,0.9314,1.0633,1.1439,1.3225,1.5422,1.8042,1.8817,1.9749,2.1408,2.1691,2.1651,2.1504,2.1449,2.1425,2.1384,2.1384,2.1384,2.1384,2.1222,2.1108,2.1067,2.0759,2.0645,2.0796,2.0458,2.0409,2.0596,2.0409,2.0174,1.9906,1.9979,1.9849,1.9573,1.9646,1.949,1.9123,1.882,1.8454,1.8074,1.778,1.7642,1.7714,1.7738,1.8099,1.841,1.7961,1.8063,1.8296,1.793,1.8496,1.9395,1.9392,1.9942,2.0556,2.0556,2.0556,2.0556,2.0556,2.0556,2.0371,1.9581,1.8782,1.8223,1.8223,1.8828,1.9387,1.9387,2.0,2.0649,2.0844,2.089,2.0937,2.1168,2.1214,2.1214,2.1214,2.1214,2.1045,2.0669,2.0631,2.0631,2.0631,2.0396,2.0264,2.0346,2.0119,1.954,1.862,1.8427,1.7957,1.7112,1.6793,1.6785,1.7112,1.6607,1.6529,1.6797,1.6408,1.582,2.2552,2.2522,2.19,2.0971,1.9526,1.753,1.4384,1.2574,1.095,0.8739,0.816,0.8074,0.8253,0.862,0.9523,1.1457,1.2261,1.3926,1.7521,1.8311,1.9203,2.1167,2.161,2.1716,2.1691,2.1691,2.1579,2.1408,2.1384,2.1384,2.1384,2.1222,2.1051,2.0934,2.0694,2.0523,2.0369,2.0336,2.0409,2.0596,2.0409,2.0304,2.0263,1.9955,1.9792,1.9743,1.9493,1.9129,0.0,1.8585,1.8217,1.7734,1.7493,1.7531,1.7734,1.7912,1.8192,1.8377,1.7701,1.7389,1.7165,1.6194,1.6989,1.8349,1.8465,1.8494,1.8502,1.8502,1.8502,1.8502,1.8502,1.8502,1.8456,1.8363,1.8269,1.8223,1.8223,1.8269,1.8363,1.8363,1.8409,1.8782,1.9674,1.986,2.0139,2.1075,2.1214,2.1214,2.1214,2.1214,2.1205,2.1121,2.1158,2.1158,2.1158,2.0743,2.0547,2.0726,2.0367,1.9743,1.8814,1.8752,1.8223,1.7112,1.708,1.708,1.7112,1.6084,1.57,1.5785,1.4642,1.4141,2.1784,2.2212,2.1997,2.0759,1.8826,1.6574,1.4052,1.1984,1.0128,0.8453,0.8054,0.8033,0.8094,0.8303,0.8838,1.0044,1.0507,1.1701,1.4539,1.5367,1.672,1.9519,2.0047,2.0618,2.1595,2.161,2.1465,2.1384,2.1295,2.123,2.123,2.1059,2.088,2.0702,2.0523,2.0393,2.032,2.032,2.0353,2.0426,2.0353,2.0263,2.0166,2.002,1.9955,1.9946,1.9445,1.9104,0.0,1.8144,1.7593,1.7162,1.6757,1.6673,1.6758,1.6834,1.6962,1.6998,1.6644,1.6447,1.6349,1.591,1.616,1.6733,1.7322,1.7947,1.8421,1.8324,1.8338,1.8314,1.82,1.7756,1.7289,1.7289,1.6821,1.64,1.64,1.6943,1.7412,1.7304,1.7843,1.84,1.8752,1.8782,1.8922,1.934,1.9387,1.9387,1.9387,1.9387,1.9387,1.9387,2.0464,2.1214,2.1214,2.0894,2.048,2.0007,1.9662,1.8792,1.7256,1.7108,1.6575,1.5535,1.5447,1.5396,1.5396,1.4886,1.4718,1.4822,1.4249,1.4014,2.0402,2.1453,2.1774,2.0539,1.8344,1.5897,1.3783,1.1563,0.9546,0.8265,0.7988,0.7988,0.7988,0.8126,0.841,0.8961,0.9328,1.0275,1.246,1.3354,1.4844,1.7702,1.8327,1.9174,2.0771,2.1224,2.1384,2.1384,2.1222,2.11,2.1051,2.0872,2.0779,2.0604,2.0418,2.032,2.032,2.032,2.0344,2.0401,2.0344,2.0288,2.0214,2.006,1.996,1.9846,1.9269,1.8803,0.0,1.7574,1.702,1.6623,1.6225,1.6105,1.6064,1.6064,1.6064,1.6051,1.5942,1.5901,1.5901,1.5901,1.5784,1.578,1.644,1.7083,1.7643,1.7535,1.7535,1.7519,1.7343,1.6849,1.6328,1.6281,1.5767,1.5303,1.5262,1.5906,1.6423,1.6354,1.6939,1.76,1.7757,1.7835,1.7929,1.821,1.8208,1.8223,1.8223,1.8223,1.8223,1.8223,1.9488,2.0325,2.0325,2.0034,1.9615,1.9078,1.8772,1.7891,1.6302,1.6144,1.5611,1.4584,1.4482,1.4407,1.436,1.4299,1.4299,1.436,1.4299,1.4224,1.8299,1.9795,2.0787,2.0234,1.8071,1.5575,1.3546,1.1327,0.9382,0.8245,0.7988,0.7988,0.7988,0.7988,0.8162,0.8642,0.9089,1.0118,1.2107,1.309,1.4271,1.6031,1.6681,1.7618,1.9096,2.0546,2.1384,2.1384,2.1222,2.1051,2.0918,2.0694,2.0596,2.0596,2.0418,2.032,2.032,2.032,2.0409,2.0596,2.0409,2.0418,2.0572,2.0036,1.9634,1.9308,1.8733,1.7961,0.0,1.6935,1.6573,1.6133,1.6083,1.6037,1.5901,1.5901,1.5901,1.5901,1.5901,1.5901,1.5901,1.5901,1.5901,1.5901,1.5894,1.569,1.5411,1.5411,1.552,1.5567,1.5309,1.5404,1.5554,1.5302,1.5411,1.5546,1.5438,1.5411,1.5411,1.5411,1.5411,1.5745,1.6737,1.6927,1.7259,1.8255,1.829,1.8223,1.8223,1.8223,1.8223,1.8223,1.8223,1.8223,1.8223,1.7851,1.7794,1.8198,1.7835,1.7266,1.6512,1.6474,1.594,1.474,1.4687,1.4613,1.4509,1.4613,1.4613,1.4516,1.462,1.4532,1.5643,1.6588,1.6973,1.6254,1.4592,1.286,1.1665,1.0018,0.8609,0.8106,0.7932,0.7891,0.7993,0.7988,0.8297,0.9184,0.9442,0.9978,1.1206,1.2749,1.4433,1.6271,1.8744,2.0463,2.0658,2.1135,2.1384,2.1384,2.1108,2.0913,2.091,2.0572,2.0409,2.0409,2.0353,2.032,2.032,2.032,2.0353,2.0409,2.0344,2.0353,2.0349,1.974,1.9387,1.9264,1.8221,1.7516,1.7056,1.6654,1.6321,1.6083,1.6083,1.6037,1.5915,1.6017,1.599,1.5901,1.5901,1.5969,1.5974,1.5771,1.5771,1.5888,1.5737,1.5784,1.5845,1.5792,1.5527,1.533,1.5337,1.5337,1.533,1.5337,1.5411,1.5499,1.5506,1.5642,1.5683,1.5539,1.5649,1.5794,1.5875,1.5924,1.6067,1.618,1.6241,1.6241,1.618,1.6166,1.6166,1.6166,1.6166,1.6728,1.8083,1.807,1.7776,1.7234,1.7049,1.6541,1.5519,1.5472,1.5218,1.4701,1.4694,1.4667,1.462,1.4674,1.4613,1.4516,1.462,1.4584,1.3192,1.4281,1.4721,1.4199,1.2793,1.1388,1.0727,0.9335,0.8153,0.8033,0.7939,0.7905,0.8,0.7988,0.825,0.8988,0.9245,0.9716,1.084,1.2522,1.4418,1.6507,1.9174,2.0843,2.0682,2.108,2.1408,2.149,2.1146,2.091,2.091,2.0515,2.032,2.032,2.032,2.032,2.032,2.032,2.032,2.032,2.032,2.0175,1.9903,1.9411,1.8942,1.8413,1.7589,1.7012,0.0,1.6376,1.6171,1.6076,1.6015,1.599,1.5915,1.601,1.5983,1.5908,1.5969,1.601,1.6024,1.5845,1.5825,1.5894,1.5818,1.5893,1.601,1.5818,1.5649,1.552,1.5499,1.5513,1.552,1.5499,1.5581,1.5676,1.571,1.5791,1.5874,1.5737,1.5791,1.5847,1.5608,1.5655,1.5635,1.5391,1.5384,1.5357,1.5201,1.5235,1.5269,1.5269,1.5269,1.5788,1.7053,1.7032,1.68,1.64,1.6155,1.5832,1.5378,1.5191,1.5004,1.4909,1.4909,1.4882,1.4828,1.4828,1.478,1.4685,1.4719,1.4593,0.0,1.2495,1.348,1.3457,1.2123,1.0785,1.0456,0.9124,0.0,0.7966,0.7973,0.7968,0.7988,0.7988,0.8088,0.8369,0.873,0.9512,1.107,1.2685,1.4608,1.7009,1.8504,1.9415,1.9481,2.0666,2.1449,2.162,2.1203,2.0901,2.0893,2.0507,2.032,2.032,2.0268,2.0216,2.0216,2.0216,2.0216,2.0164,2.0148,1.9851,1.922,1.8982,1.8204,1.7099,1.6935,1.6573,1.6083,1.6069,1.6069,1.6049,1.5956,1.5894,1.5888,1.5901,1.5894,1.5908,1.5988,1.5947,1.5908,1.5995,1.5996,1.5908,1.6044,1.599,1.586,1.5703,1.5852,1.5988,1.5723,1.5852,1.5981,1.5654,1.5859,1.6029,1.5935,1.5908,1.5915,1.5915,1.5915,1.5915,1.5901,1.5908,1.5818,1.5614,1.5527,1.5384,1.5235,1.5337,1.5425,1.5425,1.5418,1.5411,1.5411,1.5153,1.5231,1.5784,1.5338,1.5278,1.5823,1.5415,1.5174,1.5167,1.5174,1.512,1.503,1.5023,1.501,1.495,1.4821,1.4694,0.8561,0.0,0.9342,0.9136,0.8746,0.8411,0.0,0.7911,0.7553,0.7553,0.7624,0.7749,0.7973,0.7988,0.8324,0.93,0.9514,1.0174,1.1808,1.4886,1.7718,1.9727,2.0722,2.1066,2.0612,2.1046,2.1343,2.1254,2.1002,2.0853,2.0661,2.0442,2.032,2.032,1.9903,1.9694,1.9694,1.9694,1.9485,1.9007,1.8886,1.875,1.8602,1.785,1.7394,1.7048,1.6543,1.6232,1.6076,1.6003,1.5956,1.5956,1.5915,1.5833,1.5703,1.586,1.5784,1.5676,1.5594,1.5622,1.5676,1.5594,1.5622,1.5676,1.5594,1.5628,1.573,1.592,1.5866,1.575,1.5791,1.5771,1.5675,1.5607,1.5778,1.5949,1.5908,1.5996,1.6029,1.6029,1.6029,1.6037,1.5922,1.5996,1.594,1.5627,1.5703,1.5696,1.5547,1.5512,1.5539,1.5539,1.5479,1.5411,1.5411,1.5242,1.5194,1.5368,1.5247,1.5193,1.521,1.522,1.5133,1.5071,1.5126,1.5167,1.5133,1.5071,1.4909,1.4748,1.4875,1.4733,0.7375,0.7878,0.828,0.7952,0.7889,0.7903,0.7811,0.7577,0.743,0.7566,0.7638,0.7767,0.7973,0.8074,0.8425,0.9251,0.97,1.0778,1.3199,1.5769,1.8144,2.0343,2.0807,2.1053,2.1343,2.1295,2.1145,2.0911,2.0607,2.0208,1.9856,1.9631,1.9529,1.9529,1.9199,1.9155,1.9493,1.9155,1.8849,1.8529,1.8365,1.8151,1.7763,1.7336,1.692,1.6599,1.6266,1.6083,1.6076,1.6044,1.601,1.6003,1.5928,1.5852,1.5845,1.5901,1.5854,1.5723,1.5642,1.5669,1.5723,1.5642,1.5628,1.5587,1.5622,1.5574,1.5581,1.5811,1.5811,1.5757,1.5881,1.5798,1.5757,1.5825,1.59,1.601,1.601,1.6071,1.6083,1.6083,1.6029,1.6024,1.601,1.6017,1.5969,1.5764,1.5854,1.5854,1.5607,1.5696,1.5737,1.5737,1.5601,1.5465,1.5465,1.5377,1.535,1.5516,1.5321,1.524,1.5398,1.528,1.5147,1.5072,1.5147,1.5181,1.5181,1.5153,1.4991,1.4848,1.493,1.4801,0.7059,0.8052,0.8874,0.8232,0.8141,0.8174,0.7974,0.7678,0.7491,0.7699,0.7801,0.7822,0.7772,0.7955,0.8242,0.8726,0.9924,1.1861,1.4908,1.6316,1.7854,2.007,2.0212,2.0633,2.1716,2.1305,2.0893,2.0615,2.0037,1.9409,1.8857,1.8663,1.8574,1.8552,1.8373,1.8566,1.9155,1.8543,1.8218,1.8108,1.7997,1.7589,1.6955,1.6984,1.6649,1.6083,1.6083,0.0,1.6049,1.6049,1.6035,1.6001,1.5942,1.5983,1.6029,1.5922,1.5867,1.586,1.5813,1.5826,1.5867,1.584,1.5716,1.5607,1.5806,1.5628,1.5466,1.5526,1.571,1.5874,1.5894,1.5901,1.5942,1.6092,1.6083,1.6083,1.6083,1.6062,1.6105,1.6076,1.599,1.5915,1.6022,1.599,1.5901,1.5901,1.5922,1.5894,1.5723,1.5811,1.5935,1.5935,1.5757,1.5669,1.5669,1.5533,1.5534,1.5828,1.5464,1.5396,1.5798,1.5415,1.5181,1.5181,1.5181,1.5181,1.5181,1.516,1.5086,1.5017,1.5017,1.4875,0.7973,0.9054,0.9659,0.7949,0.7695,0.7835,0.7692,0.7611,0.7543,0.7478,0.774,0.771,0.6874,0.6946,0.7407,0.8265,1.1538,1.4676,1.6588,1.8525,1.9967,2.073,2.1183,2.1412,2.1481,2.0824,2.0463,2.062,1.9622,1.8933,1.8633,1.8604,1.8529,1.8447,1.7952,1.7732,1.7727,1.7603,1.7281,1.6807,1.6662,1.6536,1.6407,1.6328,1.6203,1.6083,0.0,1.6058,1.5935,1.5935,1.5818,1.5668,1.5867,1.5915,1.5922,1.5723,1.5669,1.5635,1.5377,1.5452,1.5649,1.552,1.5554,1.5573,1.5513,1.554,1.5533,1.5479,1.5506,1.5703,1.5867,1.5901,1.5942,1.6092,1.6083,1.6083,1.6083,1.603,1.5976,1.6056,1.5859,1.5716,1.5915,1.5915,1.5901,1.5901,1.601,1.6042,1.6015,1.6035,1.6049,1.6049,1.5962,1.5867,1.5867,1.5689,1.5594,1.5615,1.5445,1.5364,1.5328,1.5228,1.5181,1.5181,1.5181,1.5181,1.5181,1.5112,1.5037,1.5017,1.5017,1.4821,0.7585,0.8287,0.8878,0.851,0.9103,0.9556,0.8841,0.8798,0.8816,0.854,0.8073,0.7564,0.6972,0.7403,0.8661,1.1233,1.3584,1.5601,1.7087,1.819,1.921,2.025,2.0652,2.091,2.0956,2.0637,2.0119,1.9326,1.8625,1.8058,1.7758,1.7543,1.7458,1.7472,1.7104,1.6884,1.6821,1.6731,1.6579,1.6402,1.6259,1.6185,1.6185,1.611,1.6083,1.6083,0.0,1.6092,1.6017,1.5935,1.586,1.575,1.5744,1.5737,1.5716,1.5574,1.5465,1.5445,1.5357,1.5452,1.5642,1.5939,1.6091,1.6168,1.6351,1.6143,1.5958,1.6088,1.5945,1.5771,1.5888,1.5901,1.5942,1.6092,1.6083,1.6083,1.6083,1.6029,1.6044,1.6069,1.5906,1.5805,1.6003,1.5956,1.5928,1.601,1.6035,1.6083,1.6083,1.6083,1.6083,1.6083,1.5996,1.5901,1.5901,1.584,1.5683,1.5479,1.5452,1.5343,1.5187,1.5181,1.5181,1.5181,1.5181,1.5181,1.5181,1.512,1.5132,1.5132,1.5132,1.497,0.7256,0.7699,0.8327,0.9029,0.9958,1.0591,1.0198,1.0094,1.0019,0.9896,0.9111,0.8158,0.7195,0.798,0.9795,1.2973,1.4995,1.6582,1.7753,1.8191,1.8831,2.003,2.0276,2.0438,2.0598,2.0342,1.965,1.8263,1.7711,1.7248,1.6922,1.6653,1.6506,1.6594,1.6429,1.6293,1.6259,1.6137,1.6144,1.6252,1.6137,1.6062,1.6029,1.6029,1.6008,1.5974,1.5974,1.5961,1.592,1.5839,1.5833,1.5792,1.5669,1.5566,1.5519,1.5452,1.5391,1.5357,1.5357,1.5459,1.5649,1.63,1.6529,1.6557,1.6869,1.6697,1.6375,1.6535,1.6369,1.6147,1.6049,1.5972,1.5949,1.609,1.6137,1.6137,1.6137,1.6076,1.6042,1.6076,1.5927,1.5901,1.6051,1.5983,1.5942,1.6058,1.6056,1.6083,1.6083,1.6083,1.6083,1.6083,1.6024,1.5956,1.5956,1.5956,1.584,1.5533,1.5513,1.5432,1.5242,1.5235,1.5221,1.5181,1.5181,1.5181,1.5181,1.5215,1.5235,1.5235,1.5269,1.5194,0.7685,0.8447,0.9154,0.8967,0.8725,0.9081,1.1154,1.0927,1.047,1.1131,1.1273,1.0325,0.7053,0.8002,0.9512,1.031,1.4906,1.8624,1.9334,2.0138,2.0754,2.1005,2.0913,2.0804,2.0592,1.9652,1.8813,1.8396,1.7376,1.6693,1.6564,1.653,1.6469,1.6347,1.632,1.6239,1.6096,1.609,1.609,1.6096,1.609,1.6008,1.5915,1.5915,1.5798,1.5621,1.5621,1.5588,1.5466,1.5553,1.5574,1.5452,1.5539,1.5506,1.5425,1.5411,1.5323,1.5201,1.5201,1.5296,1.552,1.6052,1.6242,1.6242,1.6283,1.6554,1.6784,1.6342,1.6615,1.6906,1.6471,1.614,1.5976,1.6225,1.6293,1.6293,1.6293,1.6069,1.5962,1.6105,1.5852,1.5696,1.5894,1.5908,1.5908,1.5915,1.6037,1.6083,1.6083,1.6083,1.6083,1.6083,1.6069,1.6069,1.6069,1.6069,1.5995,1.5881,1.5867,1.5738,1.5404,1.5398,1.533,1.5187,1.5181,1.5181,1.5181,1.5323,1.5398,1.5398,1.5492,1.5452,0.7337,0.8311,0.9338,0.9441,0.9546,1.0069,1.1777,1.2204,1.2463,1.3275,1.2857,1.1535,0.8835,1.0241,1.2075,1.2731,1.6341,1.9308,2.0111,2.0596,2.0773,2.0469,2.0578,2.0242,1.9016,1.8693,1.8225,1.7286,1.6728,1.649,1.6517,1.6347,1.6266,1.6307,1.6218,1.6137,1.6083,1.6037,1.599,1.599,1.599,1.5866,1.5716,1.5716,1.5689,1.5593,1.5593,1.556,1.5506,1.5566,1.5499,1.5404,1.5371,1.5316,1.5269,1.5269,1.5228,1.5181,1.5181,1.5282,1.5507,1.6024,1.6278,1.639,1.6623,1.6832,1.6959,1.6949,1.6992,1.698,1.6598,1.6447,1.63,1.6216,1.6171,1.6171,1.6171,1.6076,1.6064,1.6069,1.5995,1.5934,1.5988,1.5995,1.5995,1.5995,1.6092,1.6083,1.6083,1.6083,1.6083,1.6083,1.6083,1.6083,1.6083,1.6083,1.6056,1.6051,1.5956,1.5813,1.5512,1.5506,1.5479,1.5466,1.5466,1.5418,1.5323,1.5479,1.5506,1.5411,1.5519,1.5533,0.7105,0.7907,0.8896,0.9446,0.9997,1.0904,1.2738,1.3306,1.3786,1.5055,1.3939,1.2285,1.0929,1.2301,1.3909,1.4725,1.7466,1.9819,2.0495,2.0539,2.0338,1.9967,1.9922,1.9375,1.7955,1.7952,1.7639,1.6514,1.6368,1.6334,1.6381,1.6191,1.613,1.6232,1.609,1.6058,1.6058,1.5859,1.5764,1.5765,1.5765,1.5662,1.5519,1.5519,1.5492,1.5445,1.5445,1.5445,1.5445,1.5445,1.5432,1.5337,1.5276,1.5221,1.5187,1.5235,1.5221,1.5181,1.5181,1.5248,1.5431,1.5953,1.6166,1.6285,1.6558,1.6758,1.6924,1.6906,1.7083,1.7137,1.6841,1.6741,1.6644,1.6403,1.6266,1.6144,1.609,1.6083,1.6083,1.6083,1.6083,1.6083,1.6083,1.6083,1.6083,1.6083,1.6083,1.6083,1.6083,1.6083,1.6083,1.6083,1.6083,1.6083,1.6083,1.6083,1.6083,1.6083,1.603,1.5859,1.571,1.571,1.5634,1.5593,1.5593,1.5539,1.5486,1.5635,1.5655,1.5554,1.571,1.575,0.7161,0.735,0.7873,0.8866,0.983,1.1278,1.4157,1.4152,1.4122,1.6284,1.4521,1.273,1.3225,1.3813,1.4516,1.5451,1.8145,2.019,2.0539,1.997,1.9547,1.9764,1.8969,1.8196,1.762,1.7485,1.708,1.6371,1.6307,1.6239,1.609,1.6083,1.6076,1.6076,1.5983,1.5901,1.5901,1.571,1.5512,1.5411,1.5411,1.5411,1.5411,1.5411,1.5323,1.5181,1.5181,1.5181,1.5181,1.5181,1.5187,1.5201,1.535,1.5316,1.5201,1.5357,1.5316,1.5187,1.5187,1.5187,1.5281,1.5751,1.5892,1.5892,1.5892,1.6259,1.6587,1.6032,1.6753,1.763,1.728,1.7028,1.6913,1.6913,1.6592,1.6266,1.6117,1.6083,1.6083,1.6083,1.6083,1.6083,1.6083,1.6083,1.6083,1.6083,1.6083,1.6083,1.6083,1.6083,1.6083,1.6083,1.6083,1.6083,1.6083,1.6083,1.6083,1.6083,1.6083,1.6064,1.5908,1.5901,1.5791,1.56,1.5593,1.5593,1.5593,1.5784,1.5901,1.5908,1.6058,1.6051,0.7161,0.8269,0.9601,0.9996,1.1513,1.3395,1.5269,1.5332,1.5562,1.755,1.7076,1.5883,1.4599,1.5913,1.6869,1.5777,1.7996,1.9852,1.9716,1.9602,1.9155,1.8196,1.7923,1.7542,1.6761,1.6655,1.6515,1.6164,1.6151,1.6083,1.5976,1.5969,1.5872,1.5771,1.5723,1.5703,1.5703,1.5554,1.5459,1.5411,1.5303,1.5248,1.5248,1.5248,1.5221,1.5181,1.5181,1.5242,1.5343,1.5343,1.5404,1.5499,1.5438,1.5384,1.5364,1.5465,1.554,1.5506,1.5506,1.5432,1.5343,1.5486,1.5533,1.5513,1.545,1.5868,1.631,1.5967,1.6605,1.7313,1.7221,1.7028,1.6913,1.6913,1.6508,1.6137,1.609,1.6083,1.6083,1.6083,1.6083,1.6083,1.6083,1.6083,1.6083,1.6083,1.6083,1.6083,1.6083,1.6083,1.6083,1.6083,1.6083,1.6083,1.6083,1.6083,1.6083,1.6083,1.6083,1.6062,1.6015,1.6064,1.5995,1.5947,1.5947,1.59,1.5791,1.599,1.601,1.5908,1.6058,1.6051,0.7692,0.8805,1.0179,1.1336,1.2835,1.453,1.6371,1.6897,1.7269,1.846,1.8379,1.7833,1.6795,1.7655,1.8208,1.7311,1.837,1.9338,1.9206,1.8859,1.8336,1.7472,1.7223,1.6861,1.6327,1.6252,1.6185,1.609,1.6029,1.5996,1.5908,1.5798,1.573,1.5593,1.5533,1.5499,1.5499,1.5398,1.5316,1.5316,1.5228,1.5181,1.5181,1.5248,1.5309,1.5364,1.5364,1.5377,1.5411,1.5411,1.5432,1.5452,1.5425,1.5411,1.5432,1.5533,1.5593,1.5593,1.5593,1.5492,1.5411,1.5411,1.5411,1.5384,1.5228,1.5526,1.5853,1.5652,1.6211,1.6788,1.6788,1.6889,1.7009,1.6934,1.6474,1.6083,1.6083,1.6083,1.6083,1.6083,1.6083,1.6083,1.6083,1.6083,1.6083,1.6083,1.6083,1.6083,1.6083,1.6083,1.6083,1.6083,1.6083,1.6083,1.6083,1.6083,1.6083,1.6083,1.6083,1.6083,1.6083,1.6083,1.6083,1.6083,1.6083,1.6035,1.5996,1.6035,1.6085,1.5996,1.6042,1.6085,0.8496,0.9154,1.0145,1.278,1.4075,1.5257,1.7469,1.8525,1.9004,1.9004,1.8809,1.8744,1.924,1.8915,1.8793,1.9402,1.9065,1.8769,1.8866,1.8032,1.737,1.7305,1.6678,1.6286,1.6273,1.6144,1.6056,1.6042,1.5962,1.5874,1.586,1.5689,1.5566,1.5553,1.5459,1.5391,1.5391,1.5255,1.5181,1.5181,1.5181,1.5187,1.5208,1.5337,1.5472,1.5573,1.56,1.5574,1.5432,1.5432,1.5343,1.5215,1.5357,1.5418,1.5452,1.5601,1.5621,1.5627,1.5614,1.556,1.5432,1.5418,1.5411,1.5384,1.5228,1.5289,1.5377,1.5228,1.5667,1.6119,1.6119,1.6575,1.7013,1.6806,1.6446,1.6112,1.6112,1.6069,1.6083,1.6083,1.6083,1.6083,1.6083,1.6083,1.6083,1.6083,1.6083,1.6083,1.6083,1.6083,1.6083,1.6083,1.6083,1.6083,1.6083,1.6083,1.6083,1.6083,1.6083,1.6083,1.6083,1.6083,1.6083,1.6083,1.6083,1.6083,1.6083,1.6083,1.6083,1.6083,1.6083,1.6076,0.8664,0.9974,1.1705,1.3816,1.597,1.7797,1.8582,1.9037,1.9249,1.9249,1.9248,1.9321,1.9435,1.9306,1.9232,1.9467,1.9065,1.8579,1.82,1.7559,1.6962,1.6442,1.6251,1.6083,1.601,1.5969,1.5859,1.5744,1.5703,1.5635,1.5513,1.5479,1.5404,1.5282,1.5248,1.5228,1.5228,1.5201,1.5181,1.5181,1.5181,1.5248,1.5357,1.5269,1.5316,1.5472,1.5703,1.5723,1.5539,1.5539,1.5499,1.5364,1.5398,1.5438,1.556,1.575,1.5879,1.5967,1.5852,1.571,1.5519,1.5452,1.5411,1.5384,1.5228,1.5289,1.5377,1.5228,1.5384,1.5554,1.5554,1.576,1.5946,1.5911,1.621,1.6398,1.6005,1.6044,1.6083,1.6083,1.6083,1.6083,1.6083,1.6083,1.6083,1.6083,1.6083,1.6083,1.6083,1.6083,1.6083,1.6083,1.6083,1.6083,1.6083,1.6083,1.6083,1.6083,1.6083,1.6083,1.6083,1.6083,1.6083,1.6083,1.6083,1.6083,1.6083,1.6083,1.6083,1.6083,1.6083,1.6015,0.9296,1.0663,1.2416,1.5249,1.7275,1.8655,1.8923,1.9175,1.9354,1.9525,1.9654,1.9727,1.954,1.9589,1.9615,1.9297,1.8883,1.8436,1.797,1.7281,1.6729,1.6272,1.6328,1.6307,1.6147,1.6133,1.6105,1.598,1.5664,1.5445,1.5411,1.5276,1.516,1.5132,1.5011,1.5004,1.5079,1.5004,1.5004,1.5079,1.5004,1.5052,1.5208,1.5343,1.5479,1.5628,1.571,1.571,1.5587,1.5512,1.5398,1.5208,1.5276,1.535,1.5438,1.5588,1.5445,1.5116,1.5038,1.4631,1.4161,1.4572,1.4689,1.4759,1.5087,1.5289,1.5377,1.5228,1.5242,1.5303,1.5303,1.5506,1.5711,1.5466,1.5787,1.6063,1.5937,1.5962,1.6044,1.6069,1.6083,1.6083,1.6083,1.6083,1.6083,1.6083,1.6083,1.6083,1.6083,1.6083,1.6083,1.6083,1.6083,1.6083,1.6083,1.6083,1.6083,1.6083,1.6083,1.6083,1.6083,1.6083,1.6083,1.6083,1.6083,1.6083,1.6083,1.6083,1.6083,1.6083,1.6083,1.6042,0.9769,1.1218,1.3048,1.644,1.7973,1.868,1.8891,1.9029,1.9206,1.9529,1.979,1.9992,1.9957,2.0132,2.0082,1.9469,1.9077,1.8556,1.7982,1.7173,1.6619,1.6512,1.6591,1.6605,1.6517,1.651,1.6496,1.6467,1.5847,1.5425,1.5425,1.5126,1.493,1.493,1.4808,1.4801,1.493,1.4755,1.4755,1.493,1.4801,1.4835,1.5018,1.5337,1.5588,1.582,1.5676,1.556,1.5506,1.5425,1.5201,1.4943,1.5086,1.516,1.5201,1.5357,1.4847,1.411,1.4061,1.3451,1.28,1.3614,1.3984,1.4251,1.4986,1.5269,1.5343,1.5215,1.5181,1.5181,1.5181,1.5516,1.5704,1.5275,1.5377,1.5601,1.5792,1.5867,1.5942,1.6015,1.6062,1.6083,1.6083,1.6083,1.6083,1.6083,1.6083,1.6083,1.6083,1.6083,1.6083,1.6083,1.6083,1.6083,1.6083,1.6083,1.6083,1.6083,1.6083,1.6083,1.6083,1.6083,1.6083,1.6083,1.6083,1.6083,1.6083,1.6083,1.6083,1.6083,1.6083,1.6083,0.9045,1.1485,1.4525,1.6418,1.7591,1.8338,1.868,1.8559,1.8392,1.8637,1.9159,2.0016,2.1486,2.138,2.1031,2.102,2.0347,1.9426,1.8087,1.7308,1.6895,1.6973,1.6925,1.6843,1.6821,1.6821,1.681,1.6661,1.6032,1.5668,1.5668,1.5092,1.4721,1.4721,1.4708,1.4708,1.4721,1.4708,1.4708,1.4721,1.4708,1.4882,1.5147,1.495,1.5086,1.5479,1.5539,1.5486,1.5242,1.5221,1.5038,1.4741,1.4936,1.5119,1.5201,1.5357,1.4912,1.4226,1.3987,1.3873,1.3771,1.3726,1.4313,1.5067,1.514,1.5194,1.5208,1.5187,1.5181,1.5181,1.5181,1.5228,1.5275,1.5228,1.5215,1.5282,1.5438,1.5669,1.5908,1.5928,1.6037,1.6083,1.6083,1.6083,1.6083,1.6083,1.6083,1.6083,1.6083,1.6083,1.6083,1.6083,1.6083,1.6083,1.6083,1.6083,1.6083,1.6083,1.6083,1.6083,1.6083,1.6083,1.6083,1.6083,1.6083,1.6083,1.6083,1.6083,1.6083,1.6083,1.6083,1.6083,1.0735,1.2155,1.3896,1.5755,1.6837,1.7554,1.801,1.8248,1.8432,1.8703,1.8858,1.9419,2.1083,2.1147,2.1323,2.2471,2.1548,2.0495,1.9767,1.84,1.7444,1.7421,1.74,1.7276,1.7177,1.7125,1.7041,1.6964,1.6298,1.5797,1.5568,1.5108,1.4792,1.4611,1.4448,1.4441,1.4611,1.4611,1.4613,1.4694,1.4694,1.4855,1.5059,1.493,1.5065,1.5398,1.5167,1.5153,1.5167,1.5004,1.4808,1.4579,1.478,1.4936,1.5119,1.514,1.4733,1.4024,1.3829,1.3424,1.3072,1.3571,1.3999,1.4476,1.504,1.5181,1.5181,1.5181,1.5181,1.5181,1.5181,1.5248,1.5289,1.5201,1.5248,1.5303,1.5289,1.552,1.5784,1.5996,1.6035,1.6083,1.6083,1.6083,1.6083,1.6083,1.6083,1.6083,1.6083,1.6083,1.6083,1.6083,1.6083,1.6083,1.6083,1.6083,1.6083,1.6083,1.6083,1.6083,1.6083,1.6083,1.6083,1.6083,1.6083,1.6083,1.6083,1.6083,1.6083,1.6083,1.6083,1.6083,1.1587,1.2019,1.2529,1.4521,1.5619,1.6411,1.7187,1.7569,1.7907,1.836,1.8121,1.839,2.0128,2.0606,2.1214,2.27,2.1867,2.0867,2.0437,1.8994,1.7939,1.7765,1.775,1.7687,1.7459,1.7411,1.734,1.7293,1.6674,1.6129,1.5729,1.5282,1.4871,1.4627,1.4333,1.4238,1.4455,1.4462,1.4512,1.4694,1.4654,1.478,1.5017,1.493,1.5052,1.5282,1.4984,1.4957,1.5106,1.4802,1.4606,1.4523,1.4593,1.4753,1.4862,1.4896,1.4445,1.3804,1.3627,1.3146,1.2686,1.3398,1.3808,1.419,1.4979,1.5181,1.5181,1.5181,1.5181,1.5181,1.5181,1.5269,1.5323,1.5208,1.5269,1.5343,1.5309,1.5479,1.5681,1.6022,1.6083,1.6083,1.6083,1.6083,1.6083,1.6083,1.6083,1.6083,1.6083,1.6083,1.6083,1.6083,1.6083,1.6083,1.6083,1.6083,1.6083,1.6083,1.6083,1.6083,1.6083,1.6083,1.6083,1.6083,1.6083,1.6083,1.6083,1.6083,1.6083,1.6083,1.6083,1.6083,1.0004,1.0288,1.0671,1.2436,1.3808,1.501,1.6125,1.6107,1.6051,1.6842,1.6495,1.6744,1.9133,2.0202,2.0736,2.0925,2.0666,1.9933,1.8527,1.8247,1.8089,1.7919,1.7903,1.783,1.7598,1.7773,1.7797,1.7574,1.7112,1.6808,1.6644,1.5572,1.4999,1.4962,1.4513,1.4292,1.4312,1.4312,1.4455,1.4694,1.459,1.4679,1.501,1.4821,1.4841,1.5051,1.5113,1.5092,1.497,1.4808,1.4606,1.4509,1.4523,1.4529,1.4557,1.4654,1.4249,1.3557,1.3336,1.3369,1.3522,1.3529,1.4143,1.4958,1.514,1.5181,1.5181,1.5181,1.5181,1.5181,1.5181,1.5187,1.5194,1.5181,1.5187,1.5269,1.5506,1.558,1.5681,1.6022,1.6083,1.6083,1.6083,1.6083,1.6083,1.6083,1.6083,1.6083,1.6083,1.6083,1.6083,1.6083,1.6083,1.6083,1.6083,1.6083,1.6083,1.6083,1.6083,1.6083,1.6083,1.6083,1.6083,1.6083,1.6083,1.6083,1.6083,1.6083,1.6083,1.6083,1.6083,1.6083,1.1518,1.0854,1.0224,1.18,1.2874,1.3771,1.4573,1.5539,1.637,1.6777,1.6622,1.6845,1.7939,1.9077,2.0391,2.1921,2.1141,2.0223,1.9741,1.882,1.8111,1.794,1.7765,1.7668,1.7603,1.7599,1.7551,1.7486,1.7194,1.6875,1.6539,1.5761,1.5242,1.4992,1.4467,1.4245,1.4434,1.4434,1.4536,1.4694,1.464,1.4667,1.4821,1.4721,1.4721,1.4828,1.4875,1.4923,1.4957,1.4755,1.4606,1.4509,1.4509,1.457,1.4606,1.4611,1.4558,1.446,1.4258,1.4212,1.4309,1.4441,1.4692,1.5044,1.514,1.5181,1.5181,1.5181,1.5181,1.5181,1.5181,1.5255,1.533,1.533,1.533,1.5384,1.5546,1.5593,1.5681,1.6022,1.6083,1.6083,1.6083,1.6083,1.6083,1.6083,1.6083,1.6083,1.6083,1.6083,1.6083,1.6083,1.6083,1.6083,1.6083,1.6083,1.6083,1.6083,1.6083,1.6083,1.6083,1.6083,1.6083,1.6083,1.6083,1.6083,1.6083,1.6083,1.6083,1.6083,1.6083,1.6083,1.219,1.1306,1.0508,1.1817,1.2564,1.3208,1.4093,1.5105,1.5966,1.6203,1.6249,1.6388,1.678,1.7662,1.8942,2.082,2.0198,1.9463,1.9501,1.8635,1.7932,1.7762,1.7632,1.7465,1.7344,1.7323,1.7242,1.7128,1.7063,1.6824,1.6499,1.5828,1.5242,1.4694,1.4297,1.4207,1.436,1.4414,1.4516,1.462,1.462,1.462,1.462,1.4674,1.4667,1.462,1.4674,1.4828,1.4957,1.4755,1.4713,1.4652,1.455,1.4525,1.4599,1.4496,1.4597,1.4794,1.4645,1.4579,1.4633,1.478,1.4855,1.4923,1.5065,1.5147,1.5181,1.5181,1.5181,1.5181,1.5181,1.5296,1.5411,1.5411,1.5452,1.5527,1.5676,1.571,1.5784,1.6035,1.6083,1.6083,1.6083,1.6083,1.6083,1.6083,1.6083,1.6083,1.6083,1.6083,1.6083,1.6083,1.6083,1.6083,1.6083,1.6083,1.6083,1.6083,1.6083,1.6083,1.6083,1.6083,1.6083,1.6083,1.6083,1.6083,1.6083,1.6083,1.6083,1.6083,1.6083,1.6083,0.0,0.0,0.0,1.2372,1.2789,1.3345,1.4649,1.4719,1.4632,1.5074,1.5176,1.5278,1.5604,1.5937,1.6459,1.7383,1.7562,1.757,1.7562,1.757,1.7506,1.738,1.7364,1.7226,1.6833,1.6955,1.695,1.6609,1.6704,1.6728,1.6592,1.5835,1.4974,1.4112,1.4105,1.4105,1.4105,1.4211,1.4353,1.4489,1.4496,1.4502,1.4502,1.4613,1.4599,1.4516,1.462,1.4814,1.4989,1.4762,1.4789,1.4936,1.4586,1.4471,1.4489,1.4353,1.4387,1.4482,1.4346,1.4387,1.4509,1.4516,1.4572,1.4721,1.493,1.5119,1.5181,1.5181,1.5181,1.5181,1.5181,1.5296,1.5404,1.5411,1.5479,1.5676,1.5874,1.5908,1.5956,1.6056,1.6083,1.6083,1.6083,1.6083,1.6083,1.6083,1.6083,1.6083,1.6083,1.6083,1.6083,1.6083,1.6083,1.6083,1.6083,1.6083,1.6083,1.6083,1.6083,1.6083,1.6083,1.6083,1.6083,1.6083,1.6083,1.6083,1.6083,1.6083,1.6083,1.6083,1.6083,1.6083,1.2993,0.0,0.0,0.0,0.0,0.0,1.337,1.4171,1.4744,1.4508,1.4588,1.4702,1.4672,1.4756,1.5149,1.6089,1.6684,1.6979,1.6893,1.6947,1.6963,1.6828,1.6803,1.6763,1.6665,1.6698,1.669,1.6627,1.6625,1.6633,1.6584,1.5728,1.4808,1.3905,1.3862,1.3862,1.3862,1.3903,1.3944,1.3984,1.4143,1.419,1.4197,1.4353,1.4401,1.436,1.4401,1.4502,1.4606,1.4415,1.431,1.429,1.416,1.4228,1.4353,1.4312,1.4326,1.4353,1.4312,1.4326,1.4394,1.4566,1.466,1.4741,1.5045,1.5153,1.5181,1.5181,1.5181,1.5181,1.5181,1.5215,1.5276,1.5384,1.5479,1.5676,1.5874,1.599,1.6078,1.6076,1.6083,1.6083,1.6083,1.6083,1.6083,1.6083,1.6083,1.6083,1.6083,1.6083,1.6083,1.6083,1.6083,1.6083,1.6083,1.6083,1.6083,1.6083,1.6083,1.6083,1.6083,1.6083,1.6083,1.6083,1.6083,1.6083,1.6083,1.6083,1.6083,1.6083,1.6083,1.6083,0.0,0.0,0.0,1.3377,0.0,0.0,1.3502,1.4014,1.4216,1.3434,1.3528,1.3685,1.3506,1.3588,1.3964,1.4764,1.5396,1.5937,1.6509,1.6674,1.6698,1.6592,1.6584,1.6552,1.647,1.6462,1.6405,1.6301,1.6285,1.615,1.5803,1.5238,1.4554,1.3749,1.3707,1.3707,1.3707,1.3768,1.3795,1.3802,1.3933,1.3973,1.398,1.4136,1.417,1.4116,1.4177,1.4153,1.4077,1.3978,1.4036,1.4192,1.4192,1.4233,1.4299,1.4299,1.4299,1.4299,1.4299,1.434,1.4414,1.459,1.4733,1.4869,1.5038,1.518,1.5181,1.5181,1.5181,1.5181,1.5181,1.5228,1.5316,1.5472,1.5622,1.5771,1.5962,1.6015,1.6083,1.6083,1.6083,1.6083,1.6083,1.6083,1.6083,1.6083,1.6083,1.6083,1.6083,1.6083,1.6083,1.6083,1.6083,1.6083,1.6083,1.6083,1.6083,1.6083,1.6083,1.6083,1.6083,1.6083,1.6083,1.6083,1.6083,1.6083,1.6083,1.6083,1.6083,1.6083,1.6083,1.6083,0.0,0.0,0.0,0.0,1.4702,0.0,1.4391,1.4167,1.3582,1.2272,1.2323,1.2517,1.2122,1.2336,1.279,1.3393,1.3819,1.4639,1.6213,1.6469,1.6477,1.6519,1.6519,1.6446,1.6259,1.6243,1.6105,1.5772,1.5788,1.5447,1.4695,1.4527,1.4184,1.3573,1.358,1.3545,1.3558,1.3687,1.3747,1.3747,1.3768,1.3774,1.3781,1.3973,1.3973,1.3802,1.3987,1.3867,1.3565,1.3565,1.3922,1.4419,1.4419,1.4376,1.4299,1.4299,1.4299,1.4299,1.4299,1.438,1.4489,1.4509,1.4719,1.5017,1.5017,1.5079,1.5201,1.5187,1.5181,1.5181,1.5181,1.5282,1.5425,1.5533,1.5723,1.5922,1.6071,1.6069,1.6076,1.6056,1.6069,1.6083,1.6083,1.6083,1.6083,1.6083,1.6083,1.6083,1.6083,1.6083,1.6083,1.6083,1.6083,1.6083,1.6083,1.6083,1.6083,1.6083,1.6083,1.6083,1.6083,1.6083,1.6083,1.6083,1.6083,1.6083,1.6083,1.6083,1.6083,1.6083,1.6083,1.6083,0.0,0.0,0.0,0.0,0.0,0.0,1.4418,1.4595,1.4316,1.2458,1.2153,1.185,1.0679,1.0522,1.0836,1.1583,1.2256,1.3334,1.5197,1.5562,1.5731,1.6063,1.6112,1.6081,1.5894,1.5918,1.5788,1.5585,1.5569,1.5177,1.4318,1.4256,1.3967,1.3295,1.3261,1.3322,1.3444,1.3471,1.3485,1.3492,1.3572,1.3626,1.3632,1.3774,1.3829,1.3802,1.3829,1.393,1.3985,1.3985,1.3963,1.3925,1.3925,1.4109,1.4299,1.4299,1.4299,1.4299,1.4299,1.4319,1.436,1.4475,1.4719,1.5017,1.5017,1.5153,1.5343,1.5215,1.5181,1.5181,1.5181,1.5208,1.5262,1.5418,1.5574,1.5723,1.5915,1.6044,1.6092,1.5969,1.6044,1.6083,1.6083,1.6083,1.6083,1.6083,1.6083,1.6083,1.6083,1.6083,1.6083,1.6083,1.6083,1.6083,1.6083,1.6083,1.6083,1.6083,1.6083,1.6083,1.6083,1.6083,1.6083,1.6083,1.6083,1.6083,1.6083,1.6083,1.6083,1.6083,1.6083,1.6083,0.0,0.0,0.0,1.4437,0.0,0.0,0.0,1.4286,1.389,1.2028,1.1659,1.1254,0.9953,0.9751,0.9992,1.0577,1.1175,1.1973,1.3056,1.4322,1.5213,1.5416,1.5618,1.5707,1.565,1.5642,1.5528,1.526,1.5074,1.4663,1.3975,1.3943,1.3735,1.3207,1.3214,1.3247,1.3397,1.3403,1.3403,1.3403,1.3478,1.3512,1.3519,1.3626,1.3653,1.3585,1.366,1.3817,1.3953,1.3953,1.4005,1.4044,1.4044,1.4138,1.4299,1.4299,1.4346,1.4394,1.4326,1.4394,1.4529,1.4559,1.478,1.4997,1.5147,1.5296,1.5377,1.5228,1.5181,1.5181,1.5181,1.5181,1.5221,1.5371,1.5479,1.5676,1.5874,1.6024,1.6056,1.603,1.6029,1.6056,1.603,1.6078,1.6083,1.6083,1.6083,1.6083,1.6083,1.6083,1.6083,1.6083,1.6083,1.6083,1.6083,1.6083,1.6083,1.6083,1.6083,1.6083,1.6083,1.6083,1.6083,1.6083,1.6083,1.6083,1.6083,1.6083,1.6083,1.6083,1.6083,1.6083,0.0,0.0,0.0,0.0,0.0,1.4505,0.0,0.0,0.0,1.1828,1.1337,1.0839,0.9658,0.9368,0.9367,0.958,1.0154,1.0649,1.0907,1.2793,1.4191,1.433,1.4789,1.5097,1.5143,1.5163,1.5033,1.4794,1.4284,1.3858,1.351,1.3417,1.3272,1.3071,1.3084,1.3132,1.3315,1.3342,1.3356,1.3356,1.339,1.3403,1.3403,1.3532,1.3519,1.341,1.3532,1.3626,1.3761,1.3788,1.3964,1.4258,1.4285,1.4299,1.4306,1.4333,1.4394,1.4462,1.4407,1.4523,1.4654,1.4687,1.4841,1.5071,1.5323,1.5391,1.5343,1.5215,1.5181,1.5181,1.5181,1.5181,1.5215,1.5337,1.5458,1.5662,1.575,1.5962,1.6029,1.6001,1.6015,1.6058,1.5962,1.6051,1.6083,1.6083,1.6083,1.6083,1.6083,1.6083,1.6083,1.6083,1.6083,1.6083,1.6083,1.6083,1.6083,1.6083,1.6083,1.6083,1.6083,1.6083,1.6083,1.6083,1.6083,1.6083,1.6083,1.6083,1.6083,1.6083,1.6083,1.6083,0.0,0.0,0.0,0.0,1.4859,0.0,0.0,0.0,1.4488,1.2847,0.0,1.0886,0.9786,0.0,0.0,0.7916,0.8736,0.9546,0.9981,1.0808,1.1593,1.2251,1.3108,1.3715,1.3901,1.3888,1.3926,1.4003,1.3083,1.2605,1.2783,1.2489,1.2371,1.2569,1.2576,1.2718,1.305,1.3173,1.3241,1.32,1.3336,1.3403,1.3403,1.3417,1.3417,1.3403,1.3417,1.3512,1.3619,1.3747,1.3939,1.4109,1.4245,1.4299,1.4319,1.4441,1.4421,1.436,1.4559,1.4624,1.4557,1.4654,1.4841,1.5071,1.5323,1.5316,1.5208,1.5187,1.5181,1.5181,1.5181,1.5181,1.5187,1.5201,1.5432,1.556,1.5486,1.5683,1.5894,1.5716,1.5791,1.5969,1.6035,1.6069,1.6083,1.6083,1.6083,1.6083,1.6083,1.6083,1.6083,1.6083,1.6083,1.6083,1.6083,1.6083,1.6083,1.6083,1.6083,1.6083,1.6083,1.6083,1.6083,1.6083,1.6083,1.6083,1.6083,1.6083,1.6083,1.6083,1.6083,1.6083,0.0,0.0,0.0,0.0,0.0,0.0,1.4606,0.0,1.4287,0.0,0.0,0.0,0.0,0.0,0.0,0.0,0.9899,1.0257,0.8973,0.9995,1.1195,1.198,1.2056,1.2125,1.2243,1.2327,1.2414,1.2517,1.2025,1.1714,1.1762,1.1877,1.1989,1.214,1.2385,1.2651,1.2996,1.3057,1.3132,1.3214,1.3282,1.3315,1.3403,1.3403,1.3403,1.3403,1.3403,1.3485,1.3592,1.3653,1.3858,1.4125,1.4143,1.4326,1.455,1.4523,1.4529,1.4563,1.4552,1.4563,1.4536,1.4647,1.4903,1.512,1.5242,1.5235,1.5201,1.5289,1.5248,1.5181,1.5181,1.5181,1.5208,1.5296,1.5479,1.5573,1.5506,1.5703,1.586,1.5621,1.5757,1.5922,1.599,1.6071,1.6083,1.6083,1.6083,1.6083,1.6083,1.6083,1.6083,1.6083,1.6083,1.6083,1.6083,1.6083,1.6083,1.6083,1.6083,1.6083,1.6083,1.6083,1.6083,1.6083,1.6083,1.6083,1.6083,1.6083,1.6083,1.6083,1.6083,1.6083,1.3676,0.0,0.0,0.0,0.0,0.0,0.0,0.0,0.0,0.0,0.0,0.0,0.0,0.0,0.0,0.0,0.0,1.0941,0.9196,1.0126,1.0971,1.0994,1.0763,1.0669,1.0765,1.0806,1.0916,1.1084,1.0806,1.0702,1.0805,1.1119,1.1434,1.1675,1.2073,1.2432,1.2812,1.2941,1.303,1.3051,1.3132,1.3234,1.3336,1.3336,1.3363,1.3403,1.3403,1.3464,1.3566,1.3572,1.3777,1.4014,1.4098,1.4319,1.4626,1.4597,1.4545,1.4572,1.4631,1.4638,1.4652,1.4674,1.4916,1.5173,1.5173,1.5173,1.5153,1.5303,1.5269,1.5181,1.5181,1.5181,1.5221,1.5371,1.5445,1.5526,1.5526,1.5655,1.5703,1.5546,1.5696,1.5854,1.5894,1.603,1.6083,1.6083,1.6083,1.6083,1.6083,1.6083,1.6083,1.6083,1.6083,1.6083,1.6083,1.6083,1.6083,1.6083,1.6083,1.6083,1.6083,1.6083,1.6083,1.6083,1.6083,1.6083,1.6083,1.6083,1.6083,1.6083,1.6083,1.6083,0.0,0.0,0.0,1.4328,0.0,0.0,0.0,0.0,1.4605,0.0,0.0,0.0,0.0,0.0,0.0,0.0,0.0,0.0,0.0,1.1281,1.0432,0.8374,0.8913,0.951,0.9641,0.9475,0.9574,1.0116,0.943,0.9321,1.0078,1.007,1.0374,1.1086,1.1507,1.1924,1.2311,1.2785,1.2888,1.2706,1.2895,1.3084,1.322,1.322,1.3261,1.3403,1.3403,1.3403,1.3417,1.3566,1.3673,1.3822,1.4014,1.4251,1.4536,1.4633,1.4512,1.4373,1.4853,1.5003,1.493,1.4741,1.4848,1.5023,1.5023,1.5023,1.5011,1.5147,1.5187,1.5181,1.5181,1.5181,1.5221,1.5371,1.5411,1.5418,1.5418,1.5418,1.5425,1.5418,1.554,1.5689,1.5881,1.603,1.6083,1.6083,1.6083,1.6083,1.6083,1.6083,1.6083,1.6083,1.6083,1.6083,1.6083,1.6083,1.6083,1.6083,1.6083,1.6083,1.6083,1.6083,1.6083,1.6083,1.6083,1.6083,1.6083,1.6083,1.6083,1.6083,1.6083,1.6083,0.0,0.0,1.7689,1.5704,0.0,0.0,0.0,0.0,0.0,0.0,0.0,0.0,0.0,0.0,0.0,0.0,0.0,0.0,0.0,1.112,1.0635,0.9106,0.9242,0.919,0.8472,0.8577,0.8882,0.9349,0.9037,0.905,0.9535,0.9712,0.9954,1.0305,1.1064,1.1623,1.1911,1.2325,1.2589,1.2693,1.2786,1.2935,1.3214,1.3214,1.3254,1.3403,1.3403,1.3403,1.341,1.3524,1.3666,1.3815,1.4014,1.4197,1.4401,1.4606,1.4566,1.4448,1.4509,1.459,1.4658,1.4604,1.4919,1.5353,1.5517,1.551,1.5522,1.5774,1.5538,1.5181,1.5181,1.5422,1.5692,1.5893,1.5928,1.5928,1.5928,1.5725,1.5533,1.5432,1.5608,1.5798,1.5894,1.603,1.6083,1.6083,1.6083,1.6083,1.6083,1.6083,1.6083,1.6083,1.6083,1.6083,1.6083,1.6083,1.6083,1.6083,1.6083,1.6083,1.6083,1.6083,1.6083,1.6083,1.6083,1.6083,1.6083,1.6083,1.6083,1.6083,1.6083,1.6083,1.7672,1.8246,0.0,1.6904,1.7,0.0,1.5258,0.0,0.0,0.0,0.0,0.0,0.0,0.0,0.0,0.0,0.0,0.0,0.0,1.1618,1.1171,0.9663,0.9383,0.8925,0.7946,0.7899,0.8152,0.8684,0.8779,0.8909,0.9177,0.9589,0.9842,0.996,1.0724,1.1308,1.1643,1.2021,1.236,1.2651,1.2651,1.2807,1.3139,1.3139,1.3248,1.3403,1.3403,1.3403,1.341,1.3505,1.3619,1.3808,1.3953,1.4116,1.4333,1.457,1.4552,1.4489,1.4346,1.4394,1.4509,1.474,1.5108,1.5603,1.6007,1.606,1.6031,1.6292,1.6057,1.5744,1.5744,1.5978,1.6209,1.6415,1.6266,1.6095,1.62,1.582,1.5466,1.5418,1.5608,1.584,1.5894,1.603,1.6083,1.6083,1.6083,1.6083,1.6083,1.6083,1.6083,1.6083,1.6083,1.6083,1.6083,1.6083,1.6083,1.6083,1.6083,1.6083,1.6083,1.6083,1.6157,1.6313,1.6164,1.6157,1.632,1.6157,1.6083,1.6083,1.6083,1.6083]},{"header":{"parameterUnit":"m.s-1","parameterCategory":1,"la1":30.6,"la2":29.2853,"lo1":-89.7004,"lo2":-87.6739,"dy":0.0162,"dx":0.0183,"nx":112,"ny":82,"refTime":"2023-09-27T18:00:00:Z","depth":0,"parameterNumber":3,"parameterNumberName":"V-component_of_WINDS"},"data":[0.0,0.0,0.0,0.0,0.0,0.0,0.0,0.0,0.0,0.0,0.0,0.0,0.0,0.0,0.0,0.0,0.0,0.0,0.0,0.0,0.0,0.0,0.0,0.0,0.0,0.0,0.0,0.0,0.0,0.0,0.0,0.0,0.0,0.0,0.0,0.0,0.0,0.0,0.0,0.0,0.0,0.0,0.0,0.0,0.0,0.0,0.0,0.0,0.0,0.0,0.0,0.0,0.0,0.0,0.0,0.0,0.0,0.0,0.0,0.0,0.0,0.0,0.0,0.0,0.0,0.0,0.0,0.0,0.0,0.0,0.0,0.0,0.0,0.0,0.0,0.0,0.0,0.0,0.0,0.0,0.0,0.0,0.0,0.0,0.0,0.0,0.0,0.0,0.0,0.0,4.3641,4.8048,5.4104,5.7343,5.6093,5.5109,5.1452,4.4284,0.0,0.0,0.0,0.0,0.0,0.0,0.0,0.0,0.0,0.0,0.0,0.0,0.0,0.0,0.0,0.0,0.0,0.0,0.0,0.0,0.0,0.0,0.0,0.0,0.0,0.0,0.0,0.0,0.0,0.0,0.0,0.0,0.0,0.0,0.0,0.0,0.0,0.0,0.0,0.0,0.0,0.0,0.0,0.0,0.0,0.0,0.0,0.0,0.0,0.0,0.0,0.0,0.0,0.0,0.0,0.0,0.0,0.0,0.0,0.0,0.0,0.0,0.0,0.0,0.0,0.0,0.0,0.0,0.0,0.0,0.0,0.0,0.0,0.0,0.0,0.0,0.0,0.0,0.0,0.0,0.0,0.0,0.0,0.0,0.0,0.0,0.0,0.0,0.0,0.0,0.0,0.0,0.0,0.0,0.0,0.0,0.0,0.0,0.0,0.0,0.0,0.0,0.0,0.0,4.6926,5.3388,5.661,5.8169,5.7824,5.4773,5.0984,4.6538,0.0,0.0,0.0,0.0,0.0,0.0,0.0,0.0,0.0,0.0,0.0,0.0,0.0,0.0,0.0,0.0,0.0,0.0,0.0,0.0,0.0,0.0,0.0,0.0,0.0,0.0,0.0,0.0,0.0,0.0,0.0,0.0,0.0,0.0,0.0,0.0,0.0,0.0,0.0,0.0,0.0,0.0,0.0,0.0,0.0,0.0,0.0,0.0,0.0,0.0,0.0,0.0,0.0,0.0,0.0,0.0,0.0,0.0,0.0,0.0,0.0,0.0,0.0,0.0,0.0,0.0,0.0,0.0,0.0,0.0,0.0,0.0,0.0,0.0,0.0,0.0,0.0,0.0,0.0,0.0,0.0,0.0,0.0,0.0,0.0,0.0,0.0,0.0,0.0,0.0,0.0,0.0,0.0,0.0,0.0,0.0,0.0,0.0,0.0,0.0,0.0,0.0,0.0,4.6386,5.0343,5.6841,5.8454,5.9006,5.8874,5.4942,5.0875,4.7048,4.3031,0.0,0.0,0.0,0.0,0.0,0.0,0.0,0.0,0.0,0.0,0.0,0.0,0.0,0.0,0.0,0.0,0.0,0.0,0.0,0.0,0.0,0.0,0.0,0.0,0.0,0.0,0.0,0.0,0.0,0.0,0.0,0.0,0.0,0.0,0.0,0.0,0.0,0.0,0.0,0.0,0.0,0.0,0.0,0.0,0.0,0.0,0.0,0.0,0.0,0.0,0.0,0.0,0.0,0.0,0.0,0.0,0.0,0.0,0.0,0.0,0.0,0.0,0.0,0.0,0.0,0.0,0.0,0.0,0.0,0.0,0.0,0.0,0.0,0.0,0.0,0.0,0.0,0.0,0.0,0.0,0.0,0.0,0.0,0.0,0.0,0.0,0.0,0.0,0.0,0.0,0.0,0.0,0.0,0.0,0.0,0.0,0.0,0.0,0.0,0.0,0.0,0.0,5.087,5.3504,5.8608,5.944,5.949,5.9167,5.464,5.0374,4.7001,4.2094,0.0,0.0,0.0,0.0,0.0,0.0,0.0,0.0,0.0,0.0,0.0,0.0,0.0,0.0,0.0,0.0,0.0,0.0,0.0,0.0,0.0,0.0,0.0,0.0,0.0,0.0,0.0,0.0,0.0,0.0,0.0,0.0,0.0,0.0,0.0,0.0,0.0,0.0,0.0,0.0,0.0,0.0,0.0,0.0,0.0,0.0,0.0,0.0,0.0,0.0,0.0,0.0,0.0,0.0,0.0,0.0,0.0,0.0,0.0,0.0,0.0,0.0,0.0,0.0,0.0,0.0,0.0,0.0,0.0,0.0,0.0,0.0,0.0,0.0,0.0,0.0,0.0,0.0,0.0,0.0,0.0,0.0,0.0,0.0,0.0,0.0,0.0,0.0,0.0,0.0,0.0,0.0,0.0,0.0,0.0,0.0,0.0,0.0,0.0,0.0,0.0,0.0,5.2676,5.5985,5.8223,5.9131,5.9276,5.8515,5.3147,4.8933,4.6918,4.1329,0.0,0.0,0.0,0.0,0.0,0.0,0.0,0.0,0.0,0.0,0.0,0.0,0.0,0.0,0.0,0.0,0.0,0.0,0.0,0.0,0.0,0.0,0.0,0.0,0.0,0.0,0.0,0.0,0.0,0.0,0.0,0.0,0.0,0.0,0.0,0.0,0.0,0.0,0.0,0.0,0.0,0.0,0.0,0.0,0.0,0.0,0.0,0.0,0.0,0.0,0.0,0.0,0.0,0.0,0.0,0.0,0.0,0.0,0.0,0.0,0.0,0.0,0.0,0.0,0.0,0.0,0.0,0.0,0.0,0.0,0.0,0.0,0.0,0.0,0.0,0.0,0.0,0.0,0.0,0.0,0.0,0.0,0.0,0.0,0.0,0.0,0.0,0.0,0.0,0.0,0.0,0.0,0.0,0.0,0.0,0.0,0.0,0.0,0.0,0.0,0.0,0.0,5.157,5.4801,5.8743,5.8963,5.8528,5.7732,5.3567,4.9627,4.6266,0.0,0.0,0.0,0.0,0.0,0.0,0.0,0.0,0.0,0.0,0.0,0.0,0.0,0.0,0.0,0.0,0.0,0.0,0.0,0.0,0.0,0.0,0.0,0.0,0.0,0.0,0.0,0.0,0.0,0.0,0.0,0.0,0.0,0.0,0.0,0.0,0.0,0.0,0.0,0.0,0.0,0.0,0.0,0.0,0.0,0.0,0.0,0.0,0.0,0.0,0.0,0.0,0.0,0.0,0.0,0.0,0.0,0.0,0.0,0.0,0.0,0.0,0.0,0.0,0.0,0.0,0.0,0.0,0.0,0.0,0.0,0.0,0.0,0.0,0.0,0.0,0.0,0.0,0.0,0.0,0.0,0.0,0.0,0.0,0.0,0.0,0.0,0.0,0.0,0.0,0.0,0.0,0.0,0.0,0.0,0.0,0.0,0.0,0.0,0.0,0.0,0.0,4.871,5.1598,5.471,5.843,5.8244,5.7516,5.6685,5.26,4.884,4.5929,0.0,0.0,0.0,0.0,0.0,0.0,0.0,0.0,0.0,0.0,0.0,0.0,0.0,0.0,0.0,0.0,0.0,0.0,0.0,0.0,0.0,0.0,0.0,0.0,0.0,0.0,0.0,0.0,0.0,0.0,0.0,0.0,0.0,0.0,0.0,0.0,0.0,0.0,0.0,0.0,0.0,0.0,0.0,0.0,0.0,0.0,0.0,0.0,0.0,0.0,0.0,0.0,0.0,0.0,0.0,0.0,0.0,0.0,0.0,0.0,0.0,0.0,0.0,0.0,0.0,0.0,0.0,0.0,0.0,0.0,0.0,0.0,0.0,0.0,0.0,0.0,0.0,0.0,0.0,0.0,0.0,0.0,0.0,0.0,0.0,0.0,0.0,0.0,0.0,0.0,0.0,0.0,0.0,0.0,0.0,0.0,0.0,0.0,0.0,0.0,0.0,0.0,4.9339,5.3315,5.6295,5.7116,5.6842,5.6246,5.5444,4.9693,4.6117,0.0,0.0,0.0,0.0,0.0,0.0,0.0,0.0,0.0,0.0,0.0,0.0,0.0,0.0,0.0,0.0,0.0,0.0,0.0,0.0,0.0,0.0,0.0,0.0,0.0,0.0,0.0,0.0,0.0,0.0,0.0,0.0,0.0,0.0,0.0,0.0,0.0,0.0,0.0,0.0,0.0,0.0,0.0,0.0,0.0,0.0,0.0,0.0,0.0,0.0,0.0,0.0,0.0,0.0,0.0,0.0,0.0,0.0,0.0,0.0,0.0,0.0,0.0,0.0,0.0,0.0,0.0,0.0,0.0,0.0,0.0,0.0,0.0,0.0,0.0,0.0,0.0,0.0,0.0,0.0,0.0,0.0,0.0,0.0,0.0,0.0,0.0,0.0,0.0,0.0,0.0,0.0,0.0,0.0,0.0,0.0,0.0,0.0,0.0,0.0,0.0,0.0,0.0,4.8152,5.1418,5.4363,5.6538,5.6415,5.5387,5.3442,5.0133,4.7327,4.5381,0.0,0.0,0.0,0.0,0.0,0.0,0.0,0.0,0.0,0.0,0.0,0.0,0.0,0.0,0.0,0.0,0.0,0.0,0.0,0.0,0.0,0.0,0.0,0.0,0.0,0.0,0.0,0.0,0.0,0.0,0.0,0.0,0.0,0.0,0.0,0.0,0.0,0.0,0.0,0.0,0.0,0.0,0.0,0.0,0.0,0.0,0.0,0.0,0.0,0.0,0.0,0.0,0.0,0.0,0.0,0.0,0.0,0.0,0.0,0.0,0.0,0.0,0.0,0.0,0.0,0.0,0.0,0.0,0.0,0.0,0.0,0.0,0.0,0.0,0.0,0.0,0.0,0.0,0.0,0.0,0.0,0.0,0.0,0.0,0.0,0.0,0.0,0.0,0.0,0.0,0.0,0.0,0.0,0.0,0.0,0.0,0.0,0.0,0.0,0.0,0.0,0.0,4.8898,5.144,5.3785,5.59,5.5486,5.4145,5.1882,4.9429,4.7073,4.4784,0.0,0.0,0.0,0.0,0.0,0.0,0.0,0.0,0.0,0.0,0.0,0.0,0.0,0.0,0.0,0.0,0.0,0.0,0.0,0.0,0.0,0.0,0.0,0.0,0.0,0.0,0.0,0.0,0.0,0.0,0.0,0.0,0.0,0.0,0.0,0.0,0.0,0.0,0.0,0.0,0.0,0.0,0.0,0.0,0.0,0.0,0.0,0.0,0.0,0.0,0.0,0.0,0.0,0.0,0.0,0.0,0.0,0.0,0.0,0.0,0.0,0.0,0.0,0.0,0.0,0.0,0.0,0.0,0.0,0.0,0.0,0.0,0.0,0.0,0.0,0.0,0.0,0.0,0.0,0.0,0.0,0.0,0.0,0.0,0.0,0.0,0.0,0.0,0.0,0.0,0.0,0.0,0.0,0.0,0.0,0.0,0.0,0.0,0.0,0.0,0.0,0.0,5.0749,5.2613,5.4074,5.5375,5.4452,5.2913,5.0891,4.8263,4.6068,4.4518,0.0,0.0,0.0,0.0,0.0,0.0,0.0,0.0,0.0,0.0,0.0,0.0,0.0,0.0,0.0,0.0,0.0,0.0,0.0,0.0,0.0,0.0,0.0,0.0,0.0,0.0,0.0,0.0,0.0,0.0,0.0,0.0,0.0,0.0,0.0,0.0,0.0,0.0,0.0,0.0,0.0,0.0,0.0,0.0,0.0,0.0,0.0,0.0,0.0,0.0,0.0,0.0,0.0,0.0,0.0,0.0,0.0,0.0,0.0,0.0,3.0174,2.8175,0.0,0.0,0.0,0.0,0.0,0.0,0.0,0.0,0.0,0.0,0.0,0.0,0.0,0.0,0.0,0.0,0.0,0.0,0.0,0.0,0.0,0.0,0.0,0.0,0.0,0.0,0.0,0.0,0.0,0.0,0.0,0.0,0.0,0.0,0.0,0.0,0.0,0.0,0.0,0.0,5.0472,5.1979,5.3664,5.608,5.5315,5.379,5.1717,4.9112,4.6853,4.529,4.3009,0.0,0.0,0.0,0.0,0.0,0.0,0.0,0.0,0.0,0.0,0.0,0.0,0.0,0.0,0.0,0.0,0.0,0.0,0.0,0.0,0.0,0.0,0.0,0.0,0.0,0.0,0.0,0.0,0.0,0.0,0.0,0.0,0.0,0.0,0.0,0.0,0.0,0.0,0.0,0.0,0.0,0.0,0.0,0.0,0.0,0.0,0.0,0.0,0.0,0.0,0.0,0.0,0.0,0.0,0.0,0.0,0.0,0.0,0.0,3.6437,3.3496,0.0,0.0,0.0,0.0,0.0,0.0,0.0,0.0,0.0,0.0,0.0,0.0,0.0,0.0,0.0,0.0,0.0,0.0,0.0,0.0,0.0,0.0,0.0,0.0,0.0,0.0,0.0,0.0,0.0,0.0,0.0,0.0,0.0,0.0,0.0,0.0,0.0,0.0,0.0,0.0,5.1141,5.2134,5.3412,5.5757,5.4955,5.3463,5.1409,4.91,4.7087,4.5492,4.3975,0.0,0.0,0.0,0.0,0.0,0.0,0.0,0.0,0.0,0.0,0.0,0.0,0.0,0.0,0.0,0.0,0.0,0.0,0.0,0.0,0.0,0.0,0.0,0.0,0.0,0.0,0.0,0.0,0.0,0.0,0.0,0.0,0.0,0.0,0.0,0.0,0.0,0.0,0.0,0.0,0.0,0.0,0.0,0.0,0.0,0.0,0.0,0.0,0.0,0.0,0.0,0.0,0.0,4.6164,4.6739,4.6685,4.8209,4.8677,4.8086,4.5075,4.1376,3.7405,3.7094,0.0,0.0,0.0,0.0,0.0,0.0,0.0,0.0,0.0,0.0,0.0,0.0,0.0,0.0,0.0,0.0,0.0,0.0,0.0,0.0,0.0,0.0,0.0,0.0,5.0108,4.9498,4.5719,0.0,0.0,0.0,0.0,0.0,0.0,0.0,0.0,0.0,0.0,0.0,5.1975,5.2625,5.3412,5.53,5.4509,5.3043,5.107,4.9067,4.7228,4.5721,4.4768,4.3674,0.0,0.0,0.0,0.0,0.0,0.0,0.0,0.0,0.0,0.0,0.0,0.0,0.0,0.0,0.0,0.0,0.0,0.0,0.0,0.0,0.0,0.0,0.0,0.0,0.0,0.0,0.0,0.0,0.0,0.0,0.0,0.0,3.6096,3.6094,0.0,0.0,0.0,0.0,0.0,0.0,0.0,0.0,0.0,0.0,0.0,0.0,0.0,4.6092,4.6395,4.9859,5.1089,5.0143,5.3457,5.4658,5.4074,5.5716,5.6761,5.7294,5.75,0.0,4.324,3.961,0.0,0.0,0.0,0.0,0.0,0.0,0.0,0.0,0.0,0.0,0.0,0.0,0.0,0.0,0.0,0.0,0.0,0.0,0.0,0.0,0.0,0.0,4.9586,5.2395,5.2818,5.2437,0.0,4.8917,4.6376,4.6182,4.4959,0.0,0.0,0.0,0.0,0.0,0.0,0.0,5.2108,5.3096,5.4158,5.575,5.5218,5.4029,5.229,5.0063,4.8074,4.6533,4.5092,4.4195,4.3962,4.3356,0.0,0.0,0.0,0.0,0.0,0.0,0.0,0.0,0.0,0.0,0.0,0.0,0.0,0.0,0.0,0.0,0.0,0.0,0.0,0.0,0.0,0.0,0.0,0.0,0.0,0.0,0.0,0.0,0.0,3.654,3.8642,3.7262,3.904,3.9187,0.0,0.0,0.0,0.0,0.0,0.0,0.0,0.0,0.0,4.7121,5.0412,5.2764,5.4045,5.6542,5.8099,5.8785,6.0852,6.1872,6.1975,6.3098,6.3807,6.4117,6.4048,6.0952,5.5502,4.9678,4.6198,4.4313,0.0,0.0,0.0,0.0,4.2233,4.2314,4.4408,4.4634,4.4183,4.5288,0.0,0.0,0.0,0.0,0.0,0.0,0.0,0.0,0.0,0.0,5.4638,5.7227,5.8039,5.8042,5.7602,5.4995,5.2134,0.0,4.8649,4.7734,4.7174,0.0,0.0,0.0,0.0,5.0247,5.2819,5.3892,5.4979,5.65,5.5373,5.4107,5.3163,5.0739,4.8667,4.7313,4.6217,4.5195,4.4345,4.4337,4.3743,0.0,0.0,0.0,0.0,0.0,0.0,0.0,0.0,0.0,0.0,0.0,0.0,0.0,0.0,0.0,0.0,0.0,0.0,0.0,0.0,0.0,0.0,0.0,0.0,0.0,0.0,0.0,0.0,3.9763,4.1488,3.8926,4.2205,4.3083,0.0,0.0,0.0,0.0,0.0,0.0,4.7238,5.0431,5.2975,5.4663,5.7187,5.9513,6.1599,6.3151,6.4669,6.6152,6.6945,6.762,6.8172,6.8704,6.9084,6.9256,6.8724,6.7566,6.56,5.8221,5.3201,4.9958,4.8326,4.7349,4.7019,4.8338,4.8572,4.8636,5.1173,5.1565,5.0911,5.0567,4.9637,4.8218,4.5951,0.0,0.0,0.0,0.0,5.1749,5.4722,5.7039,5.9121,6.1494,6.237,6.2504,6.1916,6.0311,5.7757,0.0,5.2507,5.1818,5.0934,0.0,0.0,0.0,0.0,5.1765,5.3748,5.4713,5.5668,5.6766,5.5563,5.4346,5.354,5.1423,4.9473,4.7995,4.7165,4.6095,4.4643,4.51,4.4751,4.3365,0.0,0.0,0.0,0.0,0.0,0.0,0.0,0.0,0.0,0.0,0.0,0.0,0.0,0.0,0.0,0.0,0.0,0.0,0.0,0.0,0.0,0.0,0.0,0.0,0.0,0.0,0.0,0.0,0.0,4.2894,4.6728,0.0,0.0,0.0,0.0,4.8768,4.9887,5.1365,5.353,5.683,5.9593,6.1727,6.4819,6.7172,6.8759,7.0256,7.067,7.0139,7.0843,7.1222,7.1256,7.1291,7.176,7.2485,7.2416,7.1553,6.9483,6.1151,5.7515,5.6829,5.3135,5.257,5.3722,5.3135,5.2957,5.2965,5.2394,5.1705,5.1548,5.4341,5.5031,5.434,5.206,5.1891,0.0,0.0,5.4294,5.6704,5.8776,6.048,6.2164,6.4148,6.4313,6.4,6.3928,6.3256,6.134,0.0,5.5266,5.412,5.2804,0.0,5.3131,5.197,5.2881,5.3997,5.4738,5.5595,5.6104,5.609,5.5981,5.5182,5.3372,5.2327,5.0836,4.8617,4.7656,4.663,4.5389,4.5363,4.5031,4.4264,4.4264,0.0,0.0,0.0,0.0,0.0,0.0,0.0,0.0,0.0,0.0,0.0,0.0,0.0,0.0,0.0,0.0,0.0,0.0,0.0,0.0,0.0,0.0,0.0,0.0,0.0,0.0,0.0,0.0,5.0361,5.4431,0.0,5.1745,5.1107,5.2049,5.4764,5.6201,5.8364,6.1541,6.4645,6.7172,6.8954,7.0567,7.1877,7.2891,7.3408,7.3546,7.3305,7.3546,7.3684,7.3705,7.4135,7.4482,7.4761,7.4761,7.4169,7.3006,6.9997,6.6481,6.2786,6.0908,6.0219,6.0305,6.0529,6.0943,6.1392,6.1116,6.084,6.0462,5.958,5.9124,5.8618,5.6943,5.7527,5.8661,5.8182,5.9595,6.1659,6.3547,6.4775,6.5829,6.7131,6.7318,6.6915,6.5857,6.5419,6.4589,6.255,5.9585,5.7436,5.748,5.597,5.4985,5.5547,5.603,5.6587,5.7328,5.8117,5.8421,5.7849,5.734,5.6188,5.4142,5.2737,5.0948,4.8504,4.7595,4.6839,4.6182,4.6169,4.6272,4.6493,4.6493,4.6355,0.0,0.0,0.0,0.0,0.0,0.0,0.0,0.0,0.0,0.0,0.0,0.0,0.0,0.0,0.0,0.0,0.0,0.0,0.0,0.0,0.0,0.0,0.0,0.0,0.0,5.1251,5.5482,5.6198,6.0787,6.2561,5.9213,5.9021,6.0115,6.2579,6.3999,6.6059,6.906,7.1359,7.329,7.4823,7.5185,7.5687,7.6422,7.6445,7.6209,7.5711,7.5881,7.5986,7.6036,7.6512,7.6856,7.7081,7.7081,7.6685,7.6096,7.6016,7.3534,6.9637,6.8175,6.7373,6.7028,6.7236,6.771,6.815,6.7905,6.7486,6.6668,6.4357,6.3451,6.3051,6.1882,6.2819,6.4148,6.3665,6.4861,6.6526,6.7477,6.8243,6.8848,6.9201,6.9119,6.8605,6.754,6.71,6.6733,6.6219,6.3156,6.0724,6.093,5.8957,5.7715,5.8762,5.8714,5.8799,5.9516,5.9857,5.9857,5.926,5.8495,5.7219,5.5329,5.4074,5.2102,4.9084,4.8558,4.7875,4.6745,4.6903,4.7156,4.7352,4.7644,4.7644,4.7352,0.0,0.0,0.0,0.0,0.0,0.0,0.0,0.0,0.0,0.0,0.0,0.0,0.0,0.0,0.0,0.0,0.0,0.0,0.0,0.0,0.0,0.0,0.0,4.9262,5.628,6.1198,6.0401,6.5573,6.8303,6.5944,6.7166,6.9333,7.235,7.3254,7.4335,7.5787,7.6583,7.7717,7.9205,7.8733,7.8791,7.9463,7.9494,7.8815,7.7386,7.7832,7.815,7.8345,7.8365,7.8756,7.9448,7.9448,7.9138,7.8653,7.8461,7.8036,7.7243,7.4572,7.3647,7.3724,7.294,7.2727,7.2726,7.1957,7.0741,6.9361,6.8554,6.8107,6.7758,6.6993,6.7731,6.8851,6.8815,7.0012,7.1123,7.033,7.0734,7.1087,7.033,6.9559,6.8972,6.8898,6.8274,6.7737,6.77,6.5791,6.3868,6.2934,6.2043,6.1456,6.1379,6.0748,0.0,6.1171,6.0675,6.0225,6.0064,5.9346,5.8251,5.6726,5.6307,5.4384,5.0268,5.0513,4.9612,4.7033,4.7559,4.7536,4.6778,4.7559,4.7559,4.6742,0.0,0.0,0.0,0.0,0.0,0.0,0.0,0.0,0.0,0.0,0.0,0.0,0.0,0.0,0.0,0.0,0.0,0.0,0.0,0.0,0.0,5.3498,5.7789,5.7791,6.3498,6.8592,7.1176,7.4402,7.618,7.5541,7.5328,7.6054,7.802,7.7823,7.813,7.9207,7.9455,7.9855,8.0404,8.0305,8.0297,8.0501,8.0491,8.0012,7.9013,7.9186,7.9264,7.9342,7.9835,8.0166,8.0346,8.0346,8.0275,8.0115,8.0059,7.9915,7.9574,7.7192,7.6346,7.6367,7.6134,7.5743,7.5208,7.4422,7.3757,7.3161,7.2447,7.2491,7.2747,7.2612,7.2468,7.2196,7.1631,7.1403,7.1233,7.1013,7.1123,7.1233,7.1013,7.0793,7.0316,6.9142,6.8752,6.8385,6.7811,6.6709,6.5582,6.4736,6.3892,6.3146,6.2485,6.2204,0.0,6.2326,6.2204,6.185,6.1239,6.0946,5.9676,5.6834,5.546,5.3369,5.012,4.8973,4.8232,4.7724,4.7855,4.8152,4.8497,4.9316,4.9043,0.0,0.0,0.0,0.0,0.0,0.0,0.0,0.0,0.0,0.0,0.0,0.0,0.0,0.0,0.0,0.0,0.0,0.0,0.0,0.0,0.0,0.0,6.1265,6.6975,6.9487,7.1907,7.4618,7.7941,8.0006,8.1342,8.176,8.1078,8.1114,8.2351,8.1705,8.1492,8.2054,8.2073,8.2255,8.2675,8.2769,8.2657,8.2349,8.2657,8.2099,8.0721,8.1285,8.1216,8.0659,8.1345,8.1505,8.1178,8.1178,8.1267,8.1337,8.125,8.1267,0.0,0.0,0.0,0.0,0.0,7.8146,7.7693,7.7223,7.654,7.577,7.5393,7.5066,7.4799,7.4874,7.4588,7.4111,7.3634,7.2979,7.2398,7.2398,7.2141,7.1897,7.2005,7.1663,7.1064,7.0193,6.9674,6.9155,6.8348,6.7834,0.0,6.5999,6.5154,6.453,6.4383,6.3796,6.3466,6.3783,6.3233,6.2609,6.2144,6.1777,6.0542,5.7904,5.6466,0.0,0.0,0.0,4.9749,4.96,4.9264,0.0,0.0,0.0,5.0549,4.9575,0.0,0.0,0.0,4.9019,4.877,0.0,0.0,0.0,0.0,0.0,0.0,0.0,0.0,0.0,0.0,0.0,0.0,0.0,0.0,0.0,0.0,6.9597,7.624,8.1705,8.0621,8.0026,8.2136,8.3538,8.4682,8.5481,8.4915,8.4842,8.5645,8.4952,8.4495,8.4513,8.4513,0.0,0.0,0.0,8.5426,8.4584,8.5408,8.4694,8.2522,8.3733,8.3575,8.2212,8.2944,8.2834,8.2065,8.2065,8.2128,8.2186,8.2095,8.2238,8.2337,8.1107,8.0708,8.08,8.0266,8.0073,8.0073,7.9963,0.0,0.0,7.7509,7.6481,7.5307,7.5197,7.5124,7.5028,7.508,7.4485,7.3901,7.3916,7.3326,7.2765,7.2955,7.2235,7.1516,7.1508,7.0813,6.9908,6.9086,6.8852,6.8325,6.6906,6.5975,6.5632,6.6145,6.502,6.431,6.4921,6.371,6.2793,6.2793,0.0,0.0,5.9343,5.8369,5.6562,5.3544,5.3144,5.2688,5.2003,5.1282,5.1245,5.193,5.2134,5.2181,5.2108,5.3086,5.3848,5.4343,5.2004,5.1538,0.0,0.0,0.0,0.0,0.0,0.0,0.0,0.0,0.0,0.0,0.0,0.0,0.0,0.0,0.0,6.9595,7.601,8.1623,8.5937,8.6775,8.683,8.6501,8.7303,8.7705,8.7195,8.7067,8.7322,8.8161,8.7468,8.7067,8.7156,8.7174,8.7026,8.6653,8.7329,8.7276,8.6513,8.7276,8.6817,8.5082,8.537,0.0,8.4081,8.4228,8.3861,8.3111,8.3111,8.2777,8.226,8.2871,8.3511,8.3985,8.2451,8.1884,8.188,8.1782,8.1746,8.1636,8.0975,8.0571,8.0078,7.8772,7.8148,7.7745,7.7032,7.6371,0.0,7.6074,7.5028,7.393,7.4094,7.3531,7.2955,7.2982,7.283,7.2507,7.182,7.0994,7.0169,6.9371,6.8615,6.7984,6.7689,6.6885,6.5888,6.4763,6.4286,6.3906,6.3343,6.3013,6.2793,6.2793,6.2646,6.1655,5.938,5.845,5.6873,5.4326,5.3523,5.3109,5.2926,5.2779,5.2779,5.2926,5.4194,5.4561,5.389,5.6029,5.6777,5.6241,5.4343,5.3947,0.0,0.0,0.0,0.0,0.0,0.0,0.0,0.0,0.0,0.0,0.0,5.471,5.9466,0.0,7.1302,7.7255,8.2323,8.6437,8.8963,9.0409,9.0685,8.9276,8.9239,8.9475,8.9949,8.9288,8.9178,8.9986,8.9288,8.8848,8.8793,8.8793,8.861,8.8189,8.8592,8.8592,8.8189,8.8592,8.8206,8.6995,8.7399,8.6826,8.5367,8.5671,8.4986,8.3643,8.3464,8.3227,8.2941,8.3284,8.3638,8.3911,8.3104,8.3067,8.3287,8.248,8.2443,8.27,8.1893,8.1342,8.0865,8.0057,7.9543,7.9103,7.8699,7.8063,7.7478,7.7569,7.6523,7.536,7.5481,7.4917,7.4302,7.4384,7.3992,7.349,7.3114,7.2371,7.1505,7.0655,6.979,6.906,6.8589,6.7786,6.6898,6.6025,6.5571,6.5154,6.4714,6.4297,6.3894,6.3503,6.3466,6.2622,6.0566,5.9269,5.7923,5.6308,5.5831,5.5611,5.5611,5.5611,5.5611,5.5611,5.6381,5.7005,5.7409,5.8621,5.9648,6.0419,5.9564,5.8917,0.0,0.0,0.0,0.0,0.0,0.0,0.0,4.8461,5.1644,5.6913,6.0724,6.4778,7.0069,7.5015,7.9652,8.3913,8.7644,9.031,9.1315,9.2714,9.3157,9.1873,9.1152,9.1163,9.2299,9.1355,9.0912,9.1412,9.0838,9.0418,9.0227,9.0209,9.014,9.0001,9.0001,9.0001,9.0001,9.0001,8.9597,8.8788,8.945,8.8637,8.6655,8.7129,8.6183,8.412,8.3684,8.3652,8.3892,8.393,8.4048,8.4195,8.3998,8.4419,8.4966,8.3284,8.2884,8.3104,8.259,8.1893,8.1232,8.1048,8.0571,8.0,7.9853,7.9338,7.8851,7.9029,7.7983,7.6829,7.7056,7.6352,7.5675,7.576,7.5031,7.4288,7.4411,7.3603,7.2634,7.1918,7.1128,7.0262,6.9345,6.8615,6.797,6.753,6.6916,6.6439,6.6292,6.5705,6.5031,6.4383,6.431,6.3649,6.1961,6.037,5.9159,5.851,5.8497,5.852,5.852,5.8543,5.8555,5.8555,5.8702,5.9473,6.0932,6.1116,6.2181,6.4178,6.4325,6.3578,3.6816,3.8593,4.2078,4.5448,4.6424,4.9067,0.0,6.054,6.1432,6.625,7.0871,7.4485,7.5979,8.0625,8.5127,8.7787,9.0367,9.2357,9.3168,9.4231,9.5113,9.5688,9.4899,9.3813,9.252,9.287,9.2944,9.2299,9.2188,9.2114,9.2097,9.2097,9.2079,9.2062,9.2062,9.2062,9.2062,9.2062,9.1656,9.0881,9.0937,9.0106,8.8494,8.8572,8.728,8.4912,8.4162,8.4273,8.4991,8.5676,8.6414,8.6951,8.6123,8.634,8.6935,8.502,8.3471,8.2406,8.3067,8.2737,8.1929,8.1232,8.0938,8.0718,8.0036,7.9338,7.8976,7.9829,7.8477,7.7005,7.7886,7.6962,7.5774,7.5787,7.5179,7.4572,7.4585,7.3383,7.2269,7.2158,7.135,7.0407,6.9617,6.9189,6.8425,6.6869,6.6549,6.6256,6.5508,6.5362,6.5251,6.5178,6.5191,6.4481,6.2793,6.1178,6.0236,6.0126,6.0244,6.0314,6.0314,6.0418,6.0512,6.0512,6.1177,6.1989,6.2875,6.3602,6.4106,6.4402,6.5152,6.493,4.4632,4.6555,4.9185,5.2096,5.5643,5.9912,6.575,6.8509,7.128,7.6366,8.0135,8.321,8.5554,8.794,9.0193,9.2138,9.3407,9.4106,9.3957,9.4322,9.4356,9.3725,9.3304,9.3327,9.4069,9.4031,9.3624,9.2808,9.3624,9.3684,9.2619,9.3026,9.3011,9.2409,9.2409,9.2631,9.3074,9.2631,9.2446,9.2594,9.2114,9.1111,8.9621,9.0022,8.8568,8.574,8.4526,8.4437,8.5133,8.5466,8.6094,8.6759,8.6382,8.6176,8.5987,8.4963,8.4235,8.3729,8.3504,8.2884,8.215,8.1819,8.1737,8.1744,8.1413,8.0954,8.0577,8.0948,7.977,7.8466,7.8908,7.8141,7.725,7.725,7.6655,7.6061,7.6061,7.5132,7.4166,7.3683,7.2901,7.1982,7.1126,7.0454,6.9782,6.8936,6.7881,6.6916,6.6109,6.6402,6.6512,6.6035,6.5154,6.4532,6.4375,6.3762,6.3395,6.3481,6.3541,6.3578,6.3578,6.3134,6.2899,6.2899,6.2751,6.3342,6.4647,6.4967,6.5891,6.727,6.7639,6.7432,5.0121,5.285,5.573,5.9184,6.4847,7.031,7.3054,7.6475,8.0257,8.4626,8.6988,8.9029,9.1435,9.2047,9.272,9.4251,9.465,9.4622,9.4251,9.3991,9.3248,9.1576,9.0982,9.1439,9.3354,9.3516,9.3359,9.3025,9.4288,9.4498,9.3176,9.3658,9.3849,9.3563,9.3119,9.3378,9.4414,9.3637,9.3415,9.3748,9.2934,9.1744,9.0267,9.0062,8.8828,8.6735,8.5402,8.4978,8.5276,8.5757,8.6127,8.646,8.6634,8.6375,8.5873,8.5517,8.5062,8.4571,8.4007,8.3133,8.2267,8.2267,8.2295,8.2407,8.2455,8.212,8.1696,8.1696,8.065,7.9516,7.9516,7.8885,7.829,7.829,7.7696,7.7101,7.7101,7.6432,7.5615,7.5057,7.4463,7.3768,7.286,7.1991,7.1296,7.0969,6.9539,6.8262,6.7673,6.8115,6.8262,6.7673,6.6349,6.5726,6.6183,6.6011,6.5828,6.5706,6.5743,6.5657,6.5398,6.5052,6.4768,6.4509,6.4177,6.4706,6.6149,6.6149,6.7074,6.8852,6.931,6.9385,5.0272,5.4628,6.0,6.6523,7.2788,7.8403,8.246,8.5472,8.7942,8.9736,9.0515,9.0808,9.0621,9.0826,9.1495,9.2851,9.3062,9.3322,9.4102,9.3545,9.2393,9.0722,8.9161,8.8381,8.8852,9.0656,9.2133,9.2951,9.3768,9.4214,9.4177,9.4177,9.4866,9.6426,9.4977,9.4903,9.65,9.572,9.494,9.416,9.338,9.2117,9.0424,8.8031,8.7325,8.7994,8.7103,8.6285,8.5691,8.7325,8.7511,8.6864,8.7508,8.7852,8.7963,8.7538,8.593,8.4031,8.4645,8.377,8.2391,8.2391,8.2391,8.2423,8.2633,8.2212,8.1696,8.1696,8.065,7.9516,7.9516,7.8885,7.829,7.829,7.7696,7.7101,7.7101,7.6432,7.5801,7.5763,7.5726,7.5466,7.4673,7.375,7.2855,7.2076,7.1094,7.041,7.0373,7.041,7.041,7.0373,6.9634,6.8858,6.8083,6.7294,6.6519,6.5743,6.5804,6.5493,6.4678,6.5526,6.5659,6.4805,6.5585,6.6402,6.7256,6.7256,6.7386,6.7692,6.9309,7.0157,5.62,6.275,6.9274,7.509,8.1015,8.6205,8.9229,9.1037,9.2216,9.2773,9.0612,8.8583,8.8443,8.7876,8.8111,9.0193,9.2868,9.4744,9.5007,9.4812,9.3205,8.9249,8.8373,8.7691,8.6615,8.8933,9.0954,9.2125,9.4482,9.5623,9.5089,9.5615,9.6027,9.6244,9.4659,9.4707,9.6591,9.5254,9.4734,9.4957,9.2505,9.1613,9.2038,8.8757,8.801,8.9205,8.7567,8.6677,8.6462,8.764,8.794,8.7725,8.8523,8.8467,8.8036,8.8423,8.6995,8.4886,8.4896,8.3887,8.2586,8.2439,8.2565,8.2752,8.2813,8.2764,8.2698,8.2698,8.1962,8.1151,8.1151,8.0148,7.9108,7.9108,7.8476,7.7919,7.7919,7.7658,7.7287,7.6767,7.6655,7.6395,7.554,7.5129,7.4657,7.384,7.1418,6.9906,7.0423,7.0017,6.9906,7.046,7.0275,7.0006,6.9838,6.9591,6.9333,6.9149,6.9371,6.9259,6.8816,6.8938,6.8803,6.832,6.7707,6.8047,6.9406,6.8309,6.8904,7.1107,7.0545,7.1017,6.3848,7.0451,7.6619,8.3121,8.8,9.1779,9.3833,9.4222,9.3812,9.2648,8.8523,8.4916,8.421,8.1832,8.1429,8.5939,8.7902,8.9989,9.3299,9.2747,9.0984,8.83,8.7775,8.7286,8.6266,8.8176,9.0158,9.1685,9.4287,9.5734,9.5498,9.6342,9.6803,9.6757,9.5743,9.593,9.7493,9.6239,9.5214,9.4525,9.2112,9.1514,9.2464,8.9517,8.9043,9.0447,8.8263,8.7285,8.731,8.7876,8.8103,8.8178,8.8971,8.8918,8.8463,8.899,8.7973,8.6273,8.5656,8.442,8.3091,8.2882,8.2912,8.3032,8.3009,8.3106,8.3158,8.286,8.2415,8.1931,8.1634,8.0742,7.9925,7.9925,7.933,7.881,7.9108,7.8699,7.8216,7.7993,7.7733,7.7388,7.6939,7.6672,7.6364,7.5855,7.3552,7.1923,7.1963,7.1843,7.1945,7.2465,7.2629,7.2471,7.1988,7.1963,7.1615,7.077,7.0861,7.0773,7.0297,7.0398,7.0387,7.0229,6.9637,6.9713,7.0464,6.9375,6.9821,7.1653,7.0912,7.1255,7.2642,7.7588,8.221,9.0385,9.3697,9.5227,9.6335,9.5182,9.29,8.9531,8.4337,7.9794,7.7685,7.3192,7.2422,8.0322,7.9396,8.0783,8.9679,8.8318,8.6907,8.8255,8.7777,8.7433,8.7699,8.8532,8.9887,9.1843,9.3426,9.4709,9.5653,9.6474,9.729,9.8055,9.7956,9.8281,9.912,9.8276,9.6314,9.3183,9.2253,9.1838,9.18,9.0167,9.0255,9.1639,8.9311,8.8242,8.8155,8.8192,8.8205,8.823,8.9048,8.93,8.9211,8.9249,8.8733,8.7864,8.6787,8.5352,8.3921,8.3614,8.3457,8.3301,8.3283,8.3239,8.309,8.2309,8.2086,8.19,8.1083,8.086,8.0822,8.0822,8.019,7.9819,8.0599,7.9558,7.8703,7.9447,7.9001,7.8563,7.8794,7.8391,7.8002,7.7989,7.7263,7.6255,7.4878,7.563,7.6268,7.6231,7.6505,7.6011,7.4408,7.4258,7.3195,7.0743,7.0604,7.0266,6.9477,7.0164,7.0599,7.0712,7.1388,7.135,7.0626,7.055,7.0218,6.971,7.0513,7.0965,7.9415,8.5709,9.1048,9.4482,9.6637,9.7666,9.6718,9.338,8.9154,8.4632,7.7868,7.1503,6.7259,6.8612,7.1917,7.6526,8.331,8.973,9.4597,9.5638,9.5107,9.2907,9.3091,9.2653,9.0824,9.1996,9.3369,9.4524,9.5008,9.6151,9.8296,9.8601,9.896,9.9395,9.7613,9.7188,9.829,9.688,9.6012,9.58,9.3083,9.2102,9.2668,9.132,9.0964,9.1318,9.1008,9.0143,8.9038,8.9674,8.956,8.9076,8.9941,8.9428,8.8322,8.8931,8.819,8.6769,8.651,8.5773,8.4893,8.4057,8.3827,8.3825,8.3784,8.3822,8.3747,8.3559,8.3485,8.3447,8.3222,8.2698,8.2262,8.2262,8.1662,8.1101,8.1325,8.1039,8.0814,8.1039,8.0889,8.0802,8.0867,8.0205,7.9467,7.8878,7.8603,7.7878,7.6281,7.688,7.7229,7.6553,7.7139,7.6913,7.526,7.511,7.4535,7.3247,7.3341,7.3251,7.2883,7.28,7.3019,7.3452,7.2642,7.2735,7.3745,7.2497,7.2112,7.2531,7.2172,7.2013,8.6537,9.1811,9.5975,9.7837,9.7661,9.6191,9.2934,8.8642,8.332,7.6162,6.9708,6.4146,6.0179,6.256,6.6828,7.2119,8.0219,8.8047,9.4403,9.5779,9.6079,9.594,9.6062,9.5576,9.4108,9.4878,9.5942,9.7165,9.6592,9.6936,9.8732,9.919,9.9479,9.9681,9.8678,9.83,9.8602,9.6957,9.616,9.6249,9.401,9.2985,9.3023,9.2328,9.1823,9.1442,9.1348,9.0517,8.9332,8.9818,8.9752,8.9409,9.0239,8.9978,8.9162,8.9571,8.9087,8.8036,8.7313,8.6719,8.6089,8.467,8.4192,8.4153,8.4037,8.3998,8.3998,8.3998,8.3998,8.3998,8.3998,8.366,8.3322,8.3322,8.2696,8.2208,8.2584,8.2095,8.1582,8.1582,8.1708,8.1908,8.2247,8.1693,8.12,8.1099,8.0785,8.0219,7.925,7.8843,7.8396,7.7907,7.8426,7.8258,7.6938,7.6787,7.6286,7.5068,7.5124,7.5135,7.4966,7.4447,7.4682,7.5766,7.4265,7.4136,7.5415,7.4136,7.372,7.4164,7.372,7.3324,9.3393,9.6492,9.8507,10.0204,9.7502,9.3012,8.7481,8.2606,7.6514,6.6787,6.1467,5.7763,5.5105,5.6629,6.0795,6.8579,7.491,8.2411,9.2602,9.3308,9.4271,9.8158,9.7891,9.7394,9.7394,9.7394,9.8006,9.9458,9.8197,9.77,9.8376,9.9152,9.9458,9.9228,9.9916,9.9878,9.9075,9.7509,9.6401,9.5751,9.4834,9.3955,9.3115,9.3115,9.258,9.1625,9.1013,9.0277,8.9485,8.9485,8.9485,8.9561,9.0162,9.043,9.0392,9.0305,9.023,8.9991,8.8438,8.7726,8.7198,8.5297,8.4563,8.4417,8.4179,8.4102,8.4102,8.4102,8.4102,8.4102,8.4102,8.4102,8.4102,8.4102,8.3588,8.325,8.3951,8.3024,8.2022,8.2022,8.2245,8.2628,8.3308,8.2956,8.2789,8.3472,8.2903,8.241,8.241,8.0931,7.9898,7.9898,8.0079,7.986,7.9026,7.8836,7.8116,7.6524,7.6335,7.6249,7.6249,7.5491,7.5804,7.7358,7.588,7.5453,7.6249,7.5484,7.5087,7.5087,7.5003,7.4666,9.8423,10.021,10.0606,9.9555,9.6703,9.2318,8.519,7.8233,7.086,6.2265,5.7137,5.3218,4.9976,5.4776,6.1889,7.0133,7.7539,8.6001,9.6828,9.757,9.8093,10.0898,10.0489,9.9954,9.9954,9.9954,10.0107,10.0413,10.0107,9.9992,10.0183,10.0298,9.9763,9.8376,9.8453,9.8158,9.7356,9.6324,9.6095,9.6668,9.514,9.3955,9.3115,9.3115,9.2274,9.085,9.1357,0.0,9.0353,9.0353,9.0353,9.0315,8.9752,8.9523,8.9426,8.8655,8.8739,8.9097,8.8216,8.7808,8.736,8.5516,8.4897,8.4781,8.4772,8.4722,8.4722,8.4722,8.4722,8.4722,8.4722,8.4722,8.4722,8.4722,8.4647,8.4571,8.4722,8.4507,8.4318,8.4318,8.4353,8.4452,8.4566,8.393,8.3434,8.3585,8.2903,8.241,8.241,8.2111,8.1888,8.1888,8.1933,8.1614,8.0731,8.0049,7.9253,7.823,7.7548,7.7169,7.7169,7.6335,7.6373,7.7396,7.6411,7.6335,7.7169,7.647,7.6141,7.6122,7.5559,7.5277,10.0486,10.158,10.1597,9.9592,9.4978,8.8449,7.9254,7.1693,6.3974,5.4792,5.1291,4.9235,4.7197,5.2976,5.9862,6.5148,7.2714,8.1707,9.2682,9.4206,9.6122,10.128,10.1509,10.1089,10.0604,10.0604,10.0604,10.0604,10.0604,10.0604,10.0604,10.0183,9.961,9.8808,9.7929,9.7498,9.7498,9.6248,9.6019,9.6898,9.5637,9.4338,9.3115,9.3573,9.2847,9.1281,9.2121,9.1778,9.0631,9.1114,9.0791,9.0036,9.0125,9.0145,9.0069,8.9636,8.9659,8.9717,8.8481,8.7971,8.7627,8.6365,8.554,8.5044,8.5044,8.4992,8.4889,8.4889,8.4889,8.4889,8.4889,8.4889,8.4924,8.5011,8.5143,8.523,8.523,8.5132,8.5044,8.5044,8.4981,8.4889,8.4889,8.456,8.4294,8.4294,8.3953,8.3688,8.3688,8.3688,8.3385,8.2486,8.241,8.2221,8.1804,8.1008,8.0363,7.9936,7.914,7.8738,7.8863,7.8028,7.8002,7.8997,7.7741,7.7703,7.8997,7.7789,7.7646,7.8504,7.7748,7.7197,10.1383,10.2182,10.1978,9.9372,9.2999,8.4505,7.3563,6.5851,5.831,4.8856,4.6735,4.6471,4.5975,5.1032,5.6508,6.0252,6.6869,7.5591,8.7216,8.9728,9.3164,10.0718,10.1776,10.1585,10.0898,10.0909,10.0795,10.0604,10.0604,10.0604,10.0604,9.984,9.9305,9.9114,9.7662,9.7127,9.7574,9.6248,9.6019,9.6898,9.6019,9.4911,9.365,9.3994,9.3382,9.2083,9.2427,9.1941,9.0941,9.1482,9.0959,8.984,9.0417,9.0762,9.0867,9.0465,9.0473,9.049,8.9026,8.8288,8.7961,8.7398,8.6322,8.5283,8.5484,8.5317,8.5011,8.5011,8.5011,8.5011,8.5011,8.5011,8.5055,8.5241,8.538,8.5501,8.5501,8.537,8.5245,8.5245,8.5143,8.4988,8.4981,8.4969,8.4958,8.4901,8.4889,8.4889,8.4889,8.4889,8.4408,8.3093,8.2941,8.2941,8.2941,8.1993,8.1463,8.1603,8.0694,8.0233,8.0451,7.9814,7.9761,8.0506,7.9216,7.9178,8.0506,7.8976,7.9032,8.0532,7.9536,7.8858,10.1989,10.2916,10.2211,9.8136,9.1374,8.2693,7.1098,6.3215,5.6169,4.8476,4.6278,4.5936,4.6658,4.8577,5.2661,6.0527,6.439,7.1229,8.5169,8.8516,9.2321,9.9851,10.1394,10.1891,10.1776,10.1776,10.1521,10.0718,10.0604,10.0604,10.0604,9.984,9.9037,9.8223,9.7356,9.6554,9.5828,9.5675,9.6019,9.6898,9.6019,9.5522,9.5331,9.3879,9.3115,9.2886,9.1461,9.1219,0.0,9.1092,9.0808,9.0704,8.9995,9.0187,9.0704,8.9036,8.9418,9.0576,8.9755,8.8941,8.8308,8.8451,8.7148,8.5634,8.6408,8.6083,8.5441,8.5441,8.5441,8.5441,8.5441,8.5441,8.5451,8.5471,8.5491,8.5501,8.5501,8.5491,8.5471,8.5471,8.5461,8.538,8.5219,8.5176,8.5111,8.4924,8.4889,8.4889,8.4889,8.4889,8.4851,8.4711,8.4662,8.4662,8.4662,8.3195,8.26,8.332,8.188,8.1068,8.1289,8.1223,8.0943,8.0506,8.0353,8.0353,8.0506,7.9722,7.9838,8.0737,7.9244,7.8939,10.0598,10.2304,10.1311,9.7142,8.9287,7.9901,6.9651,6.0942,5.3344,4.7337,4.5821,4.5706,4.6052,4.7086,4.9649,5.5028,5.6691,6.1633,7.3935,7.7037,8.2183,9.3332,9.5856,9.8051,10.1597,10.1394,10.0986,10.0604,10.0183,9.9878,9.9878,9.9075,9.8235,9.7394,9.6554,9.5942,9.5598,9.5598,9.5751,9.6095,9.5751,9.5331,9.4872,9.4185,9.3879,9.3841,9.3228,9.286,0.0,9.2535,9.1846,9.0934,9.0691,9.0786,9.0969,9.028,9.0415,9.0885,9.0077,8.9557,8.9297,8.9376,8.8537,8.7357,8.7083,8.6996,8.6897,8.6438,8.6275,8.6161,8.5626,8.5599,8.5695,8.5695,8.5788,8.587,8.587,8.6162,8.6308,8.5772,8.602,8.6103,8.5467,8.538,8.5349,8.5256,8.5245,8.5245,8.5245,8.5245,8.5245,8.5245,8.5033,8.4889,8.4889,8.3802,8.33,8.3737,8.2694,8.2215,8.2512,8.2024,8.1695,8.1581,8.112,8.0852,8.0852,8.0073,8.0144,8.0959,7.9792,7.9477,9.65,9.959,9.9761,9.6111,8.7472,7.7487,6.851,5.9313,5.1347,4.6577,4.5594,4.5594,4.5594,4.6086,4.7543,5.0659,5.1744,5.578,6.6022,6.951,7.5269,8.6767,8.9829,9.3204,9.8777,10.0119,10.0604,10.0604,9.984,9.9266,9.9037,9.8197,9.7498,9.6936,9.6057,9.5598,9.5598,9.5598,9.5713,9.5981,9.5713,9.5446,9.5102,9.4376,9.4157,9.4381,9.3663,9.32,0.0,9.2843,9.2112,9.1073,9.1145,9.1047,9.0816,9.0816,9.0816,9.074,9.0124,8.9893,8.9893,8.9893,8.9517,8.8923,8.8168,8.7886,8.7696,8.716,8.716,8.7083,8.5963,8.6181,8.6519,8.6011,8.6385,8.6786,8.6555,8.6876,8.7018,8.6395,8.6641,8.6748,8.6078,8.5982,8.5962,8.5903,8.5664,8.5501,8.5501,8.5501,8.5501,8.5501,8.5262,8.5066,8.5066,8.4052,8.3709,8.4314,8.3382,8.3056,8.3621,8.3055,8.2719,8.2708,8.2131,8.1708,8.1439,8.1093,8.1093,8.1439,8.1093,8.0669,8.9197,9.4392,9.7536,9.4938,8.6172,7.5919,6.7522,5.8444,5.0622,4.6462,4.5594,4.5594,4.5594,4.5594,4.6436,4.9009,5.1548,5.6126,6.4538,6.9361,7.4505,8.1286,8.4343,8.782,9.2822,9.7707,10.0604,10.0604,9.984,9.9037,9.8147,9.7356,9.6898,9.6898,9.6057,9.5598,9.5598,9.5598,9.6019,9.6898,9.6019,9.6057,9.6783,9.4261,9.3627,9.4373,9.1819,9.1337,0.0,9.1373,9.1082,9.1201,9.121,9.0663,8.9893,8.9893,8.9893,8.9893,8.9893,8.9893,8.9893,8.9893,8.9893,8.9893,8.9855,8.8701,8.7401,8.7401,8.8017,8.8286,8.6547,8.7363,8.8209,8.6508,8.7401,8.8449,8.7555,8.7401,8.7401,8.7401,8.7401,8.7342,8.7118,8.7081,8.7016,8.6812,8.6046,8.5501,8.5501,8.5501,8.5501,8.5501,8.5501,8.5501,8.5501,8.3983,8.3715,8.5387,8.3907,8.3467,8.4455,8.4503,8.4208,8.3593,8.3563,8.3139,8.2285,8.3139,8.3139,8.2324,8.3178,8.2678,7.7977,8.1533,8.273,7.9009,7.2531,6.5587,6.0009,5.3404,4.7904,4.597,4.5128,4.4898,4.5475,4.5594,4.7206,5.2087,5.3549,5.6231,6.236,6.8789,7.5349,8.2035,9.1618,9.7844,9.8242,9.9698,10.0604,10.0604,9.9305,9.8388,9.8109,9.6783,9.6019,9.6019,9.5751,9.5598,9.5598,9.5598,9.5751,9.6019,9.5713,9.5751,9.5992,9.4643,9.4237,9.4422,9.3196,9.2536,9.2304,9.21,9.1683,9.121,9.121,9.0663,8.997,9.0547,9.0393,8.9893,8.9893,9.0278,9.0594,8.944,8.944,8.9816,8.9248,8.9517,8.9863,8.9278,8.8055,8.694,8.6978,8.6978,8.694,8.6978,8.7401,8.7902,8.8218,8.8709,8.894,8.841,8.8748,8.8722,8.7517,8.7786,8.776,8.6508,8.6576,8.6576,8.5991,8.5914,8.5914,8.5914,8.5914,8.5806,8.5531,8.5015,8.4997,8.5666,8.5225,8.4848,8.4763,8.4771,8.442,8.364,8.3601,8.3447,8.3178,8.3486,8.3139,8.2324,8.3178,8.2708,6.7472,7.1796,7.3381,7.0777,6.5242,5.9625,5.6331,5.083,4.624,4.5706,4.5167,4.4975,4.5513,4.5594,4.6937,5.0971,5.2433,5.4928,6.0323,6.756,7.5272,8.3222,9.3204,9.9121,9.8357,9.971,10.0718,10.11,9.9217,9.8109,9.8109,9.6515,9.5598,9.5598,9.5598,9.5598,9.5598,9.5598,9.5598,9.5598,9.5598,9.5429,9.5167,9.4352,9.3889,9.3636,9.292,9.2352,0.0,9.1991,9.171,9.1171,9.0825,9.0393,8.997,9.0509,9.0355,8.9932,9.0278,9.0509,9.0586,8.9863,8.9748,8.9855,8.971,9.0133,9.0509,8.971,8.8748,8.8017,8.7902,8.7979,8.8017,8.7902,8.8363,8.8902,8.9094,8.9556,8.9739,8.9248,8.9556,8.9586,8.8517,8.8786,8.8671,8.7286,8.7248,8.7094,8.6209,8.6401,8.6594,8.6594,8.6594,8.65,8.622,8.5627,8.5434,8.587,8.5598,8.542,8.5305,8.5338,8.5093,8.4555,8.4555,8.4401,8.4093,8.4093,8.3824,8.3285,8.3478,8.3024,0.0,6.3907,6.7575,6.746,6.2189,5.6638,5.5071,4.9836,0.0,4.5321,4.5359,4.5479,4.5594,4.5594,4.6013,4.7312,4.951,5.31,5.901,6.6814,7.5593,8.5512,9.0949,9.4112,9.4696,9.828,10.0909,10.1712,9.9484,9.8071,9.8032,9.6477,9.5598,9.5598,9.5609,9.5621,9.5621,9.5621,9.5621,9.5632,9.5555,9.5178,9.4471,9.3562,9.2841,9.2257,9.1373,9.1082,9.121,9.1133,9.1133,9.1018,9.0201,8.9855,8.9816,8.9893,8.9855,8.9932,9.0671,9.0441,8.9932,9.071,9.0432,8.9932,9.0701,9.0393,8.9663,8.9056,8.9902,9.0671,8.9171,8.9902,9.0633,8.9064,8.994,9.0902,9.0086,8.9932,8.997,8.997,8.997,8.997,8.9893,8.9932,8.971,8.8833,8.8055,8.7248,8.6401,8.6978,8.7478,8.7478,8.744,8.7401,8.7401,8.594,8.5291,8.5945,8.5351,8.5283,8.5898,8.6052,8.6055,8.6017,8.6055,8.5747,8.497,8.4931,8.4854,8.4786,8.4055,8.3601,4.4695,0.0,5.0868,4.9595,4.7919,4.6511,0.0,4.4299,4.2696,4.2696,4.3239,4.409,4.5359,4.5594,4.736,5.2741,5.4131,5.6791,6.3322,7.5699,8.6844,9.4326,9.8548,9.9912,9.7493,9.9278,10.0413,9.9992,9.8808,9.7841,9.7203,9.6172,9.5598,9.5598,9.5686,9.5729,9.5729,9.5729,9.5772,9.5828,9.5215,9.4804,9.4594,9.3188,9.244,9.2266,9.1485,9.1183,9.1171,9.047,9.0201,9.0201,8.997,8.9509,8.9056,8.9663,8.9517,8.8902,8.844,8.8594,8.8902,8.844,8.8594,8.8902,8.844,8.8632,8.921,9.0287,8.9979,8.9325,8.9556,8.944,8.918,8.8795,8.9479,9.0163,8.9932,9.0432,9.0902,9.0902,9.0902,9.0663,9.0009,9.0432,9.0402,8.891,8.9056,8.9017,8.8171,8.8256,8.841,8.841,8.7786,8.7401,8.7401,8.644,8.5893,8.606,8.5923,8.5615,8.5176,8.5769,8.5824,8.5201,8.5786,8.6017,8.5824,8.5201,8.4555,8.3909,8.4362,8.3555,3.9791,4.2638,4.5225,4.3974,4.3628,4.3705,4.4158,4.297,4.2004,4.2773,4.3316,4.4047,4.5359,4.5936,4.7778,5.2631,5.5011,5.9977,7.0573,8.0422,8.9428,9.727,9.9488,10.0394,10.0413,10.0183,10.0016,9.9985,9.8532,9.7418,9.7052,9.6221,9.5723,9.5723,9.5431,9.548,9.581,9.548,9.5302,9.5325,9.4481,9.3926,9.3563,9.2689,9.2131,9.1792,9.1376,9.121,9.1171,9.0701,9.0509,9.047,9.0047,8.9902,8.9863,8.9893,8.9624,8.9171,8.8709,8.8863,8.9171,8.8709,8.8632,8.8679,8.8594,8.8325,8.8363,8.9671,8.9671,8.9363,8.9778,8.9594,8.9363,8.9748,9.0171,9.0509,9.0509,9.0855,9.121,9.121,9.0902,9.0586,9.0509,9.0547,9.0278,8.9402,8.9624,8.9624,8.8795,8.9017,8.9248,8.9248,8.8479,8.7987,8.7987,8.7209,8.65,8.6073,8.6069,8.5885,8.542,8.5838,8.5901,8.5478,8.5901,8.6094,8.6094,8.5662,8.5016,8.4209,8.467,8.3939,3.9531,4.2923,4.5788,4.428,4.4059,4.4371,4.5081,4.3547,4.235,4.3662,4.4239,4.4791,4.583,4.7067,4.8761,5.1453,5.628,6.4584,7.8758,8.3937,8.9247,9.7287,9.7976,9.8926,10.1891,10.0501,9.9629,10.0206,9.8211,9.7023,9.7012,9.6294,9.5834,9.5719,9.5077,9.496,9.548,9.4845,9.455,9.4531,9.3677,9.292,9.2323,9.2199,9.1783,9.121,9.121,0.0,9.1018,9.1018,9.0941,9.0748,9.0124,9.0355,9.0902,9.0009,8.9701,8.9663,8.9393,8.947,8.9701,8.9547,8.9133,8.8795,8.9355,8.8632,8.7709,8.8333,8.9094,8.9739,8.9855,8.9893,9.0124,9.097,9.121,9.121,9.121,9.1095,9.1047,9.1171,9.0393,8.997,9.0864,9.0393,8.9893,8.9893,9.0009,8.9855,8.9171,8.9671,9.0086,9.0086,8.9363,8.8863,8.8863,8.8094,8.7261,8.6453,8.6321,8.6214,8.6022,8.6052,8.6094,8.6094,8.6094,8.6094,8.6094,8.5978,8.5555,8.4893,8.4893,8.4362,4.1745,4.5912,4.8421,4.3419,4.3227,4.4154,4.3624,4.3162,4.2777,4.2273,4.3893,4.592,4.7592,5.0422,5.3553,5.6784,6.5436,7.5063,8.46,9.0546,9.4954,9.7788,9.9928,10.0198,9.7905,9.8766,9.8921,9.7531,9.7259,9.6838,9.614,9.5987,9.5604,9.4903,9.4839,9.4523,9.3928,9.3832,9.3812,9.3819,9.3011,9.2597,9.2462,9.1722,9.1308,9.121,0.0,9.0778,9.0086,9.0086,8.971,8.9141,8.9701,8.997,9.0009,8.9171,8.8863,8.8671,8.7209,8.7632,8.8748,8.8017,8.8209,8.8603,8.7979,8.8132,8.8372,8.7786,8.8218,8.9056,8.9701,8.9893,9.0124,9.097,9.121,9.121,9.121,9.0624,9.0316,9.1056,8.994,8.9133,8.997,8.997,8.9893,8.9893,9.0509,9.0979,9.0825,9.0941,9.1018,9.1018,9.0239,8.9701,8.9701,8.8979,8.844,8.8278,8.7594,8.6855,8.6107,8.6085,8.6094,8.6094,8.6094,8.6094,8.6094,8.5431,8.5008,8.4893,8.4893,8.4055,4.1301,4.431,4.6901,4.6056,4.8091,4.9595,4.6988,4.6758,4.6993,4.6646,4.7918,4.9503,5.0813,5.4618,5.9964,6.7351,7.4196,8.0733,8.689,9.0415,9.3635,9.709,9.7684,9.8109,9.8858,9.8406,9.7795,9.7159,9.6381,9.5972,9.6107,9.5233,9.4772,9.4849,9.4003,9.3368,9.3022,9.2523,9.255,9.3018,9.221,9.1787,9.1787,9.1364,9.121,9.121,0.0,9.097,9.0547,9.0086,8.9663,8.9325,8.9286,8.9248,8.9133,8.8325,8.7987,8.7872,8.7094,8.7632,8.8709,8.8696,8.8986,8.9131,8.8224,8.7905,8.77,8.6803,8.7901,8.944,8.9816,8.9893,9.0124,9.097,9.121,9.121,9.121,9.0902,9.0701,9.1133,9.021,8.9633,9.047,9.0201,9.0047,9.0509,9.0941,9.121,9.121,9.121,9.121,9.121,9.0432,8.9893,8.9893,8.9547,8.894,8.8064,8.7632,8.7017,8.6132,8.6094,8.6094,8.6094,8.6094,8.6094,8.6094,8.5747,8.5547,8.5547,8.5547,8.4901,4.1281,4.3385,4.605,4.8423,5.1229,5.3094,5.1858,5.1481,5.1694,5.2752,5.3725,5.4589,5.5118,5.9861,6.6785,7.6248,8.1404,8.5556,8.9506,9.0933,9.3075,9.7096,9.6167,9.6412,9.9571,9.8068,9.6855,9.6768,9.556,9.5089,9.5663,9.4441,9.3912,9.4412,9.3172,9.2402,9.221,9.1518,9.1556,9.2172,9.1518,9.1095,9.0902,9.0902,9.0787,9.0594,9.0594,9.0517,9.0287,8.9825,8.9509,8.9278,8.8863,8.8564,8.8295,8.7632,8.7286,8.7094,8.7094,8.7671,8.847,8.9028,8.9184,8.906,8.8325,8.7682,8.7027,8.6321,8.7784,8.9572,8.9589,8.9722,9.0163,9.1248,9.1518,9.1518,9.1518,9.1171,9.0979,9.1171,9.0325,8.9893,9.074,9.0355,9.0124,9.0778,9.1056,9.121,9.121,9.121,9.121,9.121,9.0586,9.0201,9.0201,9.0201,8.9547,8.8094,8.7979,8.7517,8.644,8.6401,8.6324,8.6094,8.6094,8.6094,8.6094,8.6286,8.6401,8.6401,8.6594,8.617,4.3585,4.6425,4.8797,4.8236,4.7804,4.9446,5.6885,5.6213,5.5148,5.9157,6.0641,6.1087,6.0724,6.667,7.3488,7.8978,8.5626,9.1283,9.4766,9.6555,9.7902,9.9087,9.8388,9.7612,9.7138,9.7133,9.6503,9.4913,9.4907,9.4672,9.3941,9.3749,9.3403,9.271,9.2556,9.2095,9.1287,9.1248,9.1248,9.1287,9.1248,9.0787,8.997,8.997,8.9594,8.8872,8.8872,8.8402,8.7709,8.8487,8.8325,8.7632,8.841,8.8218,8.7478,8.7401,8.6901,8.6209,8.6209,8.6748,8.7462,8.7405,8.737,8.737,8.7323,8.7192,8.7108,8.7113,8.7777,8.8517,8.8599,8.9255,9.0316,9.2018,9.2402,9.2402,9.2402,9.1133,9.0239,9.1047,8.9902,8.9017,8.9855,8.9932,8.9932,8.997,9.0663,9.121,9.121,9.121,9.121,9.121,9.1133,9.1133,9.1133,9.1133,9.071,8.9778,8.9701,8.897,8.7363,8.7325,8.694,8.6132,8.6094,8.6094,8.6094,8.6901,8.7325,8.7325,8.8141,8.7632,4.1743,4.5537,4.9478,5.0174,5.1347,5.3673,5.8872,6.0659,6.248,6.6739,6.8332,6.9162,6.9755,7.3745,7.8451,8.3014,8.898,9.3855,9.6161,9.7417,9.8258,9.868,9.786,9.7052,9.6424,9.589,9.5145,9.4129,9.3674,9.3518,9.3672,9.271,9.2249,9.2479,9.1979,9.1518,9.121,9.0663,9.0393,9.0393,9.0393,8.9979,8.9133,8.9133,8.8979,8.8718,8.8718,8.8526,8.8218,8.8564,8.8179,8.7363,8.7171,8.6863,8.6594,8.6594,8.6363,8.6094,8.6094,8.6671,8.7385,8.7252,8.7562,8.7899,8.7298,8.7099,8.6995,8.644,8.6909,8.7866,8.9012,8.9557,9.0139,9.1385,9.171,9.171,9.171,9.1171,9.0816,9.1133,9.071,9.0364,9.0671,9.071,9.071,9.071,9.097,9.121,9.121,9.121,9.121,9.121,9.121,9.121,9.121,9.121,9.1056,9.074,9.0201,8.9393,8.8256,8.8218,8.8064,8.7709,8.7709,8.744,8.6901,8.7786,8.794,8.7401,8.8295,8.8372,4.0554,4.3863,4.7852,5.0054,5.313,5.7093,6.2783,6.5219,6.7951,7.3792,7.4528,7.466,7.6252,7.8495,8.1477,8.5697,9.0915,9.5025,9.6679,9.7149,9.7511,9.7867,9.6839,9.6034,9.5713,9.4839,9.4024,9.3355,9.2826,9.2633,9.2903,9.1825,9.1479,9.2056,9.1248,9.0778,9.0778,8.994,8.9402,8.9124,8.9124,8.8825,8.8295,8.8295,8.8141,8.7872,8.7872,8.7872,8.7872,8.7872,8.7517,8.6978,8.6632,8.6324,8.6132,8.6401,8.6324,8.6094,8.6094,8.6478,8.6962,8.6867,8.7225,8.76,8.6953,8.6716,8.6564,8.5971,8.6374,8.7398,8.8967,8.978,9.0355,9.0994,9.1376,9.1556,9.1248,9.121,9.121,9.121,9.121,9.121,9.121,9.121,9.121,9.121,9.121,9.121,9.121,9.121,9.121,9.121,9.121,9.121,9.121,9.121,9.121,9.121,9.0624,8.994,8.9094,8.9094,8.8949,8.8718,8.8718,8.841,8.7825,8.8671,8.8786,8.8209,8.9094,8.9325,4.0743,4.182,4.3949,4.7261,5.1929,5.8533,6.9391,6.995,7.0793,8.004,7.883,7.6843,7.9295,8.0384,8.2324,8.6522,9.122,9.4987,9.663,9.6271,9.6078,9.6871,9.5637,9.4713,9.4782,9.4052,9.3293,9.2547,9.2479,9.2095,9.1248,9.121,9.1171,9.1171,9.0355,8.9893,8.9893,8.9094,8.8256,8.7401,8.7401,8.7401,8.7401,8.7401,8.6901,8.6094,8.6094,8.6094,8.6094,8.6094,8.6132,8.6209,8.7055,8.6863,8.6209,8.7094,8.6863,8.6132,8.6132,8.6132,8.6115,8.6031,8.6005,8.6005,8.6005,8.5896,8.5834,8.5979,8.6438,8.7141,8.8126,8.9687,9.098,9.098,9.1754,9.2249,9.1402,9.121,9.121,9.121,9.121,9.121,9.121,9.121,9.121,9.121,9.121,9.121,9.121,9.121,9.121,9.121,9.121,9.121,9.121,9.121,9.121,9.121,9.121,9.0816,8.9932,8.9893,8.9556,8.8756,8.8718,8.8718,8.8718,8.9517,8.9893,8.9932,9.0778,9.074,4.0743,4.475,4.9826,5.2653,5.8885,6.6396,7.4426,7.4732,7.5642,8.3687,8.3466,8.1951,8.2269,8.3815,8.554,8.6979,9.0732,9.3901,9.5047,9.5549,9.548,9.4713,9.4686,9.436,9.3271,9.2973,9.2482,9.1672,9.1595,9.121,9.0316,9.0278,9.0017,8.944,8.9171,8.9056,8.9056,8.8209,8.7671,8.7401,8.6786,8.6478,8.6478,8.6478,8.6324,8.6094,8.6094,8.644,8.7017,8.7017,8.7363,8.7902,8.7555,8.7248,8.7132,8.7987,8.8132,8.794,8.794,8.7517,8.7017,8.6992,8.6983,8.6868,8.6244,8.6406,8.6682,8.615,8.6944,8.804,8.8337,8.9687,9.098,9.098,9.1293,9.1518,9.1248,9.121,9.121,9.121,9.121,9.121,9.121,9.121,9.121,9.121,9.121,9.121,9.121,9.121,9.121,9.121,9.121,9.121,9.121,9.121,9.121,9.121,9.121,9.1095,9.0825,9.0816,9.071,9.0441,9.0441,9.0171,8.9556,9.0393,9.0509,8.9932,9.0778,9.074,4.2671,4.6796,5.2061,5.7646,6.38,7.063,7.8706,8.0791,8.2349,8.6849,8.6467,8.5504,8.6151,8.6537,8.7301,8.8797,9.1056,9.2971,9.3876,9.4543,9.4606,9.3697,9.3783,9.3531,9.2595,9.2172,9.1787,9.1248,9.0902,9.0432,8.9932,8.9594,8.921,8.8718,8.8372,8.8179,8.8179,8.7325,8.6863,8.6863,8.6363,8.6094,8.6094,8.6478,8.6824,8.7132,8.7132,8.7209,8.7401,8.7401,8.7517,8.7632,8.7478,8.7401,8.7517,8.8372,8.8718,8.8718,8.8718,8.8141,8.7401,8.7401,8.7401,8.7248,8.6363,8.6667,8.7124,8.6287,8.6939,8.7903,8.7903,8.8958,9.0128,9.0817,9.11,9.121,9.121,9.121,9.121,9.121,9.121,9.121,9.121,9.121,9.121,9.121,9.121,9.121,9.121,9.121,9.121,9.121,9.121,9.121,9.121,9.121,9.121,9.121,9.121,9.121,9.121,9.121,9.121,9.121,9.121,9.0941,9.0432,9.0941,9.0932,9.0432,9.0979,9.0932,4.5701,4.836,5.2346,6.2296,6.7852,7.3352,8.2627,8.7154,8.9409,8.9409,8.8252,8.7946,9.0277,8.8749,8.8176,9.1281,9.191,9.2251,9.2988,9.3312,9.3438,9.3371,9.281,9.2364,9.2287,9.1556,9.1056,9.0979,9.0239,8.9739,8.9663,8.8979,8.8564,8.8487,8.7671,8.7286,8.7286,8.6517,8.6094,8.6094,8.6094,8.6132,8.6247,8.6978,8.7748,8.8603,8.8756,8.8325,8.7517,8.7517,8.7017,8.6286,8.7094,8.744,8.7632,8.8479,8.8872,8.891,8.8833,8.8248,8.7517,8.744,8.7401,8.7248,8.6363,8.6709,8.7209,8.6363,8.6642,8.7234,8.7234,8.7824,8.8815,9.0404,9.0947,9.1086,9.1086,9.1133,9.121,9.121,9.121,9.121,9.121,9.121,9.121,9.121,9.121,9.121,9.121,9.121,9.121,9.121,9.121,9.121,9.121,9.121,9.121,9.121,9.121,9.121,9.121,9.121,9.121,9.121,9.121,9.121,9.121,9.121,9.121,9.121,9.121,9.1171,4.6186,5.0867,5.7373,6.6789,7.6156,8.3954,8.7422,8.9322,9.0315,9.0315,9.0555,9.0899,9.1434,9.0583,9.0239,9.1586,9.191,9.209,9.2285,9.2488,9.2361,9.1781,9.1577,9.121,9.0509,9.0278,8.994,8.9286,8.9056,8.8671,8.7979,8.7786,8.7363,8.6671,8.6478,8.6363,8.6363,8.6209,8.6094,8.6094,8.6094,8.6478,8.7094,8.6594,8.6863,8.7748,8.9056,8.9171,8.841,8.841,8.7902,8.7132,8.7325,8.7833,8.8526,8.9325,9.0056,9.0556,8.9902,8.9094,8.8295,8.7632,8.7401,8.7248,8.6363,8.6709,8.7209,8.6363,8.6692,8.7376,8.7376,8.7974,8.8735,8.9098,8.964,9.0122,9.0192,9.0701,9.121,9.121,9.121,9.121,9.121,9.121,9.121,9.121,9.121,9.121,9.121,9.121,9.121,9.121,9.121,9.121,9.121,9.121,9.121,9.121,9.121,9.121,9.121,9.121,9.121,9.121,9.121,9.121,9.121,9.121,9.121,9.121,9.121,9.0825,4.8532,5.3757,6.0856,7.2914,8.1709,8.7766,8.9027,8.9971,9.0812,9.1614,9.2465,9.2809,9.193,9.216,9.2034,9.0784,9.1031,9.1122,9.0339,9.0752,9.0816,8.9986,9.0293,9.0178,8.9294,8.9217,8.9063,8.8649,8.8269,8.7872,8.7401,8.6632,8.5978,8.5547,8.5132,8.5093,8.5517,8.5093,8.5093,8.5517,8.5093,8.5363,8.6247,8.7017,8.7786,8.8632,8.9094,8.9094,8.8679,8.8256,8.7325,8.6247,8.6632,8.7055,8.7555,8.8402,8.9299,9.0029,8.9566,8.8921,8.8167,8.7664,8.7486,8.7316,8.6388,8.6709,8.7209,8.6363,8.644,8.6786,8.6786,8.7107,8.7427,8.7432,8.8406,8.9388,8.9808,9.0239,9.0701,9.1133,9.121,9.121,9.121,9.121,9.121,9.121,9.121,9.121,9.121,9.121,9.121,9.121,9.121,9.121,9.121,9.121,9.121,9.121,9.121,9.121,9.121,9.121,9.121,9.121,9.121,9.121,9.121,9.121,9.121,9.121,9.121,9.0979,5.0111,5.6395,6.4315,7.7973,8.4556,8.788,8.8874,8.9763,9.0843,9.2372,9.3355,9.3552,9.2161,9.2722,9.2493,8.9668,8.9752,8.9702,8.8384,8.8864,8.9128,8.8552,8.8974,8.9051,8.8312,8.8274,8.8197,8.8043,8.7363,8.6923,8.6923,8.5508,8.467,8.467,8.3978,8.3939,8.467,8.3947,8.3947,8.467,8.3939,8.4132,8.517,8.6978,8.8402,8.9432,8.8902,8.8526,8.8218,8.7478,8.6209,8.4747,8.5555,8.5978,8.6209,8.7094,8.8133,8.9085,8.8776,8.8357,8.794,8.7502,8.7364,8.7202,8.6366,8.6594,8.7017,8.6286,8.6094,8.6094,8.6094,8.6073,8.6039,8.6077,8.7209,8.8479,8.9278,8.9701,9.0124,9.0825,9.1095,9.121,9.121,9.121,9.121,9.121,9.121,9.121,9.121,9.121,9.121,9.121,9.121,9.121,9.121,9.121,9.121,9.121,9.121,9.121,9.121,9.121,9.121,9.121,9.121,9.121,9.121,9.121,9.121,9.121,9.121,9.121,4.667,5.7576,6.9833,7.7658,8.276,8.6275,8.788,8.8983,8.9896,9.0842,9.1611,9.2188,9.2378,9.0798,8.9315,8.8836,8.8351,8.8078,8.8164,8.7763,8.7684,8.8345,8.7837,8.7415,8.73,8.73,8.6984,8.6217,8.5462,8.5053,8.5053,8.4245,8.3755,8.3755,8.3678,8.3678,8.3755,8.3678,8.3678,8.3755,8.3678,8.4401,8.5901,8.4786,8.5555,8.7786,8.841,8.7825,8.644,8.6324,8.5286,8.387,8.4709,8.547,8.6209,8.7094,8.8518,8.9818,8.8313,8.8212,8.8505,8.697,8.64,8.6272,8.614,8.617,8.6247,8.6132,8.6094,8.6094,8.6094,8.6085,8.6077,8.6085,8.6286,8.6671,8.7555,8.8863,8.9932,9.0047,9.0663,9.121,9.121,9.121,9.121,9.121,9.121,9.121,9.121,9.121,9.121,9.121,9.121,9.121,9.121,9.121,9.121,9.121,9.121,9.121,9.121,9.121,9.121,9.121,9.121,9.121,9.121,9.121,9.121,9.121,9.121,9.121,5.147,5.9912,6.8686,7.7875,8.1841,8.4165,8.6823,8.7731,8.8372,8.9672,8.944,8.9439,9.0867,9.0251,8.9246,8.848,8.8267,8.8116,8.7802,8.774,8.7696,8.7581,8.7227,8.6853,8.6355,8.5848,8.5426,8.5043,8.4338,8.3956,8.3999,8.2773,8.2314,8.2862,8.1939,8.19,8.2862,8.2862,8.3139,8.3601,8.3601,8.4247,8.5401,8.467,8.544,8.7325,8.6294,8.594,8.6017,8.5093,8.3978,8.2947,8.3824,8.4709,8.547,8.5863,8.7162,8.8545,8.731,8.7215,8.7466,8.6599,8.6254,8.6215,8.6118,8.6094,8.6094,8.6094,8.6094,8.6094,8.6094,8.6478,8.6709,8.6209,8.6478,8.6786,8.6709,8.8017,8.9517,9.0432,9.0941,9.121,9.121,9.121,9.121,9.121,9.121,9.121,9.121,9.121,9.121,9.121,9.121,9.121,9.121,9.121,9.121,9.121,9.121,9.121,9.121,9.121,9.121,9.121,9.121,9.121,9.121,9.121,9.121,9.121,9.121,9.121,5.3086,5.8584,6.39,7.4058,7.8301,8.0891,8.4241,8.5638,8.6565,8.7549,8.712,8.6983,8.8281,8.8813,8.879,8.7776,8.7705,8.7547,8.7007,8.7253,8.7197,8.6355,8.6279,8.5973,8.5102,8.4634,8.4289,8.406,8.3587,8.3217,8.3095,8.1708,8.1228,8.1907,8.0769,8.0746,8.1977,8.2016,8.2562,8.3601,8.337,8.3824,8.4893,8.467,8.5363,8.6671,8.4978,8.4824,8.567,8.4217,8.3101,8.2362,8.3024,8.367,8.4286,8.4478,8.5745,8.7156,8.6037,8.6033,8.6496,8.6112,8.5968,8.5946,8.6049,8.6094,8.6094,8.6094,8.6094,8.6094,8.6094,8.6594,8.6901,8.6247,8.6594,8.7017,8.6824,8.7786,8.9218,9.0864,9.121,9.121,9.121,9.121,9.121,9.121,9.121,9.121,9.121,9.121,9.121,9.121,9.121,9.121,9.121,9.121,9.121,9.121,9.121,9.121,9.121,9.121,9.121,9.121,9.121,9.121,9.121,9.121,9.121,9.121,9.121,9.121,4.5835,5.0286,5.5547,6.3242,7.0018,7.5674,7.9036,8.2385,8.4544,8.3713,8.4857,8.5644,8.4341,8.5377,8.6374,8.6328,8.5667,8.5279,8.5556,8.5616,8.533,8.4528,8.4451,8.4107,8.3238,8.384,8.3954,8.3123,8.318,8.2843,8.2039,8.1295,8.0926,8.0973,8.1015,8.1054,8.117,8.117,8.1977,8.3601,8.2747,8.3247,8.4854,8.4055,8.417,8.5085,8.5709,8.5593,8.4901,8.3978,8.3101,8.2285,8.2362,8.2401,8.2554,8.337,8.4867,8.6206,8.4501,8.501,8.629,8.5419,8.5082,8.5102,8.5863,8.6094,8.6094,8.6094,8.6094,8.6094,8.6094,8.6132,8.617,8.6094,8.6132,8.6594,8.8218,8.8641,8.9218,9.0864,9.121,9.121,9.121,9.121,9.121,9.121,9.121,9.121,9.121,9.121,9.121,9.121,9.121,9.121,9.121,9.121,9.121,9.121,9.121,9.121,9.121,9.121,9.121,9.121,9.121,9.121,9.121,9.121,9.121,9.121,9.121,9.121,4.5559,4.7847,5.0818,5.8987,6.4907,6.9628,7.3053,7.7241,8.0461,8.0656,8.1247,8.1879,8.2406,8.3673,8.4729,8.4952,8.4988,8.5051,8.5083,8.5332,8.5206,8.4403,8.3802,8.3343,8.3037,8.2798,8.2569,8.2264,8.1766,8.1354,8.1064,8.0383,8.0284,8.0888,8.0507,8.0785,8.1862,8.1862,8.2439,8.3601,8.3293,8.3447,8.4055,8.3755,8.3755,8.4093,8.4362,8.4632,8.4824,8.3947,8.3101,8.2285,8.2285,8.2631,8.3101,8.2862,8.3902,8.5267,8.4073,8.4081,8.4658,8.4874,8.495,8.5047,8.5863,8.6094,8.6094,8.6094,8.6094,8.6094,8.6094,8.6517,8.694,8.694,8.694,8.7248,8.8449,8.8718,8.9218,9.0864,9.121,9.121,9.121,9.121,9.121,9.121,9.121,9.121,9.121,9.121,9.121,9.121,9.121,9.121,9.121,9.121,9.121,9.121,9.121,9.121,9.121,9.121,9.121,9.121,9.121,9.121,9.121,9.121,9.121,9.121,9.121,9.121,4.4047,4.5451,4.7644,5.4715,5.9269,6.3325,6.8128,7.2226,7.5518,7.7264,7.8332,7.9221,8.0017,8.1347,8.2662,8.3699,8.4133,8.4306,8.4257,8.4493,8.4365,8.3563,8.2951,8.2388,8.1815,8.1499,8.1117,8.0582,8.0277,8.0008,7.9757,7.9574,7.9807,8.0506,8.0061,8.0315,8.1439,8.1747,8.2324,8.3178,8.3178,8.3178,8.3178,8.3486,8.3447,8.3178,8.3486,8.4093,8.4824,8.3947,8.3439,8.3093,8.2516,8.2639,8.3062,8.2208,8.2785,8.3901,8.3054,8.2947,8.3255,8.3824,8.4247,8.4632,8.544,8.5901,8.6094,8.6094,8.6094,8.6094,8.6094,8.6748,8.7401,8.7401,8.7632,8.8055,8.8902,8.9094,8.9517,9.0941,9.121,9.121,9.121,9.121,9.121,9.121,9.121,9.121,9.121,9.121,9.121,9.121,9.121,9.121,9.121,9.121,9.121,9.121,9.121,9.121,9.121,9.121,9.121,9.121,9.121,9.121,9.121,9.121,9.121,9.121,9.121,9.121,0.0,0.0,0.0,4.9855,5.289,5.6813,6.425,6.7436,6.9771,7.327,7.6079,7.7692,7.6909,7.8117,8.0004,8.2445,8.2846,8.2884,8.2846,8.2884,8.2579,8.1767,8.169,8.1041,7.9407,7.998,7.9742,7.8137,7.8796,7.891,7.8061,7.8935,7.958,7.9777,7.9738,7.9738,7.9738,8.0592,8.14,8.217,8.2208,8.2247,8.2247,8.3139,8.3062,8.2324,8.3178,8.4016,8.4739,8.3986,8.414,8.4709,8.2986,8.2331,8.217,8.14,8.1593,8.2131,8.1362,8.1593,8.2285,8.2324,8.2909,8.3755,8.467,8.547,8.6094,8.6094,8.6094,8.6094,8.6094,8.6748,8.7363,8.7401,8.8064,8.8902,8.9739,8.9932,9.0201,9.1056,9.121,9.121,9.121,9.121,9.121,9.121,9.121,9.121,9.121,9.121,9.121,9.121,9.121,9.121,9.121,9.121,9.121,9.121,9.121,9.121,9.121,9.121,9.121,9.121,9.121,9.121,9.121,9.121,9.121,9.121,9.121,9.121,4.1367,0.0,0.0,0.0,0.0,0.0,5.4638,5.8463,6.2463,6.6122,6.7904,6.9916,7.3551,7.4609,7.5726,7.8206,7.9558,8.0095,7.9474,7.9942,8.0018,7.9169,7.9054,7.8863,7.8404,7.8557,7.8519,7.8013,7.8213,7.8252,7.8022,7.8399,7.8697,7.8861,7.8869,7.8869,7.8869,7.91,7.9331,7.9561,8.0208,8.0477,8.0516,8.14,8.167,8.1439,8.167,8.2247,8.3101,8.4165,8.4381,8.3988,8.3495,8.2532,8.14,8.117,8.1246,8.14,8.117,8.1246,8.1631,8.287,8.3409,8.387,8.5324,8.594,8.6094,8.6094,8.6094,8.6094,8.6094,8.6286,8.6632,8.7248,8.8064,8.8902,8.9739,9.0393,9.0893,9.1171,9.121,9.121,9.121,9.121,9.121,9.121,9.121,9.121,9.121,9.121,9.121,9.121,9.121,9.121,9.121,9.121,9.121,9.121,9.121,9.121,9.121,9.121,9.121,9.121,9.121,9.121,9.121,9.121,9.121,9.121,9.121,9.121,0.0,0.0,0.0,4.4273,0.0,0.0,5.1744,5.4557,5.7688,6.2199,6.4335,6.6337,6.9481,7.0937,7.2257,7.401,7.5676,7.7041,7.7879,7.8443,7.8557,7.8061,7.8022,7.787,7.7487,7.7449,7.7182,7.6485,7.6409,7.6597,7.7028,7.6824,7.7115,7.7977,7.7984,7.7984,7.7984,7.833,7.8484,7.8523,7.9015,7.9246,7.9285,8.0169,8.0362,8.0054,8.04,8.1039,8.1924,8.2971,8.3318,8.3133,8.3133,8.2294,8.1093,8.1093,8.1093,8.1093,8.1093,8.1323,8.1747,8.2747,8.3555,8.4324,8.5286,8.5816,8.6094,8.6094,8.6094,8.6094,8.6094,8.6363,8.6863,8.7748,8.8594,8.944,9.0239,9.0825,9.121,9.121,9.121,9.121,9.121,9.121,9.121,9.121,9.121,9.121,9.121,9.121,9.121,9.121,9.121,9.121,9.121,9.121,9.121,9.121,9.121,9.121,9.121,9.121,9.121,9.121,9.121,9.121,9.121,9.121,9.121,9.121,9.121,9.121,0.0,0.0,0.0,0.0,4.5249,0.0,5.2112,5.3104,5.4223,5.9489,6.2309,6.4022,6.4615,6.6562,6.8384,6.9304,7.1091,7.3597,7.7103,7.7687,7.7726,7.7717,7.7717,7.7373,7.6494,7.6418,7.5768,7.4201,7.4078,7.4469,7.5378,7.4734,7.5157,7.6976,7.7015,7.7061,7.7138,7.7869,7.8215,7.8215,7.833,7.8369,7.8407,7.9246,7.9246,7.8523,7.9323,8.0177,8.106,8.106,8.1554,8.2301,8.2301,8.1793,8.1093,8.1093,8.1093,8.1093,8.1093,8.1554,8.217,8.2285,8.3478,8.4893,8.4893,8.5517,8.6209,8.6132,8.6094,8.6094,8.6094,8.6671,8.7478,8.8372,8.9171,9.0009,9.0855,9.1133,9.1171,9.1056,9.1133,9.121,9.121,9.121,9.121,9.121,9.121,9.121,9.121,9.121,9.121,9.121,9.121,9.121,9.121,9.121,9.121,9.121,9.121,9.121,9.121,9.121,9.121,9.121,9.121,9.121,9.121,9.121,9.121,9.121,9.121,9.121,0.0,0.0,0.0,0.0,0.0,0.0,4.6078,4.7005,4.8721,5.1643,5.2639,5.4148,5.797,5.911,5.9926,6.1377,6.4748,6.8997,7.4281,7.5642,7.6046,7.5977,7.6006,7.5653,7.4775,7.469,7.4278,7.3323,7.3246,7.3368,7.366,7.3553,7.4006,7.5161,7.5207,7.5553,7.6245,7.6399,7.6476,7.6515,7.7215,7.7522,7.7561,7.8369,7.8677,7.8523,7.8677,7.9254,8.0077,8.0077,8.0993,8.2386,8.2386,8.1839,8.1093,8.1093,8.1093,8.1093,8.1093,8.1208,8.1439,8.2093,8.3478,8.4893,8.4893,8.594,8.7017,8.6286,8.6094,8.6094,8.6094,8.6247,8.6555,8.744,8.8325,8.9171,8.997,9.0701,9.097,9.0278,9.0701,9.121,9.121,9.121,9.121,9.121,9.121,9.121,9.121,9.121,9.121,9.121,9.121,9.121,9.121,9.121,9.121,9.121,9.121,9.121,9.121,9.121,9.121,9.121,9.121,9.121,9.121,9.121,9.121,9.121,9.121,9.121,0.0,0.0,0.0,4.4432,0.0,0.0,0.0,4.6365,4.7462,5.01,5.0628,5.1559,5.4529,5.5478,5.6308,5.7949,6.1413,6.4603,6.6584,7.1191,7.4358,7.4316,7.4274,7.4095,7.3628,7.359,7.3055,7.1794,7.0916,7.0882,7.1896,7.1942,7.2778,7.4661,7.47,7.513,7.5976,7.6015,7.6015,7.6015,7.6438,7.663,7.6669,7.7522,7.7676,7.7292,7.7715,7.8361,7.9131,7.9131,8.0192,8.1732,8.1732,8.1478,8.1093,8.1093,8.1362,8.1631,8.1246,8.1631,8.2401,8.2832,8.3824,8.5055,8.5901,8.6748,8.7209,8.6363,8.6094,8.6094,8.6094,8.6094,8.6324,8.7171,8.8064,8.8902,8.9739,9.0586,9.1056,9.0624,9.0902,9.1056,9.0624,9.0893,9.121,9.121,9.121,9.121,9.121,9.121,9.121,9.121,9.121,9.121,9.121,9.121,9.121,9.121,9.121,9.121,9.121,9.121,9.121,9.121,9.121,9.121,9.121,9.121,9.121,9.121,9.121,9.121,0.0,0.0,0.0,0.0,0.0,4.5313,0.0,0.0,0.0,4.9625,5.01,5.045,5.1485,5.2292,5.3126,5.4159,5.7588,5.9444,5.745,6.4684,7.034,7.0631,7.1494,7.1989,7.1819,7.1336,7.0724,6.9977,6.7928,6.7737,7.0116,7.0253,7.1394,7.3892,7.3969,7.4476,7.5515,7.5668,7.5745,7.5745,7.5938,7.6015,7.6015,7.6746,7.6669,7.6053,7.6746,7.7522,7.8292,7.8446,7.9446,8.0862,8.1016,8.1093,8.1131,8.1285,8.1631,8.2016,8.1708,8.2362,8.337,8.3563,8.417,8.5201,8.6901,8.7286,8.7017,8.6286,8.6094,8.6094,8.6094,8.6094,8.6286,8.6978,8.7948,8.8825,8.9325,9.0239,9.0902,9.0748,9.0825,9.0778,9.0239,9.074,9.121,9.121,9.121,9.121,9.121,9.121,9.121,9.121,9.121,9.121,9.121,9.121,9.121,9.121,9.121,9.121,9.121,9.121,9.121,9.121,9.121,9.121,9.121,9.121,9.121,9.121,9.121,9.121,0.0,0.0,0.0,0.0,4.5732,0.0,0.0,0.0,4.6302,4.5364,0.0,4.5674,4.6042,0.0,0.0,4.4893,4.9389,5.2141,4.9472,5.5281,6.0342,6.1765,6.5896,6.8364,6.7569,6.5337,6.5169,6.8067,6.4666,6.4284,6.8346,6.8638,6.9493,7.1283,7.1321,7.2129,7.3776,7.4469,7.4853,7.4861,7.563,7.6015,7.6015,7.6092,7.6092,7.6015,7.6092,7.663,7.7484,7.8215,7.9054,8.0015,8.0785,8.1093,8.1208,8.19,8.1785,8.1439,8.2832,8.2939,8.2554,8.337,8.417,8.5201,8.6901,8.6863,8.6247,8.6132,8.6094,8.6094,8.6094,8.6094,8.6132,8.6209,8.7517,8.8526,8.7825,8.894,8.9855,8.9133,8.9556,9.0278,9.0941,9.1133,9.121,9.121,9.121,9.121,9.121,9.121,9.121,9.121,9.121,9.121,9.121,9.121,9.121,9.121,9.121,9.121,9.121,9.121,9.121,9.121,9.121,9.121,9.121,9.121,9.121,9.121,9.121,9.121,0.0,0.0,0.0,0.0,0.0,0.0,4.4952,0.0,4.5055,0.0,0.0,0.0,0.0,0.0,0.0,0.0,4.7854,4.9176,4.6844,5.142,5.5802,5.7914,6.0609,6.2745,6.3916,6.2507,6.2768,6.5733,6.2963,6.2823,6.6705,6.7359,6.8648,7.0882,7.0919,7.1745,7.3469,7.3815,7.4238,7.47,7.5084,7.5515,7.6015,7.6015,7.6015,7.6015,7.6015,7.6476,7.733,7.7676,7.8592,7.9854,8.0208,8.1246,8.2516,8.2362,8.2401,8.2593,8.2793,8.2593,8.2439,8.3332,8.4516,8.5747,8.644,8.6401,8.6209,8.6709,8.6478,8.6094,8.6094,8.6094,8.6247,8.6748,8.7786,8.8603,8.8218,8.9056,8.9663,8.8872,8.9363,9.0009,9.0393,9.0855,9.121,9.121,9.121,9.121,9.121,9.121,9.121,9.121,9.121,9.121,9.121,9.121,9.121,9.121,9.121,9.121,9.121,9.121,9.121,9.121,9.121,9.121,9.121,9.121,9.121,9.121,9.121,9.121,4.6263,0.0,0.0,0.0,0.0,0.0,0.0,0.0,0.0,0.0,0.0,0.0,0.0,0.0,0.0,0.0,0.0,4.6464,4.421,4.7767,5.1341,5.3292,5.5211,5.7217,5.9344,5.8304,5.9078,6.2858,6.013,6.0308,6.5006,6.5785,6.7198,6.9534,7.0259,7.1188,7.243,7.3161,7.3661,7.4014,7.4238,7.4815,7.563,7.563,7.5784,7.6015,7.6015,7.6361,7.6938,7.7215,7.813,7.9477,7.97,8.1208,8.3216,8.2785,8.2755,8.2909,8.2978,8.3016,8.3093,8.3486,8.4593,8.5778,8.5778,8.5778,8.594,8.6786,8.6594,8.6094,8.6094,8.6094,8.6324,8.7171,8.7872,8.8333,8.8333,8.8786,8.9056,8.8449,8.9017,8.9624,8.9855,9.0624,9.121,9.121,9.121,9.121,9.121,9.121,9.121,9.121,9.121,9.121,9.121,9.121,9.121,9.121,9.121,9.121,9.121,9.121,9.121,9.121,9.121,9.121,9.121,9.121,9.121,9.121,9.121,9.121,0.0,0.0,0.0,4.4098,0.0,0.0,0.0,0.0,4.5034,0.0,0.0,0.0,0.0,0.0,0.0,0.0,0.0,0.0,0.0,4.2755,4.5299,4.5883,4.9596,5.2426,5.3315,5.1121,5.2454,5.926,5.5058,5.5512,6.3186,6.3582,6.4364,6.6029,6.8533,6.9849,6.9821,7.2276,7.3091,7.229,7.3129,7.3969,7.4738,7.4738,7.5207,7.6015,7.6015,7.6015,7.6092,7.6938,7.7792,7.8638,7.9477,8.0823,8.2439,8.3255,8.2562,8.1516,8.397,8.4816,8.467,8.387,8.4209,8.4931,8.4931,8.4931,8.5132,8.5901,8.6132,8.6094,8.6094,8.6094,8.6324,8.7171,8.7401,8.744,8.744,8.744,8.7478,8.744,8.8132,8.8979,8.9778,9.0624,9.121,9.121,9.121,9.121,9.121,9.121,9.121,9.121,9.121,9.121,9.121,9.121,9.121,9.121,9.121,9.121,9.121,9.121,9.121,9.121,9.121,9.121,9.121,9.121,9.121,9.121,9.121,9.121,0.0,0.0,5.4342,4.8333,0.0,0.0,0.0,0.0,0.0,0.0,0.0,0.0,0.0,0.0,0.0,0.0,0.0,0.0,0.0,4.3685,4.4729,4.4508,4.7269,4.9585,5.0624,5.0408,5.2377,5.7605,5.5875,5.6941,6.2401,6.3796,6.4905,6.5997,6.7933,6.9226,6.9772,7.0572,7.1398,7.2213,7.2514,7.336,7.47,7.47,7.5168,7.6015,7.6015,7.6015,7.6053,7.6945,7.7753,7.86,7.9477,8.0516,8.167,8.3101,8.287,8.1939,8.2285,8.2747,8.3131,8.2824,8.3283,8.4118,8.5279,8.5241,8.504,8.6424,8.6466,8.6094,8.6094,8.609,8.624,8.7077,8.7269,8.7269,8.7269,8.7782,8.8094,8.7517,8.8517,8.9594,8.9855,9.0624,9.121,9.121,9.121,9.121,9.121,9.121,9.121,9.121,9.121,9.121,9.121,9.121,9.121,9.121,9.121,9.121,9.121,9.121,9.121,9.121,9.121,9.121,9.121,9.121,9.121,9.121,9.121,9.121,5.4388,5.605,0.0,5.1927,5.2224,0.0,4.6958,0.0,0.0,0.0,0.0,0.0,0.0,0.0,0.0,0.0,0.0,0.0,0.0,4.4323,4.4599,4.439,4.5607,4.7012,4.8454,4.8502,5.04,5.5022,5.4849,5.6252,6.0282,6.2985,6.4646,6.5181,6.7948,6.9437,6.9342,7.0189,7.1002,7.1745,7.1745,7.2629,7.4276,7.4276,7.4892,7.6015,7.6015,7.6015,7.6053,7.6592,7.7484,7.8561,7.9131,8.0054,8.1285,8.2631,8.2793,8.217,8.1362,8.1631,8.2285,8.2284,8.2773,8.3675,8.5069,8.5099,8.4946,8.6327,8.6372,8.5992,8.5992,8.5949,8.6144,8.698,8.6968,8.6841,8.714,8.7487,8.7709,8.744,8.8517,8.9547,8.9855,9.0624,9.121,9.121,9.121,9.121,9.121,9.121,9.121,9.121,9.121,9.121,9.121,9.121,9.121,9.121,9.121,9.121,9.121,9.121,9.1633,9.2518,9.1672,9.1633,9.2556,9.1633,9.121,9.121,9.121,9.121]}]]